<?xml version="1.0" encoding="UTF-8" standalone="no" ?>
<gpx xmlns="http://www.topografix.com/GPX/1/1" xmlns:xsi="http://www.w3.org/2001/XMLSchema-instance" xsi:schemaLocation="http://www.topografix.com/GPX/1/1 http://www.topografix.com/GPX/1/1/gpx.xsd" version="1.1" creator="VisuGPX - https://www.visugpx.com">
  <metadata>
    <name>Sortie à VTT</name>
    <desc><![CDATA[Nouveau parcours balisé au départ de bourg d'Echandelys.]]></desc>
  </metadata>
  <trk>
    <name><![CDATA[Sortie à VTT]]></name>
    <extensions>
      <line xmlns="http://www.topografix.com/GPX/gpx_style/0/2">
        <color>0000FF</color>
        <width>4</width>
      </line>
    </extensions>
    <trkseg>
      <trkpt lat="45.55507" lon="3.54576">
        <ele>1030.281856</ele>
        <time>2023-08-25T05:38:17.445Z</time>
      </trkpt>
      <trkpt lat="45.55504" lon="3.54588">
        <ele>1030.281856</ele>
        <time>2023-08-25T05:39:40.773Z</time>
      </trkpt>
      <trkpt lat="45.55494" lon="3.54582">
        <ele>1030.281856</ele>
        <time>2023-08-25T05:39:50.795Z</time>
      </trkpt>
      <trkpt lat="45.55486" lon="3.54572">
        <ele>1030.281856</ele>
        <time>2023-08-25T05:39:53.770Z</time>
      </trkpt>
      <trkpt lat="45.55477" lon="3.54562">
        <ele>1030.281856</ele>
        <time>2023-08-25T05:39:56.779Z</time>
      </trkpt>
      <trkpt lat="45.55471" lon="3.54548">
        <ele>1030.281856</ele>
        <time>2023-08-25T05:39:58.767Z</time>
      </trkpt>
      <trkpt lat="45.55469" lon="3.54529">
        <ele>1030.281856</ele>
        <time>2023-08-25T05:40:00.777Z</time>
      </trkpt>
      <trkpt lat="45.5547" lon="3.54511">
        <ele>1030.281856</ele>
        <time>2023-08-25T05:40:02.772Z</time>
      </trkpt>
      <trkpt lat="45.5547" lon="3.54495">
        <ele>1030.237295</ele>
        <time>2023-08-25T05:40:04.786Z</time>
      </trkpt>
      <trkpt lat="45.55472" lon="3.54481">
        <ele>1029.584577</ele>
        <time>2023-08-25T05:40:06.752Z</time>
      </trkpt>
      <trkpt lat="45.55467" lon="3.54469">
        <ele>1028.8919</ele>
        <time>2023-08-25T05:40:10.764Z</time>
      </trkpt>
      <trkpt lat="45.55459" lon="3.54463">
        <ele>1028.283951</ele>
        <time>2023-08-25T05:40:12.755Z</time>
      </trkpt>
      <trkpt lat="45.55449" lon="3.54453">
        <ele>1027.467284</ele>
        <time>2023-08-25T05:40:14.787Z</time>
      </trkpt>
      <trkpt lat="45.55438" lon="3.54438">
        <ele>1026.453769</ele>
        <time>2023-08-25T05:40:16.788Z</time>
      </trkpt>
      <trkpt lat="45.55429" lon="3.54417">
        <ele>1025.254796</ele>
        <time>2023-08-25T05:40:18.775Z</time>
      </trkpt>
      <trkpt lat="45.55425" lon="3.54405">
        <ele>1024.621873</ele>
        <time>2023-08-25T05:40:19.774Z</time>
      </trkpt>
      <trkpt lat="45.55421" lon="3.54393">
        <ele>1023.989118</ele>
        <time>2023-08-25T05:40:20.782Z</time>
      </trkpt>
      <trkpt lat="45.55416" lon="3.54382">
        <ele>1023.358568</ele>
        <time>2023-08-25T05:40:21.772Z</time>
      </trkpt>
      <trkpt lat="45.55411" lon="3.54371">
        <ele>1022.741182</ele>
        <time>2023-08-25T05:40:22.781Z</time>
      </trkpt>
      <trkpt lat="45.554" lon="3.54351">
        <ele>1021.540558</ele>
        <time>2023-08-25T05:40:24.787Z</time>
      </trkpt>
      <trkpt lat="45.5539" lon="3.54333">
        <ele>1020.450286</ele>
        <time>2023-08-25T05:40:26.780Z</time>
      </trkpt>
      <trkpt lat="45.5538" lon="3.54314">
        <ele>1019.355261</ele>
        <time>2023-08-25T05:40:28.779Z</time>
      </trkpt>
      <trkpt lat="45.55371" lon="3.54292">
        <ele>1018.144056</ele>
        <time>2023-08-25T05:40:30.781Z</time>
      </trkpt>
      <trkpt lat="45.55367" lon="3.5428">
        <ele>1017.372854</ele>
        <time>2023-08-25T05:40:31.778Z</time>
      </trkpt>
      <trkpt lat="45.55361" lon="3.54269">
        <ele>1016.574163</ele>
        <time>2023-08-25T05:40:32.782Z</time>
      </trkpt>
      <trkpt lat="45.55355" lon="3.54258">
        <ele>1015.738917</ele>
        <time>2023-08-25T05:40:33.790Z</time>
      </trkpt>
      <trkpt lat="45.55347" lon="3.54247">
        <ele>1014.843804</ele>
        <time>2023-08-25T05:40:34.786Z</time>
      </trkpt>
      <trkpt lat="45.55339" lon="3.54235">
        <ele>1013.901338</ele>
        <time>2023-08-25T05:40:35.784Z</time>
      </trkpt>
      <trkpt lat="45.55331" lon="3.54223">
        <ele>1012.914247</ele>
        <time>2023-08-25T05:40:36.765Z</time>
      </trkpt>
      <trkpt lat="45.55323" lon="3.54211">
        <ele>1011.918798</ele>
        <time>2023-08-25T05:40:37.781Z</time>
      </trkpt>
      <trkpt lat="45.55314" lon="3.54198">
        <ele>1010.876756</ele>
        <time>2023-08-25T05:40:38.785Z</time>
      </trkpt>
      <trkpt lat="45.55306" lon="3.54184">
        <ele>1009.841691</ele>
        <time>2023-08-25T05:40:39.785Z</time>
      </trkpt>
      <trkpt lat="45.55297" lon="3.54171">
        <ele>1008.788153</ele>
        <time>2023-08-25T05:40:40.780Z</time>
      </trkpt>
      <trkpt lat="45.55289" lon="3.54157">
        <ele>1007.721605</ele>
        <time>2023-08-25T05:40:41.777Z</time>
      </trkpt>
      <trkpt lat="45.5528" lon="3.54143">
        <ele>1006.638445</ele>
        <time>2023-08-25T05:40:42.788Z</time>
      </trkpt>
      <trkpt lat="45.55272" lon="3.54128">
        <ele>1005.561365</ele>
        <time>2023-08-25T05:40:43.774Z</time>
      </trkpt>
      <trkpt lat="45.55264" lon="3.54114">
        <ele>1004.50301</ele>
        <time>2023-08-25T05:40:44.776Z</time>
      </trkpt>
      <trkpt lat="45.55256" lon="3.54101">
        <ele>1003.48649</ele>
        <time>2023-08-25T05:40:45.783Z</time>
      </trkpt>
      <trkpt lat="45.55248" lon="3.54088">
        <ele>1003.244959</ele>
        <time>2023-08-25T05:40:46.778Z</time>
      </trkpt>
      <trkpt lat="45.55241" lon="3.54075">
        <ele>1003.302076</ele>
        <time>2023-08-25T05:40:47.778Z</time>
      </trkpt>
      <trkpt lat="45.55235" lon="3.54064">
        <ele>1003.351025</ele>
        <time>2023-08-25T05:40:48.785Z</time>
      </trkpt>
      <trkpt lat="45.55227" lon="3.54045">
        <ele>1003.430298</ele>
        <time>2023-08-25T05:40:50.777Z</time>
      </trkpt>
      <trkpt lat="45.55217" lon="3.54035">
        <ele>1003.488303</ele>
        <time>2023-08-25T05:40:52.783Z</time>
      </trkpt>
      <trkpt lat="45.55205" lon="3.54031">
        <ele>1003.551886</ele>
        <time>2023-08-25T05:40:54.791Z</time>
      </trkpt>
      <trkpt lat="45.55194" lon="3.5403">
        <ele>1003.604756</ele>
        <time>2023-08-25T05:40:56.783Z</time>
      </trkpt>
      <trkpt lat="45.55185" lon="3.54027">
        <ele>1003.651336</ele>
        <time>2023-08-25T05:40:58.766Z</time>
      </trkpt>
      <trkpt lat="45.55176" lon="3.54024">
        <ele>1003.698544</ele>
        <time>2023-08-25T05:41:00.770Z</time>
      </trkpt>
      <trkpt lat="45.55168" lon="3.54017">
        <ele>1003.745888</ele>
        <time>2023-08-25T05:41:03.770Z</time>
      </trkpt>
      <trkpt lat="45.5516" lon="3.54009">
        <ele>1003.795933</ele>
        <time>2023-08-25T05:41:06.750Z</time>
      </trkpt>
      <trkpt lat="45.55151" lon="3.53999">
        <ele>1003.852045</ele>
        <time>2023-08-25T05:41:09.752Z</time>
      </trkpt>
      <trkpt lat="45.5514" lon="3.53989">
        <ele>1003.916387</ele>
        <time>2023-08-25T05:41:12.754Z</time>
      </trkpt>
      <trkpt lat="45.55132" lon="3.53984">
        <ele>1003.963082</ele>
        <time>2023-08-25T05:41:14.776Z</time>
      </trkpt>
      <trkpt lat="45.55122" lon="3.53978">
        <ele>1004.014304</ele>
        <time>2023-08-25T05:41:16.780Z</time>
      </trkpt>
      <trkpt lat="45.55113" lon="3.53973">
        <ele>1004.065357</ele>
        <time>2023-08-25T05:41:18.783Z</time>
      </trkpt>
      <trkpt lat="45.55102" lon="3.53969">
        <ele>1003.495079</ele>
        <time>2023-08-25T05:41:20.779Z</time>
      </trkpt>
      <trkpt lat="45.55091" lon="3.53964">
        <ele>1001.773066</ele>
        <time>2023-08-25T05:41:22.782Z</time>
      </trkpt>
      <trkpt lat="45.5508" lon="3.53961">
        <ele>1000.113903</ele>
        <time>2023-08-25T05:41:24.784Z</time>
      </trkpt>
      <trkpt lat="45.5507" lon="3.53959">
        <ele>998.591321</ele>
        <time>2023-08-25T05:41:26.777Z</time>
      </trkpt>
      <trkpt lat="45.55058" lon="3.53957">
        <ele>996.785598</ele>
        <time>2023-08-25T05:41:28.766Z</time>
      </trkpt>
      <trkpt lat="45.55047" lon="3.5396">
        <ele>995.085457</ele>
        <time>2023-08-25T05:41:30.764Z</time>
      </trkpt>
      <trkpt lat="45.55035" lon="3.53964">
        <ele>993.236494</ele>
        <time>2023-08-25T05:41:32.772Z</time>
      </trkpt>
      <trkpt lat="45.55023" lon="3.53966">
        <ele>991.414945</ele>
        <time>2023-08-25T05:41:34.769Z</time>
      </trkpt>
      <trkpt lat="45.5501" lon="3.53962">
        <ele>989.435154</ele>
        <time>2023-08-25T05:41:36.782Z</time>
      </trkpt>
      <trkpt lat="45.54998" lon="3.53957">
        <ele>987.632364</ele>
        <time>2023-08-25T05:41:38.792Z</time>
      </trkpt>
      <trkpt lat="45.54986" lon="3.53954">
        <ele>985.732481</ele>
        <time>2023-08-25T05:41:40.789Z</time>
      </trkpt>
      <trkpt lat="45.54971" lon="3.53945">
        <ele>983.373645</ele>
        <time>2023-08-25T05:41:42.774Z</time>
      </trkpt>
      <trkpt lat="45.5496" lon="3.53935">
        <ele>981.409102</ele>
        <time>2023-08-25T05:41:44.771Z</time>
      </trkpt>
      <trkpt lat="45.54951" lon="3.53928">
        <ele>979.807254</ele>
        <time>2023-08-25T05:41:46.779Z</time>
      </trkpt>
      <trkpt lat="45.54942" lon="3.53922">
        <ele>978.412025</ele>
        <time>2023-08-25T05:41:48.764Z</time>
      </trkpt>
      <trkpt lat="45.54932" lon="3.53913">
        <ele>976.923556</ele>
        <time>2023-08-25T05:41:51.778Z</time>
      </trkpt>
      <trkpt lat="45.54923" lon="3.53905">
        <ele>976.194473</ele>
        <time>2023-08-25T05:41:54.769Z</time>
      </trkpt>
      <trkpt lat="45.54914" lon="3.53899">
        <ele>975.610136</ele>
        <time>2023-08-25T05:41:56.761Z</time>
      </trkpt>
      <trkpt lat="45.54905" lon="3.53892">
        <ele>974.95571</ele>
        <time>2023-08-25T05:41:58.771Z</time>
      </trkpt>
      <trkpt lat="45.54896" lon="3.53886">
        <ele>974.300315</ele>
        <time>2023-08-25T05:42:00.774Z</time>
      </trkpt>
      <trkpt lat="45.54885" lon="3.53877">
        <ele>973.504321</ele>
        <time>2023-08-25T05:42:02.779Z</time>
      </trkpt>
      <trkpt lat="45.54873" lon="3.53866">
        <ele>972.602572</ele>
        <time>2023-08-25T05:42:04.789Z</time>
      </trkpt>
      <trkpt lat="45.54863" lon="3.53857">
        <ele>971.818994</ele>
        <time>2023-08-25T05:42:06.773Z</time>
      </trkpt>
      <trkpt lat="45.54854" lon="3.53848">
        <ele>971.138189</ele>
        <time>2023-08-25T05:42:08.778Z</time>
      </trkpt>
      <trkpt lat="45.54847" lon="3.53839">
        <ele>970.497826</ele>
        <time>2023-08-25T05:42:10.797Z</time>
      </trkpt>
      <trkpt lat="45.54844" lon="3.53826">
        <ele>969.902417</ele>
        <time>2023-08-25T05:42:13.775Z</time>
      </trkpt>
      <trkpt lat="45.5485" lon="3.53813">
        <ele>969.191169</ele>
        <time>2023-08-25T05:42:18.778Z</time>
      </trkpt>
      <trkpt lat="45.54852" lon="3.53799">
        <ele>968.578543</ele>
        <time>2023-08-25T05:42:22.773Z</time>
      </trkpt>
      <trkpt lat="45.54852" lon="3.53786">
        <ele>967.992413</ele>
        <time>2023-08-25T05:42:26.766Z</time>
      </trkpt>
      <trkpt lat="45.54847" lon="3.53772">
        <ele>967.261611</ele>
        <time>2023-08-25T05:42:31.770Z</time>
      </trkpt>
      <trkpt lat="45.54839" lon="3.53764">
        <ele>966.666557</ele>
        <time>2023-08-25T05:42:34.783Z</time>
      </trkpt>
      <trkpt lat="45.5483" lon="3.53753">
        <ele>965.898928</ele>
        <time>2023-08-25T05:42:37.772Z</time>
      </trkpt>
      <trkpt lat="45.54823" lon="3.53743">
        <ele>965.55497</ele>
        <time>2023-08-25T05:42:40.766Z</time>
      </trkpt>
      <trkpt lat="45.54815" lon="3.53734">
        <ele>965.40513</ele>
        <time>2023-08-25T05:42:43.765Z</time>
      </trkpt>
      <trkpt lat="45.54808" lon="3.53723">
        <ele>965.252412</ele>
        <time>2023-08-25T05:42:46.769Z</time>
      </trkpt>
      <trkpt lat="45.548" lon="3.5371">
        <ele>965.07297</ele>
        <time>2023-08-25T05:42:49.774Z</time>
      </trkpt>
      <trkpt lat="45.54792" lon="3.53701">
        <ele>964.92553</ele>
        <time>2023-08-25T05:42:52.766Z</time>
      </trkpt>
      <trkpt lat="45.54783" lon="3.53687">
        <ele>964.720876</ele>
        <time>2023-08-25T05:42:55.772Z</time>
      </trkpt>
      <trkpt lat="45.54777" lon="3.53675">
        <ele>964.578564</ele>
        <time>2023-08-25T05:42:57.774Z</time>
      </trkpt>
      <trkpt lat="45.5477" lon="3.53663">
        <ele>964.413965</ele>
        <time>2023-08-25T05:43:00.777Z</time>
      </trkpt>
      <trkpt lat="45.54766" lon="3.53651">
        <ele>964.277157</ele>
        <time>2023-08-25T05:43:02.787Z</time>
      </trkpt>
      <trkpt lat="45.5476" lon="3.53641">
        <ele>964.140667</ele>
        <time>2023-08-25T05:43:04.776Z</time>
      </trkpt>
      <trkpt lat="45.54751" lon="3.53629">
        <ele>963.95447</ele>
        <time>2023-08-25T05:43:07.783Z</time>
      </trkpt>
      <trkpt lat="45.54739" lon="3.53619">
        <ele>963.758504</ele>
        <time>2023-08-25T05:43:10.781Z</time>
      </trkpt>
      <trkpt lat="45.54731" lon="3.53614">
        <ele>963.62424</ele>
        <time>2023-08-25T05:43:12.783Z</time>
      </trkpt>
      <trkpt lat="45.54719" lon="3.53608">
        <ele>963.435427</ele>
        <time>2023-08-25T05:43:15.761Z</time>
      </trkpt>
      <trkpt lat="45.54707" lon="3.53603">
        <ele>963.246503</ele>
        <time>2023-08-25T05:43:18.777Z</time>
      </trkpt>
      <trkpt lat="45.54695" lon="3.53599">
        <ele>963.067644</ele>
        <time>2023-08-25T05:43:21.781Z</time>
      </trkpt>
      <trkpt lat="45.54686" lon="3.53595">
        <ele>962.819173</ele>
        <time>2023-08-25T05:43:23.784Z</time>
      </trkpt>
      <trkpt lat="45.54676" lon="3.53592">
        <ele>962.408491</ele>
        <time>2023-08-25T05:43:25.789Z</time>
      </trkpt>
      <trkpt lat="45.54666" lon="3.53591">
        <ele>961.995991</ele>
        <time>2023-08-25T05:43:27.785Z</time>
      </trkpt>
      <trkpt lat="45.54655" lon="3.5359">
        <ele>961.52931</ele>
        <time>2023-08-25T05:43:29.777Z</time>
      </trkpt>
      <trkpt lat="45.54644" lon="3.53582">
        <ele>961.029731</ele>
        <time>2023-08-25T05:43:31.772Z</time>
      </trkpt>
      <trkpt lat="45.54633" lon="3.53576">
        <ele>960.550823</ele>
        <time>2023-08-25T05:43:33.777Z</time>
      </trkpt>
      <trkpt lat="45.5462" lon="3.53573">
        <ele>960.003143</ele>
        <time>2023-08-25T05:43:35.787Z</time>
      </trkpt>
      <trkpt lat="45.54605" lon="3.53574">
        <ele>959.393571</ele>
        <time>2023-08-25T05:43:37.784Z</time>
      </trkpt>
      <trkpt lat="45.5459" lon="3.53573">
        <ele>958.763011</ele>
        <time>2023-08-25T05:43:39.783Z</time>
      </trkpt>
      <trkpt lat="45.54574" lon="3.5357">
        <ele>958.120577</ele>
        <time>2023-08-25T05:43:41.782Z</time>
      </trkpt>
      <trkpt lat="45.54558" lon="3.53565">
        <ele>957.454789</ele>
        <time>2023-08-25T05:43:43.784Z</time>
      </trkpt>
      <trkpt lat="45.54543" lon="3.53555">
        <ele>956.775197</ele>
        <time>2023-08-25T05:43:45.789Z</time>
      </trkpt>
      <trkpt lat="45.5453" lon="3.5354">
        <ele>956.056285</ele>
        <time>2023-08-25T05:43:47.778Z</time>
      </trkpt>
      <trkpt lat="45.54525" lon="3.53529">
        <ele>955.680626</ele>
        <time>2023-08-25T05:43:48.766Z</time>
      </trkpt>
      <trkpt lat="45.54521" lon="3.53517">
        <ele>955.419196</ele>
        <time>2023-08-25T05:43:49.786Z</time>
      </trkpt>
      <trkpt lat="45.54515" lon="3.53494">
        <ele>955.008042</ele>
        <time>2023-08-25T05:43:51.773Z</time>
      </trkpt>
      <trkpt lat="45.54509" lon="3.53472">
        <ele>954.614314</ele>
        <time>2023-08-25T05:43:53.794Z</time>
      </trkpt>
      <trkpt lat="45.54503" lon="3.53451">
        <ele>954.223386</ele>
        <time>2023-08-25T05:43:55.787Z</time>
      </trkpt>
      <trkpt lat="45.54498" lon="3.5343">
        <ele>953.843838</ele>
        <time>2023-08-25T05:43:57.782Z</time>
      </trkpt>
      <trkpt lat="45.54492" lon="3.5341">
        <ele>953.481513</ele>
        <time>2023-08-25T05:43:59.760Z</time>
      </trkpt>
      <trkpt lat="45.54486" lon="3.5339">
        <ele>953.128806</ele>
        <time>2023-08-25T05:44:01.789Z</time>
      </trkpt>
      <trkpt lat="45.54481" lon="3.53372">
        <ele>952.794627</ele>
        <time>2023-08-25T05:44:03.784Z</time>
      </trkpt>
      <trkpt lat="45.54476" lon="3.53352">
        <ele>952.440554</ele>
        <time>2023-08-25T05:44:05.774Z</time>
      </trkpt>
      <trkpt lat="45.54469" lon="3.53334">
        <ele>952.085352</ele>
        <time>2023-08-25T05:44:07.782Z</time>
      </trkpt>
      <trkpt lat="45.54461" lon="3.53316">
        <ele>951.724974</ele>
        <time>2023-08-25T05:44:09.785Z</time>
      </trkpt>
      <trkpt lat="45.54451" lon="3.53301">
        <ele>951.384121</ele>
        <time>2023-08-25T05:44:11.784Z</time>
      </trkpt>
      <trkpt lat="45.54442" lon="3.53286">
        <ele>950.975367</ele>
        <time>2023-08-25T05:44:13.768Z</time>
      </trkpt>
      <trkpt lat="45.54434" lon="3.53268">
        <ele>950.516931</ele>
        <time>2023-08-25T05:44:15.787Z</time>
      </trkpt>
      <trkpt lat="45.5443" lon="3.53248">
        <ele>950.043284</ele>
        <time>2023-08-25T05:44:17.782Z</time>
      </trkpt>
      <trkpt lat="45.54428" lon="3.53227">
        <ele>949.574154</ele>
        <time>2023-08-25T05:44:19.777Z</time>
      </trkpt>
      <trkpt lat="45.54426" lon="3.53206">
        <ele>949.106589</ele>
        <time>2023-08-25T05:44:21.794Z</time>
      </trkpt>
      <trkpt lat="45.54424" lon="3.53186">
        <ele>948.637014</ele>
        <time>2023-08-25T05:44:23.799Z</time>
      </trkpt>
      <trkpt lat="45.54421" lon="3.53164">
        <ele>948.139577</ele>
        <time>2023-08-25T05:44:25.771Z</time>
      </trkpt>
      <trkpt lat="45.54416" lon="3.53142">
        <ele>947.625861</ele>
        <time>2023-08-25T05:44:27.783Z</time>
      </trkpt>
      <trkpt lat="45.5441" lon="3.53121">
        <ele>947.118345</ele>
        <time>2023-08-25T05:44:29.768Z</time>
      </trkpt>
      <trkpt lat="45.54402" lon="3.53102">
        <ele>946.615295</ele>
        <time>2023-08-25T05:44:31.790Z</time>
      </trkpt>
      <trkpt lat="45.54393" lon="3.53084">
        <ele>946.121127</ele>
        <time>2023-08-25T05:44:33.787Z</time>
      </trkpt>
      <trkpt lat="45.54384" lon="3.53065">
        <ele>945.610369</ele>
        <time>2023-08-25T05:44:35.789Z</time>
      </trkpt>
      <trkpt lat="45.54376" lon="3.53045">
        <ele>945.519793</ele>
        <time>2023-08-25T05:44:37.787Z</time>
      </trkpt>
      <trkpt lat="45.5437" lon="3.53028">
        <ele>945.528278</ele>
        <time>2023-08-25T05:44:39.783Z</time>
      </trkpt>
      <trkpt lat="45.54372" lon="3.53011">
        <ele>945.535679</ele>
        <time>2023-08-25T05:44:41.785Z</time>
      </trkpt>
      <trkpt lat="45.54378" lon="3.53">
        <ele>945.542082</ele>
        <time>2023-08-25T05:44:43.778Z</time>
      </trkpt>
      <trkpt lat="45.54385" lon="3.52991">
        <ele>945.547827</ele>
        <time>2023-08-25T05:44:45.783Z</time>
      </trkpt>
      <trkpt lat="45.54391" lon="3.52981">
        <ele>945.553662</ele>
        <time>2023-08-25T05:44:47.785Z</time>
      </trkpt>
      <trkpt lat="45.54398" lon="3.52971">
        <ele>945.559785</ele>
        <time>2023-08-25T05:44:49.777Z</time>
      </trkpt>
      <trkpt lat="45.54404" lon="3.52956">
        <ele>945.56755</ele>
        <time>2023-08-25T05:44:52.791Z</time>
      </trkpt>
      <trkpt lat="45.54407" lon="3.52943">
        <ele>945.573315</ele>
        <time>2023-08-25T05:44:54.780Z</time>
      </trkpt>
      <trkpt lat="45.5441" lon="3.52929">
        <ele>945.579953</ele>
        <time>2023-08-25T05:44:56.773Z</time>
      </trkpt>
      <trkpt lat="45.54417" lon="3.52919">
        <ele>945.586362</ele>
        <time>2023-08-25T05:44:58.764Z</time>
      </trkpt>
      <trkpt lat="45.54424" lon="3.52906">
        <ele>945.593547</ele>
        <time>2023-08-25T05:45:00.792Z</time>
      </trkpt>
      <trkpt lat="45.5443" lon="3.5289">
        <ele>945.601085</ele>
        <time>2023-08-25T05:45:02.760Z</time>
      </trkpt>
      <trkpt lat="45.54435" lon="3.52876">
        <ele>945.608128</ele>
        <time>2023-08-25T05:45:04.786Z</time>
      </trkpt>
      <trkpt lat="45.5444" lon="3.52862">
        <ele>945.615085</ele>
        <time>2023-08-25T05:45:06.789Z</time>
      </trkpt>
      <trkpt lat="45.54448" lon="3.52852">
        <ele>945.62174</ele>
        <time>2023-08-25T05:45:08.786Z</time>
      </trkpt>
      <trkpt lat="45.54457" lon="3.52845">
        <ele>945.214833</ele>
        <time>2023-08-25T05:45:10.792Z</time>
      </trkpt>
      <trkpt lat="45.54466" lon="3.52835">
        <ele>944.374248</ele>
        <time>2023-08-25T05:45:12.775Z</time>
      </trkpt>
      <trkpt lat="45.54476" lon="3.52821">
        <ele>943.403735</ele>
        <time>2023-08-25T05:45:14.772Z</time>
      </trkpt>
      <trkpt lat="45.54486" lon="3.52802">
        <ele>942.215576</ele>
        <time>2023-08-25T05:45:16.785Z</time>
      </trkpt>
      <trkpt lat="45.54494" lon="3.52783">
        <ele>941.075192</ele>
        <time>2023-08-25T05:45:18.775Z</time>
      </trkpt>
      <trkpt lat="45.54503" lon="3.52765">
        <ele>939.994682</ele>
        <time>2023-08-25T05:45:20.772Z</time>
      </trkpt>
      <trkpt lat="45.54511" lon="3.52749">
        <ele>938.974879</ele>
        <time>2023-08-25T05:45:22.785Z</time>
      </trkpt>
      <trkpt lat="45.5452" lon="3.52734">
        <ele>937.944863</ele>
        <time>2023-08-25T05:45:24.786Z</time>
      </trkpt>
      <trkpt lat="45.5453" lon="3.52715">
        <ele>936.78155</ele>
        <time>2023-08-25T05:45:26.780Z</time>
      </trkpt>
      <trkpt lat="45.54537" lon="3.52693">
        <ele>935.571009</ele>
        <time>2023-08-25T05:45:28.779Z</time>
      </trkpt>
      <trkpt lat="45.5454" lon="3.5267">
        <ele>934.358737</ele>
        <time>2023-08-25T05:45:30.795Z</time>
      </trkpt>
      <trkpt lat="45.54541" lon="3.52647">
        <ele>933.215703</ele>
        <time>2023-08-25T05:45:32.776Z</time>
      </trkpt>
      <trkpt lat="45.54547" lon="3.52629">
        <ele>932.718759</ele>
        <time>2023-08-25T05:45:34.780Z</time>
      </trkpt>
      <trkpt lat="45.54558" lon="3.52615">
        <ele>932.909357</ele>
        <time>2023-08-25T05:45:36.778Z</time>
      </trkpt>
      <trkpt lat="45.5457" lon="3.52598">
        <ele>933.111855</ele>
        <time>2023-08-25T05:45:38.772Z</time>
      </trkpt>
      <trkpt lat="45.54576" lon="3.5258">
        <ele>933.295753</ele>
        <time>2023-08-25T05:45:40.764Z</time>
      </trkpt>
      <trkpt lat="45.54584" lon="3.52568">
        <ele>933.433504</ele>
        <time>2023-08-25T05:45:43.788Z</time>
      </trkpt>
      <trkpt lat="45.54593" lon="3.52571">
        <ele>933.550686</ele>
        <time>2023-08-25T05:45:46.791Z</time>
      </trkpt>
      <trkpt lat="45.54604" lon="3.52573">
        <ele>933.691651</ele>
        <time>2023-08-25T05:45:50.788Z</time>
      </trkpt>
      <trkpt lat="45.54613" lon="3.52582">
        <ele>933.829369</ele>
        <time>2023-08-25T05:45:53.773Z</time>
      </trkpt>
      <trkpt lat="45.54621" lon="3.52594">
        <ele>933.976308</ele>
        <time>2023-08-25T05:45:56.775Z</time>
      </trkpt>
      <trkpt lat="45.54626" lon="3.52605">
        <ele>934.096054</ele>
        <time>2023-08-25T05:45:59.760Z</time>
      </trkpt>
      <trkpt lat="45.54631" lon="3.52616">
        <ele>934.211478</ele>
        <time>2023-08-25T05:46:02.772Z</time>
      </trkpt>
      <trkpt lat="45.54637" lon="3.52627">
        <ele>934.331285</ele>
        <time>2023-08-25T05:46:05.789Z</time>
      </trkpt>
      <trkpt lat="45.54642" lon="3.52638">
        <ele>934.446656</ele>
        <time>2023-08-25T05:46:08.749Z</time>
      </trkpt>
      <trkpt lat="45.54648" lon="3.52648">
        <ele>934.563551</ele>
        <time>2023-08-25T05:46:11.759Z</time>
      </trkpt>
      <trkpt lat="45.54654" lon="3.52658">
        <ele>934.679194</ele>
        <time>2023-08-25T05:46:14.786Z</time>
      </trkpt>
      <trkpt lat="45.5466" lon="3.52673">
        <ele>934.833792</ele>
        <time>2023-08-25T05:46:18.784Z</time>
      </trkpt>
      <trkpt lat="45.54662" lon="3.52688">
        <ele>934.96524</ele>
        <time>2023-08-25T05:46:22.782Z</time>
      </trkpt>
      <trkpt lat="45.54659" lon="3.52701">
        <ele>935.073983</ele>
        <time>2023-08-25T05:46:25.779Z</time>
      </trkpt>
      <trkpt lat="45.54656" lon="3.52715">
        <ele>935.195517</ele>
        <time>2023-08-25T05:46:28.769Z</time>
      </trkpt>
      <trkpt lat="45.54655" lon="3.52729">
        <ele>935.311852</ele>
        <time>2023-08-25T05:46:31.776Z</time>
      </trkpt>
      <trkpt lat="45.54654" lon="3.52742">
        <ele>935.418954</ele>
        <time>2023-08-25T05:46:34.786Z</time>
      </trkpt>
      <trkpt lat="45.54654" lon="3.52758">
        <ele>935.543997</ele>
        <time>2023-08-25T05:46:37.780Z</time>
      </trkpt>
      <trkpt lat="45.54655" lon="3.52774">
        <ele>935.679979</ele>
        <time>2023-08-25T05:46:40.775Z</time>
      </trkpt>
      <trkpt lat="45.54656" lon="3.52791">
        <ele>935.822291</ele>
        <time>2023-08-25T05:46:43.757Z</time>
      </trkpt>
      <trkpt lat="45.54659" lon="3.52808">
        <ele>935.966338</ele>
        <time>2023-08-25T05:46:46.750Z</time>
      </trkpt>
      <trkpt lat="45.5466" lon="3.52825">
        <ele>936.101577</ele>
        <time>2023-08-25T05:46:49.773Z</time>
      </trkpt>
      <trkpt lat="45.54662" lon="3.52837">
        <ele>936.2084</ele>
        <time>2023-08-25T05:46:52.763Z</time>
      </trkpt>
      <trkpt lat="45.54675" lon="3.52833">
        <ele>936.360025</ele>
        <time>2023-08-25T05:46:55.792Z</time>
      </trkpt>
      <trkpt lat="45.54686" lon="3.52826">
        <ele>936.509032</ele>
        <time>2023-08-25T05:46:58.770Z</time>
      </trkpt>
      <trkpt lat="45.54697" lon="3.52822">
        <ele>936.633208</ele>
        <time>2023-08-25T05:47:00.778Z</time>
      </trkpt>
      <trkpt lat="45.54707" lon="3.52818">
        <ele>936.758375</ele>
        <time>2023-08-25T05:47:02.793Z</time>
      </trkpt>
      <trkpt lat="45.54718" lon="3.52814">
        <ele>936.892781</ele>
        <time>2023-08-25T05:47:04.800Z</time>
      </trkpt>
      <trkpt lat="45.54729" lon="3.52807">
        <ele>936.949424</ele>
        <time>2023-08-25T05:47:06.793Z</time>
      </trkpt>
      <trkpt lat="45.5474" lon="3.52798">
        <ele>936.254878</ele>
        <time>2023-08-25T05:47:08.804Z</time>
      </trkpt>
      <trkpt lat="45.5475" lon="3.52785">
        <ele>935.499178</ele>
        <time>2023-08-25T05:47:10.780Z</time>
      </trkpt>
      <trkpt lat="45.54762" lon="3.52769">
        <ele>934.610727</ele>
        <time>2023-08-25T05:47:12.785Z</time>
      </trkpt>
      <trkpt lat="45.54775" lon="3.52753">
        <ele>933.717701</ele>
        <time>2023-08-25T05:47:14.794Z</time>
      </trkpt>
      <trkpt lat="45.54786" lon="3.52742">
        <ele>932.937945</ele>
        <time>2023-08-25T05:47:16.773Z</time>
      </trkpt>
      <trkpt lat="45.54797" lon="3.52734">
        <ele>932.266168</ele>
        <time>2023-08-25T05:47:18.787Z</time>
      </trkpt>
      <trkpt lat="45.54807" lon="3.52733">
        <ele>931.757843</ele>
        <time>2023-08-25T05:47:20.791Z</time>
      </trkpt>
      <trkpt lat="45.54817" lon="3.52733">
        <ele>931.201751</ele>
        <time>2023-08-25T05:47:22.768Z</time>
      </trkpt>
      <trkpt lat="45.54829" lon="3.52732">
        <ele>930.534828</ele>
        <time>2023-08-25T05:47:24.780Z</time>
      </trkpt>
      <trkpt lat="45.54844" lon="3.52727">
        <ele>929.720104</ele>
        <time>2023-08-25T05:47:26.752Z</time>
      </trkpt>
      <trkpt lat="45.54852" lon="3.52723">
        <ele>929.226614</ele>
        <time>2023-08-25T05:47:27.789Z</time>
      </trkpt>
      <trkpt lat="45.54866" lon="3.52714">
        <ele>928.393459</ele>
        <time>2023-08-25T05:47:29.777Z</time>
      </trkpt>
      <trkpt lat="45.54877" lon="3.52706">
        <ele>927.715548</ele>
        <time>2023-08-25T05:47:31.776Z</time>
      </trkpt>
      <trkpt lat="45.54887" lon="3.52695">
        <ele>926.92122</ele>
        <time>2023-08-25T05:47:33.785Z</time>
      </trkpt>
      <trkpt lat="45.54895" lon="3.52686">
        <ele>925.910679</ele>
        <time>2023-08-25T05:47:35.789Z</time>
      </trkpt>
      <trkpt lat="45.54904" lon="3.52678">
        <ele>924.815005</ele>
        <time>2023-08-25T05:47:37.792Z</time>
      </trkpt>
      <trkpt lat="45.54915" lon="3.5267">
        <ele>923.617044</ele>
        <time>2023-08-25T05:47:39.773Z</time>
      </trkpt>
      <trkpt lat="45.54924" lon="3.52662">
        <ele>922.581596</ele>
        <time>2023-08-25T05:47:41.775Z</time>
      </trkpt>
      <trkpt lat="45.54933" lon="3.52654">
        <ele>921.539573</ele>
        <time>2023-08-25T05:47:43.769Z</time>
      </trkpt>
      <trkpt lat="45.54944" lon="3.52643">
        <ele>920.262203</ele>
        <time>2023-08-25T05:47:45.770Z</time>
      </trkpt>
      <trkpt lat="45.54953" lon="3.52633">
        <ele>919.13712</ele>
        <time>2023-08-25T05:47:47.783Z</time>
      </trkpt>
      <trkpt lat="45.54962" lon="3.52622">
        <ele>917.944672</ele>
        <time>2023-08-25T05:47:49.789Z</time>
      </trkpt>
      <trkpt lat="45.54974" lon="3.5261">
        <ele>916.551351</ele>
        <time>2023-08-25T05:47:51.795Z</time>
      </trkpt>
      <trkpt lat="45.54985" lon="3.52596">
        <ele>915.079553</ele>
        <time>2023-08-25T05:47:53.776Z</time>
      </trkpt>
      <trkpt lat="45.54996" lon="3.52583">
        <ele>913.662925</ele>
        <time>2023-08-25T05:47:55.781Z</time>
      </trkpt>
      <trkpt lat="45.55004" lon="3.52569">
        <ele>912.378539</ele>
        <time>2023-08-25T05:47:57.788Z</time>
      </trkpt>
      <trkpt lat="45.55012" lon="3.52554">
        <ele>911.131366</ele>
        <time>2023-08-25T05:47:59.787Z</time>
      </trkpt>
      <trkpt lat="45.55018" lon="3.52542">
        <ele>910.143644</ele>
        <time>2023-08-25T05:48:01.784Z</time>
      </trkpt>
      <trkpt lat="45.55022" lon="3.52529">
        <ele>909.607816</ele>
        <time>2023-08-25T05:48:05.799Z</time>
      </trkpt>
      <trkpt lat="45.55026" lon="3.52517">
        <ele>909.77808</ele>
        <time>2023-08-25T05:48:10.777Z</time>
      </trkpt>
      <trkpt lat="45.55029" lon="3.52502">
        <ele>909.974295</ele>
        <time>2023-08-25T05:48:16.792Z</time>
      </trkpt>
      <trkpt lat="45.55034" lon="3.52486">
        <ele>910.189478</ele>
        <time>2023-08-25T05:48:21.766Z</time>
      </trkpt>
      <trkpt lat="45.55035" lon="3.5247">
        <ele>910.396776</ele>
        <time>2023-08-25T05:48:25.780Z</time>
      </trkpt>
      <trkpt lat="45.55037" lon="3.52457">
        <ele>910.558072</ele>
        <time>2023-08-25T05:48:28.789Z</time>
      </trkpt>
      <trkpt lat="45.55042" lon="3.52444">
        <ele>910.747045</ele>
        <time>2023-08-25T05:48:31.780Z</time>
      </trkpt>
      <trkpt lat="45.55048" lon="3.5243">
        <ele>910.946752</ele>
        <time>2023-08-25T05:48:35.775Z</time>
      </trkpt>
      <trkpt lat="45.55052" lon="3.52419">
        <ele>911.113098</ele>
        <time>2023-08-25T05:48:38.790Z</time>
      </trkpt>
      <trkpt lat="45.55056" lon="3.52407">
        <ele>911.280676</ele>
        <time>2023-08-25T05:48:41.791Z</time>
      </trkpt>
      <trkpt lat="45.55061" lon="3.52395">
        <ele>911.449244</ele>
        <time>2023-08-25T05:48:44.775Z</time>
      </trkpt>
      <trkpt lat="45.55063" lon="3.52379">
        <ele>911.649844</ele>
        <time>2023-08-25T05:48:48.779Z</time>
      </trkpt>
      <trkpt lat="45.55068" lon="3.52367">
        <ele>911.835538</ele>
        <time>2023-08-25T05:48:51.783Z</time>
      </trkpt>
      <trkpt lat="45.55077" lon="3.52362">
        <ele>912.006826</ele>
        <time>2023-08-25T05:48:54.793Z</time>
      </trkpt>
      <trkpt lat="45.55086" lon="3.52357">
        <ele>912.19297</ele>
        <time>2023-08-25T05:48:57.781Z</time>
      </trkpt>
      <trkpt lat="45.55096" lon="3.52352">
        <ele>912.38166</ele>
        <time>2023-08-25T05:49:00.785Z</time>
      </trkpt>
      <trkpt lat="45.55106" lon="3.52348">
        <ele>912.563989</ele>
        <time>2023-08-25T05:49:03.793Z</time>
      </trkpt>
      <trkpt lat="45.55116" lon="3.5234">
        <ele>912.76479</ele>
        <time>2023-08-25T05:49:06.785Z</time>
      </trkpt>
      <trkpt lat="45.55125" lon="3.5233">
        <ele>913.812222</ele>
        <time>2023-08-25T05:49:10.789Z</time>
      </trkpt>
      <trkpt lat="45.55132" lon="3.52321">
        <ele>914.639047</ele>
        <time>2023-08-25T05:49:13.790Z</time>
      </trkpt>
      <trkpt lat="45.5514" lon="3.52311">
        <ele>915.587046</ele>
        <time>2023-08-25T05:49:17.790Z</time>
      </trkpt>
      <trkpt lat="45.5515" lon="3.52303">
        <ele>916.571199</ele>
        <time>2023-08-25T05:49:21.789Z</time>
      </trkpt>
      <trkpt lat="45.55158" lon="3.52297">
        <ele>917.393807</ele>
        <time>2023-08-25T05:49:24.760Z</time>
      </trkpt>
      <trkpt lat="45.55168" lon="3.5229">
        <ele>918.397258</ele>
        <time>2023-08-25T05:49:28.767Z</time>
      </trkpt>
      <trkpt lat="45.55177" lon="3.52286">
        <ele>919.201082</ele>
        <time>2023-08-25T05:49:31.790Z</time>
      </trkpt>
      <trkpt lat="45.55188" lon="3.5228">
        <ele>920.248992</ele>
        <time>2023-08-25T05:49:35.786Z</time>
      </trkpt>
      <trkpt lat="45.55199" lon="3.52275">
        <ele>921.23009</ele>
        <time>2023-08-25T05:49:39.780Z</time>
      </trkpt>
      <trkpt lat="45.55209" lon="3.52267">
        <ele>922.236109</ele>
        <time>2023-08-25T05:49:43.780Z</time>
      </trkpt>
      <trkpt lat="45.55218" lon="3.5226">
        <ele>923.217023</ele>
        <time>2023-08-25T05:49:47.782Z</time>
      </trkpt>
      <trkpt lat="45.55227" lon="3.52253">
        <ele>924.116191</ele>
        <time>2023-08-25T05:49:50.793Z</time>
      </trkpt>
      <trkpt lat="45.55236" lon="3.52246">
        <ele>925.018909</ele>
        <time>2023-08-25T05:49:53.782Z</time>
      </trkpt>
      <trkpt lat="45.55247" lon="3.5224">
        <ele>926.007498</ele>
        <time>2023-08-25T05:49:57.785Z</time>
      </trkpt>
      <trkpt lat="45.55257" lon="3.52235">
        <ele>926.986849</ele>
        <time>2023-08-25T05:50:01.784Z</time>
      </trkpt>
      <trkpt lat="45.55268" lon="3.52233">
        <ele>927.977274</ele>
        <time>2023-08-25T05:50:05.764Z</time>
      </trkpt>
      <trkpt lat="45.55278" lon="3.52233">
        <ele>928.791999</ele>
        <time>2023-08-25T05:50:09.788Z</time>
      </trkpt>
      <trkpt lat="45.55287" lon="3.52233">
        <ele>929.472117</ele>
        <time>2023-08-25T05:50:13.786Z</time>
      </trkpt>
      <trkpt lat="45.55297" lon="3.52233">
        <ele>930.152235</ele>
        <time>2023-08-25T05:50:17.780Z</time>
      </trkpt>
      <trkpt lat="45.55308" lon="3.52234">
        <ele>930.940925</ele>
        <time>2023-08-25T05:50:22.783Z</time>
      </trkpt>
      <trkpt lat="45.55319" lon="3.52236">
        <ele>931.725573</ele>
        <time>2023-08-25T05:50:27.781Z</time>
      </trkpt>
      <trkpt lat="45.55328" lon="3.52232">
        <ele>932.413378</ele>
        <time>2023-08-25T05:50:31.758Z</time>
      </trkpt>
      <trkpt lat="45.55337" lon="3.52226">
        <ele>933.085274</ele>
        <time>2023-08-25T05:50:35.763Z</time>
      </trkpt>
      <trkpt lat="45.55346" lon="3.52217">
        <ele>933.849383</ele>
        <time>2023-08-25T05:50:38.791Z</time>
      </trkpt>
      <trkpt lat="45.55354" lon="3.52209">
        <ele>934.579477</ele>
        <time>2023-08-25T05:50:41.786Z</time>
      </trkpt>
      <trkpt lat="45.55364" lon="3.52201">
        <ele>935.376767</ele>
        <time>2023-08-25T05:50:44.771Z</time>
      </trkpt>
      <trkpt lat="45.55373" lon="3.52195">
        <ele>936.084385</ele>
        <time>2023-08-25T05:50:47.786Z</time>
      </trkpt>
      <trkpt lat="45.55381" lon="3.52189">
        <ele>936.751678</ele>
        <time>2023-08-25T05:50:50.791Z</time>
      </trkpt>
      <trkpt lat="45.55391" lon="3.52184">
        <ele>937.447016</ele>
        <time>2023-08-25T05:50:53.772Z</time>
      </trkpt>
      <trkpt lat="45.554" lon="3.52179">
        <ele>938.152302</ele>
        <time>2023-08-25T05:50:56.792Z</time>
      </trkpt>
      <trkpt lat="45.55409" lon="3.52175">
        <ele>938.819793</ele>
        <time>2023-08-25T05:50:59.775Z</time>
      </trkpt>
      <trkpt lat="45.55418" lon="3.52172">
        <ele>939.472287</ele>
        <time>2023-08-25T05:51:02.793Z</time>
      </trkpt>
      <trkpt lat="45.55426" lon="3.52167">
        <ele>940.117548</ele>
        <time>2023-08-25T05:51:05.787Z</time>
      </trkpt>
      <trkpt lat="45.55435" lon="3.52163">
        <ele>940.771529</ele>
        <time>2023-08-25T05:51:08.797Z</time>
      </trkpt>
      <trkpt lat="45.55446" lon="3.52156">
        <ele>941.580736</ele>
        <time>2023-08-25T05:51:12.777Z</time>
      </trkpt>
      <trkpt lat="45.55455" lon="3.52151">
        <ele>942.045816</ele>
        <time>2023-08-25T05:51:15.789Z</time>
      </trkpt>
      <trkpt lat="45.55463" lon="3.52146">
        <ele>942.520898</ele>
        <time>2023-08-25T05:51:18.774Z</time>
      </trkpt>
      <trkpt lat="45.55473" lon="3.52141">
        <ele>943.043744</ele>
        <time>2023-08-25T05:51:21.776Z</time>
      </trkpt>
      <trkpt lat="45.55482" lon="3.52134">
        <ele>943.533545</ele>
        <time>2023-08-25T05:51:24.787Z</time>
      </trkpt>
      <trkpt lat="45.5549" lon="3.52129">
        <ele>943.998357</ele>
        <time>2023-08-25T05:51:27.793Z</time>
      </trkpt>
      <trkpt lat="45.55498" lon="3.52122">
        <ele>944.491556</ele>
        <time>2023-08-25T05:51:30.778Z</time>
      </trkpt>
      <trkpt lat="45.55509" lon="3.52116">
        <ele>945.068247</ele>
        <time>2023-08-25T05:51:34.755Z</time>
      </trkpt>
      <trkpt lat="45.55517" lon="3.52111">
        <ele>945.536602</ele>
        <time>2023-08-25T05:51:37.781Z</time>
      </trkpt>
      <trkpt lat="45.55527" lon="3.52104">
        <ele>946.071824</ele>
        <time>2023-08-25T05:51:40.796Z</time>
      </trkpt>
      <trkpt lat="45.55536" lon="3.52099">
        <ele>946.580484</ele>
        <time>2023-08-25T05:51:43.779Z</time>
      </trkpt>
      <trkpt lat="45.55546" lon="3.52094">
        <ele>947.123579</ele>
        <time>2023-08-25T05:51:46.796Z</time>
      </trkpt>
      <trkpt lat="45.55556" lon="3.52087">
        <ele>947.663765</ele>
        <time>2023-08-25T05:51:49.785Z</time>
      </trkpt>
      <trkpt lat="45.55564" lon="3.52079">
        <ele>948.177206</ele>
        <time>2023-08-25T05:51:52.780Z</time>
      </trkpt>
      <trkpt lat="45.55573" lon="3.52072">
        <ele>948.703968</ele>
        <time>2023-08-25T05:51:55.782Z</time>
      </trkpt>
      <trkpt lat="45.55583" lon="3.52066">
        <ele>949.253111</ele>
        <time>2023-08-25T05:51:58.783Z</time>
      </trkpt>
      <trkpt lat="45.55593" lon="3.52059">
        <ele>949.818844</ele>
        <time>2023-08-25T05:52:01.786Z</time>
      </trkpt>
      <trkpt lat="45.55603" lon="3.52053">
        <ele>950.343266</ele>
        <time>2023-08-25T05:52:04.768Z</time>
      </trkpt>
      <trkpt lat="45.55612" lon="3.52046">
        <ele>950.568744</ele>
        <time>2023-08-25T05:52:07.786Z</time>
      </trkpt>
      <trkpt lat="45.55621" lon="3.5204">
        <ele>950.531206</ele>
        <time>2023-08-25T05:52:10.797Z</time>
      </trkpt>
      <trkpt lat="45.55632" lon="3.52033">
        <ele>950.487697</ele>
        <time>2023-08-25T05:52:13.785Z</time>
      </trkpt>
      <trkpt lat="45.55642" lon="3.52026">
        <ele>950.445878</ele>
        <time>2023-08-25T05:52:16.789Z</time>
      </trkpt>
      <trkpt lat="45.55652" lon="3.52018">
        <ele>950.402458</ele>
        <time>2023-08-25T05:52:19.783Z</time>
      </trkpt>
      <trkpt lat="45.55663" lon="3.52012">
        <ele>950.356776</ele>
        <time>2023-08-25T05:52:22.787Z</time>
      </trkpt>
      <trkpt lat="45.55676" lon="3.52004">
        <ele>950.307581</ele>
        <time>2023-08-25T05:52:25.795Z</time>
      </trkpt>
      <trkpt lat="45.55688" lon="3.51997">
        <ele>950.25818</ele>
        <time>2023-08-25T05:52:28.798Z</time>
      </trkpt>
      <trkpt lat="45.55696" lon="3.51992">
        <ele>950.222901</ele>
        <time>2023-08-25T05:52:30.788Z</time>
      </trkpt>
      <trkpt lat="45.55706" lon="3.51987">
        <ele>950.185332</ele>
        <time>2023-08-25T05:52:32.794Z</time>
      </trkpt>
      <trkpt lat="45.55717" lon="3.51982">
        <ele>950.143249</ele>
        <time>2023-08-25T05:52:34.792Z</time>
      </trkpt>
      <trkpt lat="45.55727" lon="3.51978">
        <ele>950.103995</ele>
        <time>2023-08-25T05:52:36.769Z</time>
      </trkpt>
      <trkpt lat="45.55738" lon="3.51974">
        <ele>950.06056</ele>
        <time>2023-08-25T05:52:38.772Z</time>
      </trkpt>
      <trkpt lat="45.55749" lon="3.5197">
        <ele>950.016169</ele>
        <time>2023-08-25T05:52:40.792Z</time>
      </trkpt>
      <trkpt lat="45.55761" lon="3.51967">
        <ele>949.973706</ele>
        <time>2023-08-25T05:52:42.790Z</time>
      </trkpt>
      <trkpt lat="45.55772" lon="3.51963">
        <ele>949.928516</ele>
        <time>2023-08-25T05:52:44.794Z</time>
      </trkpt>
      <trkpt lat="45.55785" lon="3.5196">
        <ele>949.640102</ele>
        <time>2023-08-25T05:52:46.791Z</time>
      </trkpt>
      <trkpt lat="45.55797" lon="3.51959">
        <ele>949.294217</ele>
        <time>2023-08-25T05:52:48.792Z</time>
      </trkpt>
      <trkpt lat="45.5581" lon="3.51959">
        <ele>948.925575</ele>
        <time>2023-08-25T05:52:50.794Z</time>
      </trkpt>
      <trkpt lat="45.55823" lon="3.51961">
        <ele>948.541898</ele>
        <time>2023-08-25T05:52:52.790Z</time>
      </trkpt>
      <trkpt lat="45.55836" lon="3.51962">
        <ele>948.158098</ele>
        <time>2023-08-25T05:52:54.789Z</time>
      </trkpt>
      <trkpt lat="45.55849" lon="3.51963">
        <ele>947.786035</ele>
        <time>2023-08-25T05:52:56.799Z</time>
      </trkpt>
      <trkpt lat="45.55862" lon="3.51964">
        <ele>947.419479</ele>
        <time>2023-08-25T05:52:58.792Z</time>
      </trkpt>
      <trkpt lat="45.55875" lon="3.51965">
        <ele>947.047416</ele>
        <time>2023-08-25T05:53:00.792Z</time>
      </trkpt>
      <trkpt lat="45.55888" lon="3.51966">
        <ele>946.66649</ele>
        <time>2023-08-25T05:53:02.798Z</time>
      </trkpt>
      <trkpt lat="45.55902" lon="3.51968">
        <ele>946.268053</ele>
        <time>2023-08-25T05:53:04.795Z</time>
      </trkpt>
      <trkpt lat="45.55916" lon="3.5197">
        <ele>945.851381</ele>
        <time>2023-08-25T05:53:06.793Z</time>
      </trkpt>
      <trkpt lat="45.55931" lon="3.51971">
        <ele>945.430422</ele>
        <time>2023-08-25T05:53:08.796Z</time>
      </trkpt>
      <trkpt lat="45.55944" lon="3.51971">
        <ele>945.038663</ele>
        <time>2023-08-25T05:53:10.791Z</time>
      </trkpt>
      <trkpt lat="45.55958" lon="3.51972">
        <ele>944.679491</ele>
        <time>2023-08-25T05:53:12.789Z</time>
      </trkpt>
      <trkpt lat="45.55972" lon="3.51972">
        <ele>944.446228</ele>
        <time>2023-08-25T05:53:14.790Z</time>
      </trkpt>
      <trkpt lat="45.55986" lon="3.51968">
        <ele>944.214985</ele>
        <time>2023-08-25T05:53:16.788Z</time>
      </trkpt>
      <trkpt lat="45.55998" lon="3.51962">
        <ele>944.004721</ele>
        <time>2023-08-25T05:53:18.775Z</time>
      </trkpt>
      <trkpt lat="45.56007" lon="3.51957">
        <ele>943.833294</ele>
        <time>2023-08-25T05:53:20.785Z</time>
      </trkpt>
      <trkpt lat="45.56016" lon="3.51952">
        <ele>943.675195</ele>
        <time>2023-08-25T05:53:22.787Z</time>
      </trkpt>
      <trkpt lat="45.56029" lon="3.51946">
        <ele>943.453393</ele>
        <time>2023-08-25T05:53:25.783Z</time>
      </trkpt>
      <trkpt lat="45.56039" lon="3.51943">
        <ele>943.27805</ele>
        <time>2023-08-25T05:53:27.802Z</time>
      </trkpt>
      <trkpt lat="45.56051" lon="3.5194">
        <ele>943.073229</ele>
        <time>2023-08-25T05:53:29.792Z</time>
      </trkpt>
      <trkpt lat="45.56065" lon="3.51941">
        <ele>942.844106</ele>
        <time>2023-08-25T05:53:31.787Z</time>
      </trkpt>
      <trkpt lat="45.56078" lon="3.5195">
        <ele>942.599885</ele>
        <time>2023-08-25T05:53:33.788Z</time>
      </trkpt>
      <trkpt lat="45.56093" lon="3.51962">
        <ele>942.32443</ele>
        <time>2023-08-25T05:53:35.793Z</time>
      </trkpt>
      <trkpt lat="45.56107" lon="3.51971">
        <ele>942.061474</ele>
        <time>2023-08-25T05:53:37.787Z</time>
      </trkpt>
      <trkpt lat="45.56122" lon="3.51973">
        <ele>941.811773</ele>
        <time>2023-08-25T05:53:39.800Z</time>
      </trkpt>
      <trkpt lat="45.56137" lon="3.51969">
        <ele>941.58405</ele>
        <time>2023-08-25T05:53:41.796Z</time>
      </trkpt>
      <trkpt lat="45.5615" lon="3.51962">
        <ele>941.40176</ele>
        <time>2023-08-25T05:53:43.791Z</time>
      </trkpt>
      <trkpt lat="45.56156" lon="3.51948">
        <ele>941.240586</ele>
        <time>2023-08-25T05:53:45.799Z</time>
      </trkpt>
      <trkpt lat="45.56159" lon="3.51929">
        <ele>941.056222</ele>
        <time>2023-08-25T05:53:47.798Z</time>
      </trkpt>
      <trkpt lat="45.56165" lon="3.51914">
        <ele>940.894309</ele>
        <time>2023-08-25T05:53:49.809Z</time>
      </trkpt>
      <trkpt lat="45.56171" lon="3.519">
        <ele>940.73003</ele>
        <time>2023-08-25T05:53:51.795Z</time>
      </trkpt>
      <trkpt lat="45.56179" lon="3.51885">
        <ele>940.547442</ele>
        <time>2023-08-25T05:53:53.780Z</time>
      </trkpt>
      <trkpt lat="45.56185" lon="3.51868">
        <ele>940.362599</ele>
        <time>2023-08-25T05:53:55.802Z</time>
      </trkpt>
      <trkpt lat="45.5619" lon="3.51853">
        <ele>940.200775</ele>
        <time>2023-08-25T05:53:57.791Z</time>
      </trkpt>
      <trkpt lat="45.56195" lon="3.51839">
        <ele>940.044223</ele>
        <time>2023-08-25T05:53:59.757Z</time>
      </trkpt>
      <trkpt lat="45.56201" lon="3.51825">
        <ele>939.893867</ele>
        <time>2023-08-25T05:54:01.786Z</time>
      </trkpt>
      <trkpt lat="45.56205" lon="3.51812">
        <ele>939.753372</ele>
        <time>2023-08-25T05:54:03.788Z</time>
      </trkpt>
      <trkpt lat="45.5621" lon="3.518">
        <ele>939.620419</ele>
        <time>2023-08-25T05:54:05.796Z</time>
      </trkpt>
      <trkpt lat="45.56215" lon="3.51788">
        <ele>939.478946</ele>
        <time>2023-08-25T05:54:07.795Z</time>
      </trkpt>
      <trkpt lat="45.56221" lon="3.51776">
        <ele>939.339261</ele>
        <time>2023-08-25T05:54:09.791Z</time>
      </trkpt>
      <trkpt lat="45.56226" lon="3.51764">
        <ele>939.3561</ele>
        <time>2023-08-25T05:54:11.793Z</time>
      </trkpt>
      <trkpt lat="45.5623" lon="3.51751">
        <ele>939.676735</ele>
        <time>2023-08-25T05:54:13.790Z</time>
      </trkpt>
      <trkpt lat="45.56234" lon="3.51739">
        <ele>939.967146</ele>
        <time>2023-08-25T05:54:15.765Z</time>
      </trkpt>
      <trkpt lat="45.56237" lon="3.51727">
        <ele>940.258767</ele>
        <time>2023-08-25T05:54:17.794Z</time>
      </trkpt>
      <trkpt lat="45.56239" lon="3.51714">
        <ele>940.5529</ele>
        <time>2023-08-25T05:54:19.768Z</time>
      </trkpt>
      <trkpt lat="45.56241" lon="3.51701">
        <ele>940.84121</ele>
        <time>2023-08-25T05:54:21.791Z</time>
      </trkpt>
      <trkpt lat="45.56244" lon="3.51683">
        <ele>941.258216</ele>
        <time>2023-08-25T05:54:24.788Z</time>
      </trkpt>
      <trkpt lat="45.56247" lon="3.51667">
        <ele>941.623772</ele>
        <time>2023-08-25T05:54:27.799Z</time>
      </trkpt>
      <trkpt lat="45.5625" lon="3.51653">
        <ele>941.928608</ele>
        <time>2023-08-25T05:54:30.779Z</time>
      </trkpt>
      <trkpt lat="45.56252" lon="3.51639">
        <ele>942.245691</ele>
        <time>2023-08-25T05:54:33.778Z</time>
      </trkpt>
      <trkpt lat="45.56257" lon="3.51625">
        <ele>942.596253</ele>
        <time>2023-08-25T05:54:36.779Z</time>
      </trkpt>
      <trkpt lat="45.56262" lon="3.51612">
        <ele>942.927525</ele>
        <time>2023-08-25T05:54:39.785Z</time>
      </trkpt>
      <trkpt lat="45.56268" lon="3.51599">
        <ele>943.265377</ele>
        <time>2023-08-25T05:54:42.793Z</time>
      </trkpt>
      <trkpt lat="45.56274" lon="3.51585">
        <ele>943.646712</ele>
        <time>2023-08-25T05:54:45.788Z</time>
      </trkpt>
      <trkpt lat="45.56281" lon="3.51571">
        <ele>944.031556</ele>
        <time>2023-08-25T05:54:48.770Z</time>
      </trkpt>
      <trkpt lat="45.56287" lon="3.51556">
        <ele>944.412253</ele>
        <time>2023-08-25T05:54:51.795Z</time>
      </trkpt>
      <trkpt lat="45.56292" lon="3.51542">
        <ele>944.749574</ele>
        <time>2023-08-25T05:54:54.784Z</time>
      </trkpt>
      <trkpt lat="45.56295" lon="3.51525">
        <ele>944.664123</ele>
        <time>2023-08-25T05:54:57.791Z</time>
      </trkpt>
      <trkpt lat="45.56299" lon="3.51507">
        <ele>944.094797</ele>
        <time>2023-08-25T05:55:00.778Z</time>
      </trkpt>
      <trkpt lat="45.56301" lon="3.51493">
        <ele>943.686547</ele>
        <time>2023-08-25T05:55:02.776Z</time>
      </trkpt>
      <trkpt lat="45.56302" lon="3.51479">
        <ele>943.25779</ele>
        <time>2023-08-25T05:55:04.791Z</time>
      </trkpt>
      <trkpt lat="45.56303" lon="3.51465">
        <ele>942.820874</ele>
        <time>2023-08-25T05:55:06.773Z</time>
      </trkpt>
      <trkpt lat="45.56306" lon="3.51451">
        <ele>942.394214</ele>
        <time>2023-08-25T05:55:08.785Z</time>
      </trkpt>
      <trkpt lat="45.5631" lon="3.51436">
        <ele>941.905362</ele>
        <time>2023-08-25T05:55:10.791Z</time>
      </trkpt>
      <trkpt lat="45.56314" lon="3.51423">
        <ele>941.471983</ele>
        <time>2023-08-25T05:55:12.794Z</time>
      </trkpt>
      <trkpt lat="45.5632" lon="3.51412">
        <ele>941.071061</ele>
        <time>2023-08-25T05:55:14.786Z</time>
      </trkpt>
      <trkpt lat="45.56327" lon="3.51402">
        <ele>940.64774</ele>
        <time>2023-08-25T05:55:16.779Z</time>
      </trkpt>
      <trkpt lat="45.56336" lon="3.51394">
        <ele>940.197351</ele>
        <time>2023-08-25T05:55:18.773Z</time>
      </trkpt>
      <trkpt lat="45.56344" lon="3.51382">
        <ele>939.68294</ele>
        <time>2023-08-25T05:55:20.789Z</time>
      </trkpt>
      <trkpt lat="45.56351" lon="3.51368">
        <ele>939.166553</ele>
        <time>2023-08-25T05:55:22.790Z</time>
      </trkpt>
      <trkpt lat="45.56359" lon="3.51352">
        <ele>938.598628</ele>
        <time>2023-08-25T05:55:24.790Z</time>
      </trkpt>
      <trkpt lat="45.56367" lon="3.51334">
        <ele>937.933894</ele>
        <time>2023-08-25T05:55:26.783Z</time>
      </trkpt>
      <trkpt lat="45.56372" lon="3.5131">
        <ele>937.194815</ele>
        <time>2023-08-25T05:55:28.789Z</time>
      </trkpt>
      <trkpt lat="45.56372" lon="3.51297">
        <ele>936.796773</ele>
        <time>2023-08-25T05:55:29.765Z</time>
      </trkpt>
      <trkpt lat="45.56371" lon="3.51283">
        <ele>936.36777</ele>
        <time>2023-08-25T05:55:30.784Z</time>
      </trkpt>
      <trkpt lat="45.56368" lon="3.5127">
        <ele>935.934964</ele>
        <time>2023-08-25T05:55:31.798Z</time>
      </trkpt>
      <trkpt lat="45.56365" lon="3.51256">
        <ele>935.508468</ele>
        <time>2023-08-25T05:55:32.791Z</time>
      </trkpt>
      <trkpt lat="45.5636" lon="3.51232">
        <ele>934.741852</ele>
        <time>2023-08-25T05:55:34.803Z</time>
      </trkpt>
      <trkpt lat="45.56358" lon="3.51208">
        <ele>934.004368</ele>
        <time>2023-08-25T05:55:36.797Z</time>
      </trkpt>
      <trkpt lat="45.56358" lon="3.51184">
        <ele>933.257317</ele>
        <time>2023-08-25T05:55:38.791Z</time>
      </trkpt>
      <trkpt lat="45.5636" lon="3.5116">
        <ele>932.50739</ele>
        <time>2023-08-25T05:55:40.788Z</time>
      </trkpt>
      <trkpt lat="45.56365" lon="3.51142">
        <ele>931.920086</ele>
        <time>2023-08-25T05:55:42.793Z</time>
      </trkpt>
      <trkpt lat="45.56376" lon="3.51138">
        <ele>931.442895</ele>
        <time>2023-08-25T05:55:44.796Z</time>
      </trkpt>
      <trkpt lat="45.56389" lon="3.51145">
        <ele>930.851671</ele>
        <time>2023-08-25T05:55:46.787Z</time>
      </trkpt>
      <trkpt lat="45.56402" lon="3.51159">
        <ele>930.145177</ele>
        <time>2023-08-25T05:55:48.793Z</time>
      </trkpt>
      <trkpt lat="45.56411" lon="3.51171">
        <ele>929.602568</ele>
        <time>2023-08-25T05:55:50.801Z</time>
      </trkpt>
      <trkpt lat="45.56418" lon="3.51183">
        <ele>929.624116</ele>
        <time>2023-08-25T05:55:52.792Z</time>
      </trkpt>
      <trkpt lat="45.56425" lon="3.51194">
        <ele>930.072365</ele>
        <time>2023-08-25T05:55:54.804Z</time>
      </trkpt>
      <trkpt lat="45.56433" lon="3.51203">
        <ele>930.484521</ele>
        <time>2023-08-25T05:55:56.802Z</time>
      </trkpt>
      <trkpt lat="45.56443" lon="3.51208">
        <ele>930.982612</ele>
        <time>2023-08-25T05:55:59.779Z</time>
      </trkpt>
      <trkpt lat="45.56452" lon="3.51214">
        <ele>931.37678</ele>
        <time>2023-08-25T05:56:04.784Z</time>
      </trkpt>
      <trkpt lat="45.56462" lon="3.51218">
        <ele>931.832263</ele>
        <time>2023-08-25T05:56:10.790Z</time>
      </trkpt>
      <trkpt lat="45.56471" lon="3.51223">
        <ele>932.27098</ele>
        <time>2023-08-25T05:56:15.803Z</time>
      </trkpt>
      <trkpt lat="45.5648" lon="3.5123">
        <ele>932.719831</ele>
        <time>2023-08-25T05:56:19.800Z</time>
      </trkpt>
      <trkpt lat="45.56491" lon="3.51234">
        <ele>933.178486</ele>
        <time>2023-08-25T05:56:22.791Z</time>
      </trkpt>
      <trkpt lat="45.565" lon="3.51239">
        <ele>933.602263</ele>
        <time>2023-08-25T05:56:25.786Z</time>
      </trkpt>
      <trkpt lat="45.5651" lon="3.51246">
        <ele>934.087738</ele>
        <time>2023-08-25T05:56:28.793Z</time>
      </trkpt>
      <trkpt lat="45.5652" lon="3.51254">
        <ele>934.571854</ele>
        <time>2023-08-25T05:56:31.787Z</time>
      </trkpt>
      <trkpt lat="45.56532" lon="3.51262">
        <ele>935.169427</ele>
        <time>2023-08-25T05:56:34.791Z</time>
      </trkpt>
      <trkpt lat="45.56541" lon="3.51272">
        <ele>935.665318</ele>
        <time>2023-08-25T05:56:37.790Z</time>
      </trkpt>
      <trkpt lat="45.5655" lon="3.51282">
        <ele>936.168657</ele>
        <time>2023-08-25T05:56:40.792Z</time>
      </trkpt>
      <trkpt lat="45.56559" lon="3.51293">
        <ele>936.683503</ele>
        <time>2023-08-25T05:56:43.789Z</time>
      </trkpt>
      <trkpt lat="45.56568" lon="3.51308">
        <ele>937.116425</ele>
        <time>2023-08-25T05:56:46.796Z</time>
      </trkpt>
      <trkpt lat="45.56573" lon="3.5132">
        <ele>936.904888</ele>
        <time>2023-08-25T05:56:49.786Z</time>
      </trkpt>
      <trkpt lat="45.56576" lon="3.51333">
        <ele>936.694512</ele>
        <time>2023-08-25T05:56:52.793Z</time>
      </trkpt>
      <trkpt lat="45.5658" lon="3.51348">
        <ele>936.46664</ele>
        <time>2023-08-25T05:56:55.797Z</time>
      </trkpt>
      <trkpt lat="45.56583" lon="3.51361">
        <ele>936.263959</ele>
        <time>2023-08-25T05:56:58.782Z</time>
      </trkpt>
      <trkpt lat="45.56587" lon="3.51377">
        <ele>936.011835</ele>
        <time>2023-08-25T05:57:01.791Z</time>
      </trkpt>
      <trkpt lat="45.56592" lon="3.51392">
        <ele>935.759959</ele>
        <time>2023-08-25T05:57:04.792Z</time>
      </trkpt>
      <trkpt lat="45.56595" lon="3.51412">
        <ele>935.456696</ele>
        <time>2023-08-25T05:57:07.782Z</time>
      </trkpt>
      <trkpt lat="45.56595" lon="3.51428">
        <ele>935.222427</ele>
        <time>2023-08-25T05:57:09.779Z</time>
      </trkpt>
      <trkpt lat="45.56593" lon="3.51446">
        <ele>934.948548</ele>
        <time>2023-08-25T05:57:11.764Z</time>
      </trkpt>
      <trkpt lat="45.56592" lon="3.51466">
        <ele>934.649032</ele>
        <time>2023-08-25T05:57:13.796Z</time>
      </trkpt>
      <trkpt lat="45.56593" lon="3.51487">
        <ele>934.350993</ele>
        <time>2023-08-25T05:57:15.792Z</time>
      </trkpt>
      <trkpt lat="45.56597" lon="3.51503">
        <ele>934.094614</ele>
        <time>2023-08-25T05:57:17.795Z</time>
      </trkpt>
      <trkpt lat="45.56604" lon="3.51513">
        <ele>933.88115</ele>
        <time>2023-08-25T05:57:19.795Z</time>
      </trkpt>
      <trkpt lat="45.56615" lon="3.5152">
        <ele>933.637298</ele>
        <time>2023-08-25T05:57:21.803Z</time>
      </trkpt>
      <trkpt lat="45.56623" lon="3.51526">
        <ele>933.44264</ele>
        <time>2023-08-25T05:57:23.796Z</time>
      </trkpt>
      <trkpt lat="45.56633" lon="3.51534">
        <ele>933.179477</ele>
        <time>2023-08-25T05:57:26.791Z</time>
      </trkpt>
      <trkpt lat="45.56644" lon="3.51545">
        <ele>932.884036</ele>
        <time>2023-08-25T05:57:29.791Z</time>
      </trkpt>
      <trkpt lat="45.56652" lon="3.51557">
        <ele>932.604465</ele>
        <time>2023-08-25T05:57:32.784Z</time>
      </trkpt>
      <trkpt lat="45.56659" lon="3.5157">
        <ele>932.349923</ele>
        <time>2023-08-25T05:57:35.792Z</time>
      </trkpt>
      <trkpt lat="45.56664" lon="3.51584">
        <ele>932.087294</ele>
        <time>2023-08-25T05:57:38.773Z</time>
      </trkpt>
      <trkpt lat="45.56669" lon="3.51601">
        <ele>931.79451</ele>
        <time>2023-08-25T05:57:41.797Z</time>
      </trkpt>
      <trkpt lat="45.56672" lon="3.51617">
        <ele>931.512747</ele>
        <time>2023-08-25T05:57:44.791Z</time>
      </trkpt>
      <trkpt lat="45.56676" lon="3.51631">
        <ele>931.281139</ele>
        <time>2023-08-25T05:57:46.762Z</time>
      </trkpt>
      <trkpt lat="45.5668" lon="3.51644">
        <ele>931.047438</ele>
        <time>2023-08-25T05:57:48.787Z</time>
      </trkpt>
      <trkpt lat="45.56683" lon="3.51656">
        <ele>930.835239</ele>
        <time>2023-08-25T05:57:50.778Z</time>
      </trkpt>
      <trkpt lat="45.56688" lon="3.51674">
        <ele>930.524854</ele>
        <time>2023-08-25T05:57:53.783Z</time>
      </trkpt>
      <trkpt lat="45.56692" lon="3.51687">
        <ele>930.297261</ele>
        <time>2023-08-25T05:57:55.780Z</time>
      </trkpt>
      <trkpt lat="45.56696" lon="3.51699">
        <ele>930.075791</ele>
        <time>2023-08-25T05:57:57.783Z</time>
      </trkpt>
      <trkpt lat="45.56702" lon="3.5171">
        <ele>929.84625</ele>
        <time>2023-08-25T05:57:59.786Z</time>
      </trkpt>
      <trkpt lat="45.56712" lon="3.51717">
        <ele>929.589443</ele>
        <time>2023-08-25T05:58:01.802Z</time>
      </trkpt>
      <trkpt lat="45.56722" lon="3.51722">
        <ele>929.359162</ele>
        <time>2023-08-25T05:58:03.801Z</time>
      </trkpt>
      <trkpt lat="45.56732" lon="3.51727">
        <ele>929.142346</ele>
        <time>2023-08-25T05:58:05.784Z</time>
      </trkpt>
      <trkpt lat="45.56741" lon="3.51733">
        <ele>928.970849</ele>
        <time>2023-08-25T05:58:07.804Z</time>
      </trkpt>
      <trkpt lat="45.56752" lon="3.51738">
        <ele>928.787083</ele>
        <time>2023-08-25T05:58:09.806Z</time>
      </trkpt>
      <trkpt lat="45.56764" lon="3.51742">
        <ele>928.594778</ele>
        <time>2023-08-25T05:58:11.804Z</time>
      </trkpt>
      <trkpt lat="45.56776" lon="3.51746">
        <ele>928.403781</ele>
        <time>2023-08-25T05:58:13.794Z</time>
      </trkpt>
      <trkpt lat="45.56787" lon="3.5175">
        <ele>928.219537</ele>
        <time>2023-08-25T05:58:15.801Z</time>
      </trkpt>
      <trkpt lat="45.56798" lon="3.51753">
        <ele>928.033979</ele>
        <time>2023-08-25T05:58:17.796Z</time>
      </trkpt>
      <trkpt lat="45.56809" lon="3.51756">
        <ele>927.851345</ele>
        <time>2023-08-25T05:58:19.796Z</time>
      </trkpt>
      <trkpt lat="45.5682" lon="3.5176">
        <ele>927.679569</ele>
        <time>2023-08-25T05:58:21.804Z</time>
      </trkpt>
      <trkpt lat="45.56829" lon="3.51764">
        <ele>927.520184</ele>
        <time>2023-08-25T05:58:23.807Z</time>
      </trkpt>
      <trkpt lat="45.56838" lon="3.51768">
        <ele>927.372234</ele>
        <time>2023-08-25T05:58:25.798Z</time>
      </trkpt>
      <trkpt lat="45.56852" lon="3.51772">
        <ele>927.148121</ele>
        <time>2023-08-25T05:58:28.793Z</time>
      </trkpt>
      <trkpt lat="45.56863" lon="3.51776">
        <ele>926.965918</ele>
        <time>2023-08-25T05:58:30.801Z</time>
      </trkpt>
      <trkpt lat="45.56874" lon="3.5178">
        <ele>926.788173</ele>
        <time>2023-08-25T05:58:32.800Z</time>
      </trkpt>
      <trkpt lat="45.56885" lon="3.51783">
        <ele>926.596079</ele>
        <time>2023-08-25T05:58:34.802Z</time>
      </trkpt>
      <trkpt lat="45.56898" lon="3.51786">
        <ele>926.386315</ele>
        <time>2023-08-25T05:58:36.776Z</time>
      </trkpt>
      <trkpt lat="45.56913" lon="3.51793">
        <ele>925.411891</ele>
        <time>2023-08-25T05:58:38.767Z</time>
      </trkpt>
      <trkpt lat="45.56926" lon="3.51801">
        <ele>924.242493</ele>
        <time>2023-08-25T05:58:40.792Z</time>
      </trkpt>
      <trkpt lat="45.56939" lon="3.51807">
        <ele>923.11677</ele>
        <time>2023-08-25T05:58:42.802Z</time>
      </trkpt>
      <trkpt lat="45.56953" lon="3.51813">
        <ele>921.871079</ele>
        <time>2023-08-25T05:58:44.799Z</time>
      </trkpt>
      <trkpt lat="45.56968" lon="3.51821">
        <ele>920.614958</ele>
        <time>2023-08-25T05:58:46.791Z</time>
      </trkpt>
      <trkpt lat="45.56982" lon="3.51828">
        <ele>919.393441</ele>
        <time>2023-08-25T05:58:48.789Z</time>
      </trkpt>
      <trkpt lat="45.56996" lon="3.51831">
        <ele>918.200586</ele>
        <time>2023-08-25T05:58:50.797Z</time>
      </trkpt>
      <trkpt lat="45.57009" lon="3.51835">
        <ele>917.079239</ele>
        <time>2023-08-25T05:58:52.795Z</time>
      </trkpt>
      <trkpt lat="45.57022" lon="3.51839">
        <ele>916.041758</ele>
        <time>2023-08-25T05:58:54.799Z</time>
      </trkpt>
      <trkpt lat="45.57035" lon="3.51842">
        <ele>914.954842</ele>
        <time>2023-08-25T05:58:56.803Z</time>
      </trkpt>
      <trkpt lat="45.57049" lon="3.51846">
        <ele>913.812493</ele>
        <time>2023-08-25T05:58:58.781Z</time>
      </trkpt>
      <trkpt lat="45.57064" lon="3.51849">
        <ele>912.522599</ele>
        <time>2023-08-25T05:59:00.798Z</time>
      </trkpt>
      <trkpt lat="45.57081" lon="3.51851">
        <ele>911.174247</ele>
        <time>2023-08-25T05:59:02.795Z</time>
      </trkpt>
      <trkpt lat="45.57098" lon="3.51853">
        <ele>909.917641</ele>
        <time>2023-08-25T05:59:04.795Z</time>
      </trkpt>
      <trkpt lat="45.57115" lon="3.51854">
        <ele>908.69813</ele>
        <time>2023-08-25T05:59:06.793Z</time>
      </trkpt>
      <trkpt lat="45.5713" lon="3.51858">
        <ele>907.55699</ele>
        <time>2023-08-25T05:59:08.790Z</time>
      </trkpt>
      <trkpt lat="45.57144" lon="3.51861">
        <ele>906.547736</ele>
        <time>2023-08-25T05:59:10.794Z</time>
      </trkpt>
      <trkpt lat="45.57158" lon="3.51865">
        <ele>905.549849</ele>
        <time>2023-08-25T05:59:12.788Z</time>
      </trkpt>
      <trkpt lat="45.57171" lon="3.51869">
        <ele>904.519118</ele>
        <time>2023-08-25T05:59:14.795Z</time>
      </trkpt>
      <trkpt lat="45.57185" lon="3.51872">
        <ele>903.510624</ele>
        <time>2023-08-25T05:59:16.792Z</time>
      </trkpt>
      <trkpt lat="45.57199" lon="3.51872">
        <ele>902.505418</ele>
        <time>2023-08-25T05:59:18.796Z</time>
      </trkpt>
      <trkpt lat="45.57214" lon="3.51868">
        <ele>901.396111</ele>
        <time>2023-08-25T05:59:20.802Z</time>
      </trkpt>
      <trkpt lat="45.57229" lon="3.51868">
        <ele>900.303799</ele>
        <time>2023-08-25T05:59:22.802Z</time>
      </trkpt>
      <trkpt lat="45.57242" lon="3.51869">
        <ele>899.333395</ele>
        <time>2023-08-25T05:59:24.796Z</time>
      </trkpt>
      <trkpt lat="45.57254" lon="3.5187">
        <ele>898.456923</ele>
        <time>2023-08-25T05:59:26.801Z</time>
      </trkpt>
      <trkpt lat="45.57267" lon="3.51872">
        <ele>898.302613</ele>
        <time>2023-08-25T05:59:28.793Z</time>
      </trkpt>
      <trkpt lat="45.57278" lon="3.51873">
        <ele>898.173079</ele>
        <time>2023-08-25T05:59:30.792Z</time>
      </trkpt>
      <trkpt lat="45.57287" lon="3.51874">
        <ele>898.05779</ele>
        <time>2023-08-25T05:59:32.817Z</time>
      </trkpt>
      <trkpt lat="45.57297" lon="3.51877">
        <ele>897.937552</ele>
        <time>2023-08-25T05:59:34.785Z</time>
      </trkpt>
      <trkpt lat="45.57302" lon="3.51887">
        <ele>897.826319</ele>
        <time>2023-08-25T05:59:37.794Z</time>
      </trkpt>
      <trkpt lat="45.57297" lon="3.51904">
        <ele>897.6723</ele>
        <time>2023-08-25T05:59:40.765Z</time>
      </trkpt>
      <trkpt lat="45.57285" lon="3.51915">
        <ele>897.504417</ele>
        <time>2023-08-25T05:59:43.804Z</time>
      </trkpt>
      <trkpt lat="45.57277" lon="3.51923">
        <ele>897.383766</ele>
        <time>2023-08-25T05:59:45.797Z</time>
      </trkpt>
      <trkpt lat="45.57271" lon="3.51934">
        <ele>897.258313</ele>
        <time>2023-08-25T05:59:47.794Z</time>
      </trkpt>
      <trkpt lat="45.57268" lon="3.51947">
        <ele>897.143509</ele>
        <time>2023-08-25T05:59:49.800Z</time>
      </trkpt>
      <trkpt lat="45.57268" lon="3.51964">
        <ele>897.00065</ele>
        <time>2023-08-25T05:59:52.787Z</time>
      </trkpt>
      <trkpt lat="45.57269" lon="3.51978">
        <ele>896.882049</ele>
        <time>2023-08-25T05:59:55.798Z</time>
      </trkpt>
      <trkpt lat="45.57275" lon="3.51988">
        <ele>896.766841</ele>
        <time>2023-08-25T05:59:58.788Z</time>
      </trkpt>
      <trkpt lat="45.57284" lon="3.51992">
        <ele>896.653279</ele>
        <time>2023-08-25T06:00:01.791Z</time>
      </trkpt>
      <trkpt lat="45.57293" lon="3.51999">
        <ele>896.524039</ele>
        <time>2023-08-25T06:00:05.783Z</time>
      </trkpt>
      <trkpt lat="45.57303" lon="3.52008">
        <ele>896.383496</ele>
        <time>2023-08-25T06:00:09.778Z</time>
      </trkpt>
      <trkpt lat="45.57311" lon="3.52017">
        <ele>896.284582</ele>
        <time>2023-08-25T06:00:12.784Z</time>
      </trkpt>
      <trkpt lat="45.57319" lon="3.52026">
        <ele>896.783423</ele>
        <time>2023-08-25T06:00:16.784Z</time>
      </trkpt>
      <trkpt lat="45.57328" lon="3.52035">
        <ele>897.339263</ele>
        <time>2023-08-25T06:00:20.798Z</time>
      </trkpt>
      <trkpt lat="45.57338" lon="3.52043">
        <ele>897.88608</ele>
        <time>2023-08-25T06:00:24.794Z</time>
      </trkpt>
      <trkpt lat="45.57348" lon="3.52051">
        <ele>898.45219</ele>
        <time>2023-08-25T06:00:28.785Z</time>
      </trkpt>
      <trkpt lat="45.57357" lon="3.52057">
        <ele>898.948492</ele>
        <time>2023-08-25T06:00:31.795Z</time>
      </trkpt>
      <trkpt lat="45.57367" lon="3.52061">
        <ele>899.447162</ele>
        <time>2023-08-25T06:00:34.791Z</time>
      </trkpt>
      <trkpt lat="45.57378" lon="3.52065">
        <ele>900.01615</ele>
        <time>2023-08-25T06:00:38.774Z</time>
      </trkpt>
      <trkpt lat="45.57388" lon="3.52069">
        <ele>900.508504</ele>
        <time>2023-08-25T06:00:41.793Z</time>
      </trkpt>
      <trkpt lat="45.57398" lon="3.52072">
        <ele>901.007887</ele>
        <time>2023-08-25T06:00:44.799Z</time>
      </trkpt>
      <trkpt lat="45.57408" lon="3.52075">
        <ele>901.505755</ele>
        <time>2023-08-25T06:00:47.788Z</time>
      </trkpt>
      <trkpt lat="45.57417" lon="3.52077">
        <ele>901.96149</ele>
        <time>2023-08-25T06:00:50.798Z</time>
      </trkpt>
      <trkpt lat="45.57427" lon="3.52085">
        <ele>902.486157</ele>
        <time>2023-08-25T06:00:53.783Z</time>
      </trkpt>
      <trkpt lat="45.57435" lon="3.52092">
        <ele>902.938698</ele>
        <time>2023-08-25T06:00:56.786Z</time>
      </trkpt>
      <trkpt lat="45.57445" lon="3.52103">
        <ele>903.560019</ele>
        <time>2023-08-25T06:01:00.789Z</time>
      </trkpt>
      <trkpt lat="45.57452" lon="3.52114">
        <ele>904.082278</ele>
        <time>2023-08-25T06:01:03.787Z</time>
      </trkpt>
      <trkpt lat="45.57458" lon="3.52125">
        <ele>904.543387</ele>
        <time>2023-08-25T06:01:06.773Z</time>
      </trkpt>
      <trkpt lat="45.57463" lon="3.52136">
        <ele>905.026858</ele>
        <time>2023-08-25T06:01:09.797Z</time>
      </trkpt>
      <trkpt lat="45.57468" lon="3.52149">
        <ele>905.61244</ele>
        <time>2023-08-25T06:01:12.799Z</time>
      </trkpt>
      <trkpt lat="45.57474" lon="3.52164">
        <ele>906.328321</ele>
        <time>2023-08-25T06:01:16.788Z</time>
      </trkpt>
      <trkpt lat="45.57477" lon="3.52176">
        <ele>906.889012</ele>
        <time>2023-08-25T06:01:19.794Z</time>
      </trkpt>
      <trkpt lat="45.57481" lon="3.52188">
        <ele>907.439099</ele>
        <time>2023-08-25T06:01:22.776Z</time>
      </trkpt>
      <trkpt lat="45.57485" lon="3.522">
        <ele>908.009872</ele>
        <time>2023-08-25T06:01:25.783Z</time>
      </trkpt>
      <trkpt lat="45.57491" lon="3.52209">
        <ele>908.551039</ele>
        <time>2023-08-25T06:01:28.785Z</time>
      </trkpt>
      <trkpt lat="45.575" lon="3.52214">
        <ele>909.108895</ele>
        <time>2023-08-25T06:01:31.804Z</time>
      </trkpt>
      <trkpt lat="45.57509" lon="3.52219">
        <ele>909.707412</ele>
        <time>2023-08-25T06:01:34.792Z</time>
      </trkpt>
      <trkpt lat="45.57516" lon="3.5223">
        <ele>910.305742</ele>
        <time>2023-08-25T06:01:37.797Z</time>
      </trkpt>
      <trkpt lat="45.57519" lon="3.52244">
        <ele>910.927294</ele>
        <time>2023-08-25T06:01:40.791Z</time>
      </trkpt>
      <trkpt lat="45.5752" lon="3.52258">
        <ele>911.506311</ele>
        <time>2023-08-25T06:01:43.779Z</time>
      </trkpt>
      <trkpt lat="45.57521" lon="3.52271">
        <ele>912.088204</ele>
        <time>2023-08-25T06:01:46.804Z</time>
      </trkpt>
      <trkpt lat="45.5752" lon="3.52285">
        <ele>912.673552</ele>
        <time>2023-08-25T06:01:49.800Z</time>
      </trkpt>
      <trkpt lat="45.57521" lon="3.52299">
        <ele>913.238668</ele>
        <time>2023-08-25T06:01:52.788Z</time>
      </trkpt>
      <trkpt lat="45.57522" lon="3.52313">
        <ele>913.837792</ele>
        <time>2023-08-25T06:01:55.796Z</time>
      </trkpt>
      <trkpt lat="45.57527" lon="3.52328">
        <ele>914.525113</ele>
        <time>2023-08-25T06:01:59.776Z</time>
      </trkpt>
      <trkpt lat="45.57535" lon="3.52337">
        <ele>915.144233</ele>
        <time>2023-08-25T06:02:02.777Z</time>
      </trkpt>
      <trkpt lat="45.57546" lon="3.52346">
        <ele>915.964255</ele>
        <time>2023-08-25T06:02:05.796Z</time>
      </trkpt>
      <trkpt lat="45.57554" lon="3.52355">
        <ele>916.796031</ele>
        <time>2023-08-25T06:02:07.784Z</time>
      </trkpt>
      <trkpt lat="45.57561" lon="3.52364">
        <ele>917.577955</ele>
        <time>2023-08-25T06:02:09.791Z</time>
      </trkpt>
      <trkpt lat="45.57562" lon="3.52377">
        <ele>918.3604</ele>
        <time>2023-08-25T06:02:11.807Z</time>
      </trkpt>
      <trkpt lat="45.57559" lon="3.5239">
        <ele>919.176889</ele>
        <time>2023-08-25T06:02:13.794Z</time>
      </trkpt>
      <trkpt lat="45.57559" lon="3.52408">
        <ele>920.234088</ele>
        <time>2023-08-25T06:02:16.779Z</time>
      </trkpt>
      <trkpt lat="45.57563" lon="3.52425">
        <ele>921.309841</ele>
        <time>2023-08-25T06:02:19.762Z</time>
      </trkpt>
      <trkpt lat="45.57567" lon="3.5244">
        <ele>922.207456</ele>
        <time>2023-08-25T06:02:22.790Z</time>
      </trkpt>
      <trkpt lat="45.57571" lon="3.52453">
        <ele>923.079676</ele>
        <time>2023-08-25T06:02:25.796Z</time>
      </trkpt>
      <trkpt lat="45.57579" lon="3.52464">
        <ele>923.983277</ele>
        <time>2023-08-25T06:02:28.797Z</time>
      </trkpt>
      <trkpt lat="45.57588" lon="3.52472">
        <ele>924.92375</ele>
        <time>2023-08-25T06:02:31.799Z</time>
      </trkpt>
      <trkpt lat="45.57596" lon="3.52482">
        <ele>925.811744</ele>
        <time>2023-08-25T06:02:34.789Z</time>
      </trkpt>
      <trkpt lat="45.57604" lon="3.52496">
        <ele>926.858221</ele>
        <time>2023-08-25T06:02:37.798Z</time>
      </trkpt>
      <trkpt lat="45.57613" lon="3.52509">
        <ele>927.926016</ele>
        <time>2023-08-25T06:02:40.778Z</time>
      </trkpt>
      <trkpt lat="45.57623" lon="3.5252">
        <ele>928.969936</ele>
        <time>2023-08-25T06:02:43.796Z</time>
      </trkpt>
      <trkpt lat="45.57631" lon="3.52529">
        <ele>929.824522</ele>
        <time>2023-08-25T06:02:46.758Z</time>
      </trkpt>
      <trkpt lat="45.57638" lon="3.52538">
        <ele>930.666116</ele>
        <time>2023-08-25T06:02:49.792Z</time>
      </trkpt>
      <trkpt lat="45.57646" lon="3.52548">
        <ele>931.485247</ele>
        <time>2023-08-25T06:02:52.796Z</time>
      </trkpt>
      <trkpt lat="45.57654" lon="3.52558">
        <ele>932.363895</ele>
        <time>2023-08-25T06:02:55.797Z</time>
      </trkpt>
      <trkpt lat="45.57664" lon="3.52571">
        <ele>933.408799</ele>
        <time>2023-08-25T06:02:58.752Z</time>
      </trkpt>
      <trkpt lat="45.57669" lon="3.52585">
        <ele>934.277335</ele>
        <time>2023-08-25T06:03:01.798Z</time>
      </trkpt>
      <trkpt lat="45.57667" lon="3.52599">
        <ele>935.058639</ele>
        <time>2023-08-25T06:03:04.791Z</time>
      </trkpt>
      <trkpt lat="45.57665" lon="3.52612">
        <ele>935.795877</ele>
        <time>2023-08-25T06:03:07.791Z</time>
      </trkpt>
      <trkpt lat="45.57661" lon="3.52625">
        <ele>936.515917</ele>
        <time>2023-08-25T06:03:10.785Z</time>
      </trkpt>
      <trkpt lat="45.57658" lon="3.52638">
        <ele>937.280314</ele>
        <time>2023-08-25T06:03:13.802Z</time>
      </trkpt>
      <trkpt lat="45.57656" lon="3.52652">
        <ele>938.058148</ele>
        <time>2023-08-25T06:03:16.797Z</time>
      </trkpt>
      <trkpt lat="45.57654" lon="3.52664">
        <ele>938.788006</ele>
        <time>2023-08-25T06:03:19.796Z</time>
      </trkpt>
      <trkpt lat="45.5765" lon="3.5268">
        <ele>939.716549</ele>
        <time>2023-08-25T06:03:23.799Z</time>
      </trkpt>
      <trkpt lat="45.57647" lon="3.52694">
        <ele>940.480947</ele>
        <time>2023-08-25T06:03:26.782Z</time>
      </trkpt>
      <trkpt lat="45.57644" lon="3.52706">
        <ele>941.219201</ele>
        <time>2023-08-25T06:03:29.786Z</time>
      </trkpt>
      <trkpt lat="45.57641" lon="3.52723">
        <ele>942.165465</ele>
        <time>2023-08-25T06:03:33.795Z</time>
      </trkpt>
      <trkpt lat="45.57637" lon="3.52735">
        <ele>942.891671</ele>
        <time>2023-08-25T06:03:36.798Z</time>
      </trkpt>
      <trkpt lat="45.57633" lon="3.52747">
        <ele>943.660979</ele>
        <time>2023-08-25T06:03:39.761Z</time>
      </trkpt>
      <trkpt lat="45.57628" lon="3.52759">
        <ele>944.412687</ele>
        <time>2023-08-25T06:03:42.793Z</time>
      </trkpt>
      <trkpt lat="45.57623" lon="3.52773">
        <ele>945.259149</ele>
        <time>2023-08-25T06:03:46.804Z</time>
      </trkpt>
      <trkpt lat="45.57619" lon="3.52786">
        <ele>946.159197</ele>
        <time>2023-08-25T06:03:49.786Z</time>
      </trkpt>
      <trkpt lat="45.57614" lon="3.52798">
        <ele>947.003764</ele>
        <time>2023-08-25T06:03:52.803Z</time>
      </trkpt>
      <trkpt lat="45.5761" lon="3.52813">
        <ele>947.990353</ele>
        <time>2023-08-25T06:03:56.801Z</time>
      </trkpt>
      <trkpt lat="45.57604" lon="3.52828">
        <ele>949.012255</ele>
        <time>2023-08-25T06:04:00.788Z</time>
      </trkpt>
      <trkpt lat="45.57599" lon="3.5284">
        <ele>949.889654</ele>
        <time>2023-08-25T06:04:03.789Z</time>
      </trkpt>
      <trkpt lat="45.57594" lon="3.52852">
        <ele>950.720824</ele>
        <time>2023-08-25T06:04:06.790Z</time>
      </trkpt>
      <trkpt lat="45.57588" lon="3.52866">
        <ele>951.755189</ele>
        <time>2023-08-25T06:04:10.780Z</time>
      </trkpt>
      <trkpt lat="45.57582" lon="3.5288">
        <ele>952.749876</ele>
        <time>2023-08-25T06:04:14.794Z</time>
      </trkpt>
      <trkpt lat="45.57577" lon="3.52893">
        <ele>953.66716</ele>
        <time>2023-08-25T06:04:18.780Z</time>
      </trkpt>
      <trkpt lat="45.57571" lon="3.52907">
        <ele>954.659441</ele>
        <time>2023-08-25T06:04:22.796Z</time>
      </trkpt>
      <trkpt lat="45.57569" lon="3.52922">
        <ele>955.592415</ele>
        <time>2023-08-25T06:04:26.792Z</time>
      </trkpt>
      <trkpt lat="45.57567" lon="3.52937">
        <ele>956.521723</ele>
        <time>2023-08-25T06:04:30.781Z</time>
      </trkpt>
      <trkpt lat="45.57564" lon="3.52952">
        <ele>957.500226</ele>
        <time>2023-08-25T06:04:34.792Z</time>
      </trkpt>
      <trkpt lat="45.57561" lon="3.52967">
        <ele>958.458438</ele>
        <time>2023-08-25T06:04:38.792Z</time>
      </trkpt>
      <trkpt lat="45.57559" lon="3.52982">
        <ele>959.378442</ele>
        <time>2023-08-25T06:04:42.780Z</time>
      </trkpt>
      <trkpt lat="45.57556" lon="3.52998">
        <ele>960.361007</ele>
        <time>2023-08-25T06:04:46.772Z</time>
      </trkpt>
      <trkpt lat="45.57554" lon="3.53013">
        <ele>961.315263</ele>
        <time>2023-08-25T06:04:50.787Z</time>
      </trkpt>
      <trkpt lat="45.57552" lon="3.53028">
        <ele>962.338366</ele>
        <time>2023-08-25T06:04:54.799Z</time>
      </trkpt>
      <trkpt lat="45.57552" lon="3.53041">
        <ele>963.173494</ele>
        <time>2023-08-25T06:04:57.786Z</time>
      </trkpt>
      <trkpt lat="45.5755" lon="3.53057">
        <ele>964.178686</ele>
        <time>2023-08-25T06:05:01.783Z</time>
      </trkpt>
      <trkpt lat="45.57548" lon="3.5307">
        <ele>965.03458</ele>
        <time>2023-08-25T06:05:04.785Z</time>
      </trkpt>
      <trkpt lat="45.57545" lon="3.53085">
        <ele>966.04199</ele>
        <time>2023-08-25T06:05:08.775Z</time>
      </trkpt>
      <trkpt lat="45.57543" lon="3.53098">
        <ele>966.930549</ele>
        <time>2023-08-25T06:05:12.795Z</time>
      </trkpt>
      <trkpt lat="45.57537" lon="3.5311">
        <ele>967.81999</ele>
        <time>2023-08-25T06:05:16.796Z</time>
      </trkpt>
      <trkpt lat="45.57529" lon="3.53122">
        <ele>968.923272</ele>
        <time>2023-08-25T06:05:20.796Z</time>
      </trkpt>
      <trkpt lat="45.57521" lon="3.53129">
        <ele>969.756166</ele>
        <time>2023-08-25T06:05:23.797Z</time>
      </trkpt>
      <trkpt lat="45.57513" lon="3.53134">
        <ele>970.595866</ele>
        <time>2023-08-25T06:05:26.791Z</time>
      </trkpt>
      <trkpt lat="45.57502" lon="3.53142">
        <ele>971.67583</ele>
        <time>2023-08-25T06:05:30.788Z</time>
      </trkpt>
      <trkpt lat="45.57494" lon="3.53148">
        <ele>972.521364</ele>
        <time>2023-08-25T06:05:33.789Z</time>
      </trkpt>
      <trkpt lat="45.57483" lon="3.53153">
        <ele>973.565003</ele>
        <time>2023-08-25T06:05:37.784Z</time>
      </trkpt>
      <trkpt lat="45.57473" lon="3.53159">
        <ele>974.56403</ele>
        <time>2023-08-25T06:05:41.785Z</time>
      </trkpt>
      <trkpt lat="45.57464" lon="3.53167">
        <ele>975.598443</ele>
        <time>2023-08-25T06:05:45.790Z</time>
      </trkpt>
      <trkpt lat="45.57453" lon="3.53174">
        <ele>976.64251</ele>
        <time>2023-08-25T06:05:49.798Z</time>
      </trkpt>
      <trkpt lat="45.57443" lon="3.5318">
        <ele>977.742354</ele>
        <time>2023-08-25T06:05:53.777Z</time>
      </trkpt>
      <trkpt lat="45.57433" lon="3.53187">
        <ele>979.022789</ele>
        <time>2023-08-25T06:05:57.765Z</time>
      </trkpt>
      <trkpt lat="45.57423" lon="3.53194">
        <ele>980.240978</ele>
        <time>2023-08-25T06:06:01.783Z</time>
      </trkpt>
      <trkpt lat="45.57415" lon="3.53202">
        <ele>981.452646</ele>
        <time>2023-08-25T06:06:05.785Z</time>
      </trkpt>
      <trkpt lat="45.57406" lon="3.53209">
        <ele>982.625733</ele>
        <time>2023-08-25T06:06:08.778Z</time>
      </trkpt>
      <trkpt lat="45.57397" lon="3.53217">
        <ele>983.836113</ele>
        <time>2023-08-25T06:06:12.795Z</time>
      </trkpt>
      <trkpt lat="45.57387" lon="3.53225">
        <ele>985.12929</ele>
        <time>2023-08-25T06:06:16.789Z</time>
      </trkpt>
      <trkpt lat="45.57377" lon="3.53236">
        <ele>986.54831</ele>
        <time>2023-08-25T06:06:20.781Z</time>
      </trkpt>
      <trkpt lat="45.57369" lon="3.53245">
        <ele>987.704367</ele>
        <time>2023-08-25T06:06:23.791Z</time>
      </trkpt>
      <trkpt lat="45.57362" lon="3.53254">
        <ele>988.827056</ele>
        <time>2023-08-25T06:06:26.793Z</time>
      </trkpt>
      <trkpt lat="45.57355" lon="3.53263">
        <ele>989.958485</ele>
        <time>2023-08-25T06:06:29.783Z</time>
      </trkpt>
      <trkpt lat="45.57348" lon="3.53274">
        <ele>991.101457</ele>
        <time>2023-08-25T06:06:32.797Z</time>
      </trkpt>
      <trkpt lat="45.57342" lon="3.53286">
        <ele>992.290251</ele>
        <time>2023-08-25T06:06:36.796Z</time>
      </trkpt>
      <trkpt lat="45.57335" lon="3.53296">
        <ele>993.469027</ele>
        <time>2023-08-25T06:06:39.763Z</time>
      </trkpt>
      <trkpt lat="45.57327" lon="3.53308">
        <ele>994.797002</ele>
        <time>2023-08-25T06:06:43.798Z</time>
      </trkpt>
      <trkpt lat="45.57319" lon="3.53319">
        <ele>996.048724</ele>
        <time>2023-08-25T06:06:47.768Z</time>
      </trkpt>
      <trkpt lat="45.57314" lon="3.53333">
        <ele>997.308595</ele>
        <time>2023-08-25T06:06:51.796Z</time>
      </trkpt>
      <trkpt lat="45.57309" lon="3.53346">
        <ele>998.460529</ele>
        <time>2023-08-25T06:06:55.787Z</time>
      </trkpt>
      <trkpt lat="45.57303" lon="3.5336">
        <ele>999.502642</ele>
        <time>2023-08-25T06:06:59.777Z</time>
      </trkpt>
      <trkpt lat="45.57298" lon="3.53375">
        <ele>1000.570503</ele>
        <time>2023-08-25T06:07:03.803Z</time>
      </trkpt>
      <trkpt lat="45.57294" lon="3.53387">
        <ele>1001.418333</ele>
        <time>2023-08-25T06:07:06.807Z</time>
      </trkpt>
      <trkpt lat="45.5729" lon="3.53399">
        <ele>1002.280513</ele>
        <time>2023-08-25T06:07:09.795Z</time>
      </trkpt>
      <trkpt lat="45.57286" lon="3.53412">
        <ele>1003.167102</ele>
        <time>2023-08-25T06:07:12.792Z</time>
      </trkpt>
      <trkpt lat="45.57281" lon="3.53423">
        <ele>1004.041615</ele>
        <time>2023-08-25T06:07:15.787Z</time>
      </trkpt>
      <trkpt lat="45.57278" lon="3.53438">
        <ele>1005.070298</ele>
        <time>2023-08-25T06:07:19.804Z</time>
      </trkpt>
      <trkpt lat="45.57274" lon="3.53454">
        <ele>1006.090386</ele>
        <time>2023-08-25T06:07:23.802Z</time>
      </trkpt>
      <trkpt lat="45.57273" lon="3.53467">
        <ele>1006.979634</ele>
        <time>2023-08-25T06:07:27.801Z</time>
      </trkpt>
      <trkpt lat="45.57273" lon="3.53485">
        <ele>1008.147155</ele>
        <time>2023-08-25T06:07:31.792Z</time>
      </trkpt>
      <trkpt lat="45.57274" lon="3.535">
        <ele>1009.119234</ele>
        <time>2023-08-25T06:07:34.790Z</time>
      </trkpt>
      <trkpt lat="45.57277" lon="3.53514">
        <ele>1010.033387</ele>
        <time>2023-08-25T06:07:37.778Z</time>
      </trkpt>
      <trkpt lat="45.5728" lon="3.53527">
        <ele>1010.906604</ele>
        <time>2023-08-25T06:07:40.799Z</time>
      </trkpt>
      <trkpt lat="45.57281" lon="3.5354">
        <ele>1011.736175</ele>
        <time>2023-08-25T06:07:43.807Z</time>
      </trkpt>
      <trkpt lat="45.5728" lon="3.53553">
        <ele>1012.584147</ele>
        <time>2023-08-25T06:07:46.781Z</time>
      </trkpt>
      <trkpt lat="45.57278" lon="3.53566">
        <ele>1013.443742</ele>
        <time>2023-08-25T06:07:49.799Z</time>
      </trkpt>
      <trkpt lat="45.57276" lon="3.53581">
        <ele>1014.465905</ele>
        <time>2023-08-25T06:07:52.796Z</time>
      </trkpt>
      <trkpt lat="45.57271" lon="3.53597">
        <ele>1014.654257</ele>
        <time>2023-08-25T06:07:55.794Z</time>
      </trkpt>
      <trkpt lat="45.57264" lon="3.53612">
        <ele>1014.684024</ele>
        <time>2023-08-25T06:07:58.783Z</time>
      </trkpt>
      <trkpt lat="45.57259" lon="3.53624">
        <ele>1014.70504</ele>
        <time>2023-08-25T06:08:00.792Z</time>
      </trkpt>
      <trkpt lat="45.57252" lon="3.53638">
        <ele>1014.733637</ele>
        <time>2023-08-25T06:08:03.799Z</time>
      </trkpt>
      <trkpt lat="45.57245" lon="3.53655">
        <ele>1014.763403</ele>
        <time>2023-08-25T06:08:06.795Z</time>
      </trkpt>
      <trkpt lat="45.57239" lon="3.53669">
        <ele>1014.789823</ele>
        <time>2023-08-25T06:08:09.809Z</time>
      </trkpt>
      <trkpt lat="45.57234" lon="3.53683">
        <ele>1014.81462</ele>
        <time>2023-08-25T06:08:12.796Z</time>
      </trkpt>
      <trkpt lat="45.57228" lon="3.53696">
        <ele>1014.839585</ele>
        <time>2023-08-25T06:08:15.802Z</time>
      </trkpt>
      <trkpt lat="45.57221" lon="3.53709">
        <ele>1014.865335</ele>
        <time>2023-08-25T06:08:18.790Z</time>
      </trkpt>
      <trkpt lat="45.57214" lon="3.53723">
        <ele>1014.893034</ele>
        <time>2023-08-25T06:08:21.793Z</time>
      </trkpt>
      <trkpt lat="45.57207" lon="3.53734">
        <ele>1014.916827</ele>
        <time>2023-08-25T06:08:24.791Z</time>
      </trkpt>
      <trkpt lat="45.572" lon="3.5375">
        <ele>1014.946275</ele>
        <time>2023-08-25T06:08:27.794Z</time>
      </trkpt>
      <trkpt lat="45.57196" lon="3.53769">
        <ele>1014.978475</ele>
        <time>2023-08-25T06:08:30.789Z</time>
      </trkpt>
      <trkpt lat="45.57192" lon="3.53784">
        <ele>1015.004009</ele>
        <time>2023-08-25T06:08:32.798Z</time>
      </trkpt>
      <trkpt lat="45.57189" lon="3.53803">
        <ele>1015.033577</ele>
        <time>2023-08-25T06:08:34.798Z</time>
      </trkpt>
      <trkpt lat="45.57186" lon="3.53822">
        <ele>1014.964055</ele>
        <time>2023-08-25T06:08:36.804Z</time>
      </trkpt>
      <trkpt lat="45.57183" lon="3.53842">
        <ele>1014.866711</ele>
        <time>2023-08-25T06:08:38.788Z</time>
      </trkpt>
      <trkpt lat="45.57181" lon="3.53861">
        <ele>1014.773675</ele>
        <time>2023-08-25T06:08:40.803Z</time>
      </trkpt>
      <trkpt lat="45.57179" lon="3.53879">
        <ele>1014.684631</ele>
        <time>2023-08-25T06:08:42.819Z</time>
      </trkpt>
      <trkpt lat="45.57178" lon="3.53898">
        <ele>1014.592793</ele>
        <time>2023-08-25T06:08:44.801Z</time>
      </trkpt>
      <trkpt lat="45.5718" lon="3.53917">
        <ele>1014.502144</ele>
        <time>2023-08-25T06:08:46.797Z</time>
      </trkpt>
      <trkpt lat="45.57184" lon="3.53935">
        <ele>1014.413442</ele>
        <time>2023-08-25T06:08:48.791Z</time>
      </trkpt>
      <trkpt lat="45.57189" lon="3.53951">
        <ele>1014.3288</ele>
        <time>2023-08-25T06:08:50.801Z</time>
      </trkpt>
      <trkpt lat="45.57193" lon="3.53966">
        <ele>1014.252515</ele>
        <time>2023-08-25T06:08:52.801Z</time>
      </trkpt>
      <trkpt lat="45.57197" lon="3.53981">
        <ele>1014.17721</ele>
        <time>2023-08-25T06:08:54.808Z</time>
      </trkpt>
      <trkpt lat="45.57201" lon="3.53995">
        <ele>1014.104639</ele>
        <time>2023-08-25T06:08:56.813Z</time>
      </trkpt>
      <trkpt lat="45.57205" lon="3.54009">
        <ele>1014.031048</ele>
        <time>2023-08-25T06:08:58.769Z</time>
      </trkpt>
      <trkpt lat="45.57209" lon="3.54022">
        <ele>1013.96492</ele>
        <time>2023-08-25T06:09:00.808Z</time>
      </trkpt>
      <trkpt lat="45.57211" lon="3.54036">
        <ele>1013.896458</ele>
        <time>2023-08-25T06:09:02.788Z</time>
      </trkpt>
      <trkpt lat="45.57213" lon="3.54049">
        <ele>1013.832276</ele>
        <time>2023-08-25T06:09:04.807Z</time>
      </trkpt>
      <trkpt lat="45.57214" lon="3.54068">
        <ele>1013.985908</ele>
        <time>2023-08-25T06:09:07.797Z</time>
      </trkpt>
      <trkpt lat="45.57213" lon="3.54087">
        <ele>1014.217116</ele>
        <time>2023-08-25T06:09:10.776Z</time>
      </trkpt>
      <trkpt lat="45.57211" lon="3.54099">
        <ele>1014.376198</ele>
        <time>2023-08-25T06:09:12.810Z</time>
      </trkpt>
      <trkpt lat="45.57213" lon="3.54119">
        <ele>1014.615129</ele>
        <time>2023-08-25T06:09:15.797Z</time>
      </trkpt>
      <trkpt lat="45.57216" lon="3.54133">
        <ele>1014.799106</ele>
        <time>2023-08-25T06:09:18.769Z</time>
      </trkpt>
      <trkpt lat="45.57217" lon="3.54148">
        <ele>1014.982623</ele>
        <time>2023-08-25T06:09:21.797Z</time>
      </trkpt>
      <trkpt lat="45.57217" lon="3.54164">
        <ele>1015.176932</ele>
        <time>2023-08-25T06:09:24.788Z</time>
      </trkpt>
      <trkpt lat="45.57217" lon="3.54178">
        <ele>1015.350685</ele>
        <time>2023-08-25T06:09:26.801Z</time>
      </trkpt>
      <trkpt lat="45.57218" lon="3.54196">
        <ele>1015.569219</ele>
        <time>2023-08-25T06:09:29.794Z</time>
      </trkpt>
      <trkpt lat="45.57219" lon="3.54213">
        <ele>1015.77367</ele>
        <time>2023-08-25T06:09:32.801Z</time>
      </trkpt>
      <trkpt lat="45.57217" lon="3.54231">
        <ele>1016.003136</ele>
        <time>2023-08-25T06:09:35.793Z</time>
      </trkpt>
      <trkpt lat="45.57216" lon="3.5425">
        <ele>1016.234765</ele>
        <time>2023-08-25T06:09:38.786Z</time>
      </trkpt>
      <trkpt lat="45.57217" lon="3.54268">
        <ele>1016.455297</ele>
        <time>2023-08-25T06:09:41.790Z</time>
      </trkpt>
      <trkpt lat="45.57217" lon="3.54282">
        <ele>1016.620285</ele>
        <time>2023-08-25T06:09:43.800Z</time>
      </trkpt>
      <trkpt lat="45.57216" lon="3.54298">
        <ele>1016.819557</ele>
        <time>2023-08-25T06:09:45.794Z</time>
      </trkpt>
      <trkpt lat="45.57215" lon="3.54316">
        <ele>1016.747189</ele>
        <time>2023-08-25T06:09:47.799Z</time>
      </trkpt>
      <trkpt lat="45.57214" lon="3.54333">
        <ele>1016.244894</ele>
        <time>2023-08-25T06:09:49.796Z</time>
      </trkpt>
      <trkpt lat="45.57216" lon="3.54349">
        <ele>1015.805923</ele>
        <time>2023-08-25T06:09:51.803Z</time>
      </trkpt>
      <trkpt lat="45.57222" lon="3.54365">
        <ele>1015.288061</ele>
        <time>2023-08-25T06:09:53.792Z</time>
      </trkpt>
      <trkpt lat="45.57228" lon="3.54384">
        <ele>1014.68093</ele>
        <time>2023-08-25T06:09:55.793Z</time>
      </trkpt>
      <trkpt lat="45.57233" lon="3.544">
        <ele>1014.209142</ele>
        <time>2023-08-25T06:09:57.784Z</time>
      </trkpt>
      <trkpt lat="45.57236" lon="3.54412">
        <ele>1013.84001</ele>
        <time>2023-08-25T06:09:59.783Z</time>
      </trkpt>
      <trkpt lat="45.57243" lon="3.54422">
        <ele>1013.45189</ele>
        <time>2023-08-25T06:10:02.804Z</time>
      </trkpt>
      <trkpt lat="45.57254" lon="3.5443">
        <ele>1012.952806</ele>
        <time>2023-08-25T06:10:05.791Z</time>
      </trkpt>
      <trkpt lat="45.57262" lon="3.54439">
        <ele>1012.524589</ele>
        <time>2023-08-25T06:10:07.791Z</time>
      </trkpt>
      <trkpt lat="45.57273" lon="3.54448">
        <ele>1012.020566</ele>
        <time>2023-08-25T06:10:09.814Z</time>
      </trkpt>
      <trkpt lat="45.57285" lon="3.54458">
        <ele>1011.478576</ele>
        <time>2023-08-25T06:10:11.804Z</time>
      </trkpt>
      <trkpt lat="45.57296" lon="3.54467">
        <ele>1010.95001</ele>
        <time>2023-08-25T06:10:13.808Z</time>
      </trkpt>
      <trkpt lat="45.57307" lon="3.54474">
        <ele>1010.459087</ele>
        <time>2023-08-25T06:10:15.803Z</time>
      </trkpt>
      <trkpt lat="45.57318" lon="3.54482">
        <ele>1009.962714</ele>
        <time>2023-08-25T06:10:17.802Z</time>
      </trkpt>
      <trkpt lat="45.57327" lon="3.54493">
        <ele>1009.874445</ele>
        <time>2023-08-25T06:10:19.796Z</time>
      </trkpt>
      <trkpt lat="45.57335" lon="3.54501">
        <ele>1010.300451</ele>
        <time>2023-08-25T06:10:21.791Z</time>
      </trkpt>
      <trkpt lat="45.57343" lon="3.54508">
        <ele>1010.695867</ele>
        <time>2023-08-25T06:10:23.804Z</time>
      </trkpt>
      <trkpt lat="45.57355" lon="3.54515">
        <ele>1011.263712</ele>
        <time>2023-08-25T06:10:26.797Z</time>
      </trkpt>
      <trkpt lat="45.57367" lon="3.54524">
        <ele>1011.868322</ele>
        <time>2023-08-25T06:10:29.786Z</time>
      </trkpt>
      <trkpt lat="45.57379" lon="3.54532">
        <ele>1012.410991</ele>
        <time>2023-08-25T06:10:32.793Z</time>
      </trkpt>
      <trkpt lat="45.5739" lon="3.54541">
        <ele>1012.956719</ele>
        <time>2023-08-25T06:10:35.794Z</time>
      </trkpt>
      <trkpt lat="45.57401" lon="3.54552">
        <ele>1013.547128</ele>
        <time>2023-08-25T06:10:38.781Z</time>
      </trkpt>
      <trkpt lat="45.57407" lon="3.54562">
        <ele>1013.965971</ele>
        <time>2023-08-25T06:10:41.788Z</time>
      </trkpt>
      <trkpt lat="45.57414" lon="3.54574">
        <ele>1014.432777</ele>
        <time>2023-08-25T06:10:44.805Z</time>
      </trkpt>
      <trkpt lat="45.57421" lon="3.54587">
        <ele>1014.914864</ele>
        <time>2023-08-25T06:10:47.792Z</time>
      </trkpt>
      <trkpt lat="45.57426" lon="3.54598">
        <ele>1015.343465</ele>
        <time>2023-08-25T06:10:49.801Z</time>
      </trkpt>
      <trkpt lat="45.57433" lon="3.54613">
        <ele>1015.884593</ele>
        <time>2023-08-25T06:10:52.789Z</time>
      </trkpt>
      <trkpt lat="45.5744" lon="3.54625">
        <ele>1016.376099</ele>
        <time>2023-08-25T06:10:55.789Z</time>
      </trkpt>
      <trkpt lat="45.57447" lon="3.54637">
        <ele>1016.848371</ele>
        <time>2023-08-25T06:10:58.780Z</time>
      </trkpt>
      <trkpt lat="45.57453" lon="3.54652">
        <ele>1017.353171</ele>
        <time>2023-08-25T06:11:01.789Z</time>
      </trkpt>
      <trkpt lat="45.57456" lon="3.54664">
        <ele>1017.409788</ele>
        <time>2023-08-25T06:11:04.788Z</time>
      </trkpt>
      <trkpt lat="45.57458" lon="3.54677">
        <ele>1017.299287</ele>
        <time>2023-08-25T06:11:08.791Z</time>
      </trkpt>
      <trkpt lat="45.57457" lon="3.54691">
        <ele>1017.179155</ele>
        <time>2023-08-25T06:11:11.789Z</time>
      </trkpt>
      <trkpt lat="45.57457" lon="3.54705">
        <ele>1017.062857</ele>
        <time>2023-08-25T06:11:14.804Z</time>
      </trkpt>
      <trkpt lat="45.57457" lon="3.54722">
        <ele>1016.922988</ele>
        <time>2023-08-25T06:11:17.797Z</time>
      </trkpt>
      <trkpt lat="45.57458" lon="3.54739">
        <ele>1016.776513</ele>
        <time>2023-08-25T06:11:20.798Z</time>
      </trkpt>
      <trkpt lat="45.57458" lon="3.54754">
        <ele>1016.648923</ele>
        <time>2023-08-25T06:11:22.795Z</time>
      </trkpt>
      <trkpt lat="45.57458" lon="3.54774">
        <ele>1016.482936</ele>
        <time>2023-08-25T06:11:24.796Z</time>
      </trkpt>
      <trkpt lat="45.57457" lon="3.54796">
        <ele>1016.292484</ele>
        <time>2023-08-25T06:11:26.805Z</time>
      </trkpt>
      <trkpt lat="45.57453" lon="3.54814">
        <ele>1016.135399</ele>
        <time>2023-08-25T06:11:28.778Z</time>
      </trkpt>
      <trkpt lat="45.57443" lon="3.54825">
        <ele>1015.981928</ele>
        <time>2023-08-25T06:11:30.797Z</time>
      </trkpt>
      <trkpt lat="45.57428" lon="3.54833">
        <ele>1015.787782</ele>
        <time>2023-08-25T06:11:32.799Z</time>
      </trkpt>
      <trkpt lat="45.57418" lon="3.54839">
        <ele>1015.653738</ele>
        <time>2023-08-25T06:11:33.801Z</time>
      </trkpt>
      <trkpt lat="45.57406" lon="3.54845">
        <ele>1015.500084</ele>
        <time>2023-08-25T06:11:34.801Z</time>
      </trkpt>
      <trkpt lat="45.57395" lon="3.54854">
        <ele>1015.347281</ele>
        <time>2023-08-25T06:11:35.801Z</time>
      </trkpt>
      <trkpt lat="45.57385" lon="3.54864">
        <ele>1014.137552</ele>
        <time>2023-08-25T06:11:36.807Z</time>
      </trkpt>
      <trkpt lat="45.57375" lon="3.54873">
        <ele>1012.786255</ele>
        <time>2023-08-25T06:11:37.807Z</time>
      </trkpt>
      <trkpt lat="45.57366" lon="3.54882">
        <ele>1011.463773</ele>
        <time>2023-08-25T06:11:38.775Z</time>
      </trkpt>
      <trkpt lat="45.57358" lon="3.54893">
        <ele>1010.156195</ele>
        <time>2023-08-25T06:11:39.806Z</time>
      </trkpt>
      <trkpt lat="45.57351" lon="3.54904">
        <ele>1008.899223</ele>
        <time>2023-08-25T06:11:40.806Z</time>
      </trkpt>
      <trkpt lat="45.57344" lon="3.54915">
        <ele>1007.649763</ele>
        <time>2023-08-25T06:11:41.805Z</time>
      </trkpt>
      <trkpt lat="45.57338" lon="3.54926">
        <ele>1006.47704</ele>
        <time>2023-08-25T06:11:42.816Z</time>
      </trkpt>
      <trkpt lat="45.57331" lon="3.54937">
        <ele>1005.236727</ele>
        <time>2023-08-25T06:11:43.806Z</time>
      </trkpt>
      <trkpt lat="45.57324" lon="3.5495">
        <ele>1003.881437</ele>
        <time>2023-08-25T06:11:44.789Z</time>
      </trkpt>
      <trkpt lat="45.57317" lon="3.54962">
        <ele>1002.604746</ele>
        <time>2023-08-25T06:11:45.798Z</time>
      </trkpt>
      <trkpt lat="45.57314" lon="3.54975">
        <ele>1001.519162</ele>
        <time>2023-08-25T06:11:46.801Z</time>
      </trkpt>
      <trkpt lat="45.57311" lon="3.54988">
        <ele>1000.358423</ele>
        <time>2023-08-25T06:11:47.778Z</time>
      </trkpt>
      <trkpt lat="45.57308" lon="3.55003">
        <ele>999.01291</ele>
        <time>2023-08-25T06:11:48.789Z</time>
      </trkpt>
      <trkpt lat="45.57305" lon="3.55016">
        <ele>997.889553</ele>
        <time>2023-08-25T06:11:49.799Z</time>
      </trkpt>
      <trkpt lat="45.57302" lon="3.55029">
        <ele>996.788347</ele>
        <time>2023-08-25T06:11:50.802Z</time>
      </trkpt>
      <trkpt lat="45.57299" lon="3.55042">
        <ele>995.615121</ele>
        <time>2023-08-25T06:11:51.770Z</time>
      </trkpt>
      <trkpt lat="45.573" lon="3.55066">
        <ele>993.728497</ele>
        <time>2023-08-25T06:11:53.807Z</time>
      </trkpt>
      <trkpt lat="45.57311" lon="3.55087">
        <ele>992.200918</ele>
        <time>2023-08-25T06:11:55.786Z</time>
      </trkpt>
      <trkpt lat="45.57322" lon="3.55106">
        <ele>990.824958</ele>
        <time>2023-08-25T06:11:57.800Z</time>
      </trkpt>
      <trkpt lat="45.5733" lon="3.55125">
        <ele>989.56769</ele>
        <time>2023-08-25T06:11:59.804Z</time>
      </trkpt>
      <trkpt lat="45.57333" lon="3.55141">
        <ele>988.598088</ele>
        <time>2023-08-25T06:12:01.804Z</time>
      </trkpt>
      <trkpt lat="45.57335" lon="3.55157">
        <ele>987.626123</ele>
        <time>2023-08-25T06:12:03.805Z</time>
      </trkpt>
      <trkpt lat="45.57338" lon="3.55175">
        <ele>986.573843</ele>
        <time>2023-08-25T06:12:05.804Z</time>
      </trkpt>
      <trkpt lat="45.57341" lon="3.55193">
        <ele>985.528995</ele>
        <time>2023-08-25T06:12:07.807Z</time>
      </trkpt>
      <trkpt lat="45.57342" lon="3.5521">
        <ele>984.547939</ele>
        <time>2023-08-25T06:12:09.800Z</time>
      </trkpt>
      <trkpt lat="45.57344" lon="3.55228">
        <ele>983.530709</ele>
        <time>2023-08-25T06:12:11.809Z</time>
      </trkpt>
      <trkpt lat="45.57345" lon="3.55246">
        <ele>982.495457</ele>
        <time>2023-08-25T06:12:13.814Z</time>
      </trkpt>
      <trkpt lat="45.57347" lon="3.55263">
        <ele>981.470532</ele>
        <time>2023-08-25T06:12:15.809Z</time>
      </trkpt>
      <trkpt lat="45.57349" lon="3.55281">
        <ele>980.427428</ele>
        <time>2023-08-25T06:12:17.803Z</time>
      </trkpt>
      <trkpt lat="45.57349" lon="3.55299">
        <ele>979.394515</ele>
        <time>2023-08-25T06:12:19.806Z</time>
      </trkpt>
      <trkpt lat="45.57346" lon="3.55318">
        <ele>978.474365</ele>
        <time>2023-08-25T06:12:21.800Z</time>
      </trkpt>
      <trkpt lat="45.57339" lon="3.55336">
        <ele>977.500054</ele>
        <time>2023-08-25T06:12:23.798Z</time>
      </trkpt>
      <trkpt lat="45.57333" lon="3.55347">
        <ele>976.884437</ele>
        <time>2023-08-25T06:12:24.790Z</time>
      </trkpt>
      <trkpt lat="45.57323" lon="3.55367">
        <ele>975.717819</ele>
        <time>2023-08-25T06:12:26.800Z</time>
      </trkpt>
      <trkpt lat="45.57317" lon="3.55376">
        <ele>975.112673</ele>
        <time>2023-08-25T06:12:27.804Z</time>
      </trkpt>
      <trkpt lat="45.5731" lon="3.55386">
        <ele>974.478489</ele>
        <time>2023-08-25T06:12:28.789Z</time>
      </trkpt>
      <trkpt lat="45.57303" lon="3.55396">
        <ele>973.826427</ele>
        <time>2023-08-25T06:12:29.805Z</time>
      </trkpt>
      <trkpt lat="45.57295" lon="3.55406">
        <ele>973.100558</ele>
        <time>2023-08-25T06:12:30.821Z</time>
      </trkpt>
      <trkpt lat="45.57287" lon="3.55416">
        <ele>972.396767</ele>
        <time>2023-08-25T06:12:31.807Z</time>
      </trkpt>
      <trkpt lat="45.5728" lon="3.55425">
        <ele>971.731664</ele>
        <time>2023-08-25T06:12:32.800Z</time>
      </trkpt>
      <trkpt lat="45.57271" lon="3.55432">
        <ele>971.070369</ele>
        <time>2023-08-25T06:12:33.807Z</time>
      </trkpt>
      <trkpt lat="45.57262" lon="3.55437">
        <ele>970.434391</ele>
        <time>2023-08-25T06:12:34.809Z</time>
      </trkpt>
      <trkpt lat="45.57253" lon="3.55441">
        <ele>969.80729</ele>
        <time>2023-08-25T06:12:35.818Z</time>
      </trkpt>
      <trkpt lat="45.57243" lon="3.55444">
        <ele>969.145532</ele>
        <time>2023-08-25T06:12:36.785Z</time>
      </trkpt>
      <trkpt lat="45.57233" lon="3.55446">
        <ele>968.447559</ele>
        <time>2023-08-25T06:12:37.825Z</time>
      </trkpt>
      <trkpt lat="45.57222" lon="3.55447">
        <ele>967.737315</ele>
        <time>2023-08-25T06:12:38.803Z</time>
      </trkpt>
      <trkpt lat="45.57212" lon="3.55451">
        <ele>967.134461</ele>
        <time>2023-08-25T06:12:39.802Z</time>
      </trkpt>
      <trkpt lat="45.57202" lon="3.55457">
        <ele>966.963167</ele>
        <time>2023-08-25T06:12:40.795Z</time>
      </trkpt>
      <trkpt lat="45.57194" lon="3.55468">
        <ele>966.776588</ele>
        <time>2023-08-25T06:12:41.800Z</time>
      </trkpt>
      <trkpt lat="45.57183" lon="3.55482">
        <ele>966.539814</ele>
        <time>2023-08-25T06:12:42.809Z</time>
      </trkpt>
      <trkpt lat="45.57176" lon="3.55494">
        <ele>966.351671</ele>
        <time>2023-08-25T06:12:43.803Z</time>
      </trkpt>
      <trkpt lat="45.57168" lon="3.55506">
        <ele>966.164526</ele>
        <time>2023-08-25T06:12:44.811Z</time>
      </trkpt>
      <trkpt lat="45.5716" lon="3.55515">
        <ele>965.995899</ele>
        <time>2023-08-25T06:12:45.809Z</time>
      </trkpt>
      <trkpt lat="45.57151" lon="3.55521">
        <ele>965.834431</ele>
        <time>2023-08-25T06:12:46.815Z</time>
      </trkpt>
      <trkpt lat="45.57137" lon="3.55538">
        <ele>965.536674</ele>
        <time>2023-08-25T06:12:48.795Z</time>
      </trkpt>
      <trkpt lat="45.57134" lon="3.5556">
        <ele>965.277266</ele>
        <time>2023-08-25T06:12:50.805Z</time>
      </trkpt>
      <trkpt lat="45.57138" lon="3.55578">
        <ele>965.054836</ele>
        <time>2023-08-25T06:12:52.798Z</time>
      </trkpt>
      <trkpt lat="45.57148" lon="3.55589">
        <ele>964.860454</ele>
        <time>2023-08-25T06:12:54.813Z</time>
      </trkpt>
      <trkpt lat="45.57157" lon="3.556">
        <ele>964.662784</ele>
        <time>2023-08-25T06:12:56.805Z</time>
      </trkpt>
      <trkpt lat="45.57167" lon="3.55608">
        <ele>964.478581</ele>
        <time>2023-08-25T06:12:58.793Z</time>
      </trkpt>
      <trkpt lat="45.57177" lon="3.55617">
        <ele>964.282341</ele>
        <time>2023-08-25T06:13:00.769Z</time>
      </trkpt>
      <trkpt lat="45.57184" lon="3.55624">
        <ele>964.642097</ele>
        <time>2023-08-25T06:13:02.798Z</time>
      </trkpt>
      <trkpt lat="45.57193" lon="3.55632">
        <ele>965.491288</ele>
        <time>2023-08-25T06:13:05.785Z</time>
      </trkpt>
      <trkpt lat="45.57202" lon="3.55637">
        <ele>966.22273</ele>
        <time>2023-08-25T06:13:07.805Z</time>
      </trkpt>
      <trkpt lat="45.57211" lon="3.55643">
        <ele>967.059324</ele>
        <time>2023-08-25T06:13:09.807Z</time>
      </trkpt>
      <trkpt lat="45.57221" lon="3.55646">
        <ele>967.887837</ele>
        <time>2023-08-25T06:13:11.803Z</time>
      </trkpt>
      <trkpt lat="45.57234" lon="3.55648">
        <ele>968.910018</ele>
        <time>2023-08-25T06:13:14.800Z</time>
      </trkpt>
      <trkpt lat="45.57247" lon="3.5565">
        <ele>969.935969</ele>
        <time>2023-08-25T06:13:17.802Z</time>
      </trkpt>
      <trkpt lat="45.57255" lon="3.55644">
        <ele>970.72552</ele>
        <time>2023-08-25T06:13:20.807Z</time>
      </trkpt>
      <trkpt lat="45.57266" lon="3.55641">
        <ele>971.593164</ele>
        <time>2023-08-25T06:13:23.796Z</time>
      </trkpt>
      <trkpt lat="45.57276" lon="3.55636">
        <ele>972.424217</ele>
        <time>2023-08-25T06:13:26.792Z</time>
      </trkpt>
      <trkpt lat="45.57288" lon="3.55636">
        <ele>973.366337</ele>
        <time>2023-08-25T06:13:29.793Z</time>
      </trkpt>
      <trkpt lat="45.57298" lon="3.55638">
        <ele>974.251414</ele>
        <time>2023-08-25T06:13:32.798Z</time>
      </trkpt>
      <trkpt lat="45.5731" lon="3.55644">
        <ele>975.20252</ele>
        <time>2023-08-25T06:13:35.804Z</time>
      </trkpt>
      <trkpt lat="45.57318" lon="3.55653">
        <ele>976.093196</ele>
        <time>2023-08-25T06:13:38.764Z</time>
      </trkpt>
      <trkpt lat="45.57326" lon="3.55664">
        <ele>976.925192</ele>
        <time>2023-08-25T06:13:41.807Z</time>
      </trkpt>
      <trkpt lat="45.57333" lon="3.55673">
        <ele>977.734142</ele>
        <time>2023-08-25T06:13:44.805Z</time>
      </trkpt>
      <trkpt lat="45.57341" lon="3.55684">
        <ele>978.606302</ele>
        <time>2023-08-25T06:13:47.808Z</time>
      </trkpt>
      <trkpt lat="45.5735" lon="3.55692">
        <ele>979.027316</ele>
        <time>2023-08-25T06:13:50.797Z</time>
      </trkpt>
      <trkpt lat="45.57359" lon="3.557">
        <ele>979.386172</ele>
        <time>2023-08-25T06:13:53.771Z</time>
      </trkpt>
      <trkpt lat="45.57367" lon="3.55711">
        <ele>979.80358</ele>
        <time>2023-08-25T06:13:56.783Z</time>
      </trkpt>
      <trkpt lat="45.57373" lon="3.55724">
        <ele>980.1787</ele>
        <time>2023-08-25T06:13:59.807Z</time>
      </trkpt>
      <trkpt lat="45.57379" lon="3.55735">
        <ele>980.527603</ele>
        <time>2023-08-25T06:14:02.805Z</time>
      </trkpt>
      <trkpt lat="45.57384" lon="3.55749">
        <ele>980.927654</ele>
        <time>2023-08-25T06:14:05.793Z</time>
      </trkpt>
      <trkpt lat="45.57386" lon="3.55765">
        <ele>981.331216</ele>
        <time>2023-08-25T06:14:09.794Z</time>
      </trkpt>
      <trkpt lat="45.57386" lon="3.55783">
        <ele>981.762571</ele>
        <time>2023-08-25T06:14:13.806Z</time>
      </trkpt>
      <trkpt lat="45.57385" lon="3.55798">
        <ele>982.135847</ele>
        <time>2023-08-25T06:14:16.794Z</time>
      </trkpt>
      <trkpt lat="45.57386" lon="3.55814">
        <ele>982.540813</ele>
        <time>2023-08-25T06:14:19.813Z</time>
      </trkpt>
      <trkpt lat="45.5739" lon="3.55829">
        <ele>982.935636</ele>
        <time>2023-08-25T06:14:22.808Z</time>
      </trkpt>
      <trkpt lat="45.57393" lon="3.55843">
        <ele>983.293617</ele>
        <time>2023-08-25T06:14:25.772Z</time>
      </trkpt>
      <trkpt lat="45.57393" lon="3.55857">
        <ele>983.657711</ele>
        <time>2023-08-25T06:14:28.805Z</time>
      </trkpt>
      <trkpt lat="45.57401" lon="3.55873">
        <ele>984.130361</ele>
        <time>2023-08-25T06:14:31.807Z</time>
      </trkpt>
      <trkpt lat="45.57409" lon="3.55887">
        <ele>984.575421</ele>
        <time>2023-08-25T06:14:34.811Z</time>
      </trkpt>
      <trkpt lat="45.57417" lon="3.55901">
        <ele>985.024346</ele>
        <time>2023-08-25T06:14:37.791Z</time>
      </trkpt>
      <trkpt lat="45.57423" lon="3.55911">
        <ele>985.357035</ele>
        <time>2023-08-25T06:14:39.822Z</time>
      </trkpt>
      <trkpt lat="45.57431" lon="3.55925">
        <ele>985.828199</ele>
        <time>2023-08-25T06:14:42.808Z</time>
      </trkpt>
      <trkpt lat="45.57439" lon="3.55939">
        <ele>986.293876</ele>
        <time>2023-08-25T06:14:45.809Z</time>
      </trkpt>
      <trkpt lat="45.57446" lon="3.55953">
        <ele>986.752205</ele>
        <time>2023-08-25T06:14:48.788Z</time>
      </trkpt>
      <trkpt lat="45.57453" lon="3.55967">
        <ele>987.198096</ele>
        <time>2023-08-25T06:14:51.800Z</time>
      </trkpt>
      <trkpt lat="45.57459" lon="3.55981">
        <ele>987.624516</ele>
        <time>2023-08-25T06:14:54.807Z</time>
      </trkpt>
      <trkpt lat="45.57465" lon="3.55995">
        <ele>988.03535</ele>
        <time>2023-08-25T06:14:57.803Z</time>
      </trkpt>
      <trkpt lat="45.57471" lon="3.56011">
        <ele>988.50488</ele>
        <time>2023-08-25T06:15:00.806Z</time>
      </trkpt>
      <trkpt lat="45.57477" lon="3.56026">
        <ele>988.96405</ele>
        <time>2023-08-25T06:15:03.819Z</time>
      </trkpt>
      <trkpt lat="45.57482" lon="3.56042">
        <ele>989.422665</ele>
        <time>2023-08-25T06:15:06.807Z</time>
      </trkpt>
      <trkpt lat="45.57488" lon="3.56058">
        <ele>989.877984</ele>
        <time>2023-08-25T06:15:09.802Z</time>
      </trkpt>
      <trkpt lat="45.57493" lon="3.56074">
        <ele>990.326194</ele>
        <time>2023-08-25T06:15:12.789Z</time>
      </trkpt>
      <trkpt lat="45.57498" lon="3.56089">
        <ele>990.762403</ele>
        <time>2023-08-25T06:15:15.804Z</time>
      </trkpt>
      <trkpt lat="45.57503" lon="3.56102">
        <ele>991.163226</ele>
        <time>2023-08-25T06:15:18.778Z</time>
      </trkpt>
      <trkpt lat="45.57504" lon="3.56116">
        <ele>991.524713</ele>
        <time>2023-08-25T06:15:22.807Z</time>
      </trkpt>
      <trkpt lat="45.57496" lon="3.56111">
        <ele>992.088662</ele>
        <time>2023-08-25T06:15:25.808Z</time>
      </trkpt>
      <trkpt lat="45.57488" lon="3.56101">
        <ele>993.039317</ele>
        <time>2023-08-25T06:15:29.793Z</time>
      </trkpt>
      <trkpt lat="45.5748" lon="3.56093">
        <ele>993.883188</ele>
        <time>2023-08-25T06:15:32.778Z</time>
      </trkpt>
      <trkpt lat="45.57472" lon="3.56085">
        <ele>994.750601</ele>
        <time>2023-08-25T06:15:35.785Z</time>
      </trkpt>
      <trkpt lat="45.57462" lon="3.5608">
        <ele>995.69944</ele>
        <time>2023-08-25T06:15:39.805Z</time>
      </trkpt>
      <trkpt lat="45.57451" lon="3.56075">
        <ele>996.656883</ele>
        <time>2023-08-25T06:15:42.803Z</time>
      </trkpt>
      <trkpt lat="45.57441" lon="3.56071">
        <ele>997.598852</ele>
        <time>2023-08-25T06:15:45.804Z</time>
      </trkpt>
      <trkpt lat="45.57431" lon="3.56067">
        <ele>998.549046</ele>
        <time>2023-08-25T06:15:48.801Z</time>
      </trkpt>
      <trkpt lat="45.57419" lon="3.56063">
        <ele>999.60324</ele>
        <time>2023-08-25T06:15:52.806Z</time>
      </trkpt>
      <trkpt lat="45.5741" lon="3.56058">
        <ele>1000.520599</ele>
        <time>2023-08-25T06:15:56.798Z</time>
      </trkpt>
      <trkpt lat="45.57398" lon="3.56054">
        <ele>1001.542862</ele>
        <time>2023-08-25T06:16:00.801Z</time>
      </trkpt>
      <trkpt lat="45.57388" lon="3.56051">
        <ele>1002.477565</ele>
        <time>2023-08-25T06:16:03.806Z</time>
      </trkpt>
      <trkpt lat="45.57376" lon="3.56048">
        <ele>1003.556293</ele>
        <time>2023-08-25T06:16:06.771Z</time>
      </trkpt>
      <trkpt lat="45.57366" lon="3.56044">
        <ele>1004.42919</ele>
        <time>2023-08-25T06:16:09.800Z</time>
      </trkpt>
      <trkpt lat="45.57357" lon="3.56041">
        <ele>1005.320745</ele>
        <time>2023-08-25T06:16:12.803Z</time>
      </trkpt>
      <trkpt lat="45.57347" lon="3.56034">
        <ele>1006.272335</ele>
        <time>2023-08-25T06:16:15.796Z</time>
      </trkpt>
      <trkpt lat="45.57335" lon="3.56028">
        <ele>1007.44813</ele>
        <time>2023-08-25T06:16:18.769Z</time>
      </trkpt>
      <trkpt lat="45.57322" lon="3.56026">
        <ele>1007.761122</ele>
        <time>2023-08-25T06:16:21.805Z</time>
      </trkpt>
      <trkpt lat="45.57311" lon="3.56028">
        <ele>1007.889685</ele>
        <time>2023-08-25T06:16:24.788Z</time>
      </trkpt>
      <trkpt lat="45.57299" lon="3.56028">
        <ele>1008.030288</ele>
        <time>2023-08-25T06:16:27.793Z</time>
      </trkpt>
      <trkpt lat="45.57287" lon="3.56028">
        <ele>1008.179218</ele>
        <time>2023-08-25T06:16:30.784Z</time>
      </trkpt>
      <trkpt lat="45.57276" lon="3.56032">
        <ele>1008.315809</ele>
        <time>2023-08-25T06:16:33.807Z</time>
      </trkpt>
      <trkpt lat="45.57264" lon="3.56037">
        <ele>1008.459266</ele>
        <time>2023-08-25T06:16:36.809Z</time>
      </trkpt>
      <trkpt lat="45.57251" lon="3.56044">
        <ele>1008.622358</ele>
        <time>2023-08-25T06:16:39.799Z</time>
      </trkpt>
      <trkpt lat="45.57243" lon="3.56049">
        <ele>1008.73429</ele>
        <time>2023-08-25T06:16:42.794Z</time>
      </trkpt>
      <trkpt lat="45.57234" lon="3.56052">
        <ele>1008.844206</ele>
        <time>2023-08-25T06:16:45.805Z</time>
      </trkpt>
      <trkpt lat="45.57224" lon="3.56054">
        <ele>1008.954453</ele>
        <time>2023-08-25T06:16:48.784Z</time>
      </trkpt>
      <trkpt lat="45.57216" lon="3.56056">
        <ele>1009.061788</ele>
        <time>2023-08-25T06:16:51.798Z</time>
      </trkpt>
      <trkpt lat="45.57205" lon="3.56059">
        <ele>1009.18871</ele>
        <time>2023-08-25T06:16:55.813Z</time>
      </trkpt>
      <trkpt lat="45.57196" lon="3.56062">
        <ele>1009.296936</ele>
        <time>2023-08-25T06:16:58.795Z</time>
      </trkpt>
      <trkpt lat="45.57185" lon="3.56066">
        <ele>1009.43891</ele>
        <time>2023-08-25T06:17:02.792Z</time>
      </trkpt>
      <trkpt lat="45.57176" lon="3.56068">
        <ele>1009.548472</ele>
        <time>2023-08-25T06:17:05.794Z</time>
      </trkpt>
      <trkpt lat="45.57164" lon="3.56073">
        <ele>1009.691444</ele>
        <time>2023-08-25T06:17:09.793Z</time>
      </trkpt>
      <trkpt lat="45.57156" lon="3.56078">
        <ele>1009.854483</ele>
        <time>2023-08-25T06:17:12.809Z</time>
      </trkpt>
      <trkpt lat="45.57146" lon="3.56086">
        <ele>1010.299355</ele>
        <time>2023-08-25T06:17:16.810Z</time>
      </trkpt>
      <trkpt lat="45.57136" lon="3.56095">
        <ele>1010.791875</ele>
        <time>2023-08-25T06:17:20.767Z</time>
      </trkpt>
      <trkpt lat="45.57129" lon="3.56104">
        <ele>1011.173636</ele>
        <time>2023-08-25T06:17:23.790Z</time>
      </trkpt>
      <trkpt lat="45.57121" lon="3.56114">
        <ele>1011.617887</ele>
        <time>2023-08-25T06:17:26.792Z</time>
      </trkpt>
      <trkpt lat="45.57113" lon="3.56125">
        <ele>1012.062816</ele>
        <time>2023-08-25T06:17:29.776Z</time>
      </trkpt>
      <trkpt lat="45.57106" lon="3.56137">
        <ele>1012.500512</ele>
        <time>2023-08-25T06:17:32.785Z</time>
      </trkpt>
      <trkpt lat="45.57099" lon="3.56149">
        <ele>1012.951336</ele>
        <time>2023-08-25T06:17:35.789Z</time>
      </trkpt>
      <trkpt lat="45.57094" lon="3.56161">
        <ele>1013.373398</ele>
        <time>2023-08-25T06:17:38.800Z</time>
      </trkpt>
      <trkpt lat="45.57088" lon="3.56174">
        <ele>1013.809352</ele>
        <time>2023-08-25T06:17:41.822Z</time>
      </trkpt>
      <trkpt lat="45.57081" lon="3.56186">
        <ele>1014.247391</ele>
        <time>2023-08-25T06:17:44.806Z</time>
      </trkpt>
      <trkpt lat="45.5707" lon="3.56192">
        <ele>1014.7257</ele>
        <time>2023-08-25T06:17:47.806Z</time>
      </trkpt>
      <trkpt lat="45.57059" lon="3.56195">
        <ele>1015.171782</ele>
        <time>2023-08-25T06:17:50.822Z</time>
      </trkpt>
      <trkpt lat="45.57048" lon="3.56197">
        <ele>1015.645119</ele>
        <time>2023-08-25T06:17:53.813Z</time>
      </trkpt>
      <trkpt lat="45.57037" lon="3.56198">
        <ele>1016.062352</ele>
        <time>2023-08-25T06:17:56.805Z</time>
      </trkpt>
      <trkpt lat="45.57028" lon="3.56199">
        <ele>1016.467857</ele>
        <time>2023-08-25T06:17:59.798Z</time>
      </trkpt>
      <trkpt lat="45.57018" lon="3.562">
        <ele>1016.865211</ele>
        <time>2023-08-25T06:18:02.801Z</time>
      </trkpt>
      <trkpt lat="45.57009" lon="3.56201">
        <ele>1017.476947</ele>
        <time>2023-08-25T06:18:05.815Z</time>
      </trkpt>
      <trkpt lat="45.57" lon="3.56205">
        <ele>1018.636542</ele>
        <time>2023-08-25T06:18:08.804Z</time>
      </trkpt>
      <trkpt lat="45.5699" lon="3.56211">
        <ele>1019.994738</ele>
        <time>2023-08-25T06:18:12.810Z</time>
      </trkpt>
      <trkpt lat="45.5698" lon="3.56219">
        <ele>1021.341842</ele>
        <time>2023-08-25T06:18:16.814Z</time>
      </trkpt>
      <trkpt lat="45.56971" lon="3.56227">
        <ele>1022.66568</ele>
        <time>2023-08-25T06:18:20.809Z</time>
      </trkpt>
      <trkpt lat="45.56964" lon="3.56236">
        <ele>1023.897054</ele>
        <time>2023-08-25T06:18:24.814Z</time>
      </trkpt>
      <trkpt lat="45.56956" lon="3.56246">
        <ele>1025.172649</ele>
        <time>2023-08-25T06:18:28.799Z</time>
      </trkpt>
      <trkpt lat="45.56949" lon="3.56255">
        <ele>1026.343464</ele>
        <time>2023-08-25T06:18:32.796Z</time>
      </trkpt>
      <trkpt lat="45.56945" lon="3.56271">
        <ele>1027.834443</ele>
        <time>2023-08-25T06:18:37.800Z</time>
      </trkpt>
      <trkpt lat="45.56943" lon="3.56284">
        <ele>1028.977307</ele>
        <time>2023-08-25T06:18:39.810Z</time>
      </trkpt>
      <trkpt lat="45.56942" lon="3.56297">
        <ele>1030.12017</ele>
        <time>2023-08-25T06:18:41.810Z</time>
      </trkpt>
      <trkpt lat="45.56942" lon="3.56315">
        <ele>1031.712803</ele>
        <time>2023-08-25T06:18:44.801Z</time>
      </trkpt>
      <trkpt lat="45.56941" lon="3.56331">
        <ele>1033.071402</ele>
        <time>2023-08-25T06:18:47.801Z</time>
      </trkpt>
      <trkpt lat="45.56936" lon="3.56343">
        <ele>1034.269715</ele>
        <time>2023-08-25T06:18:50.808Z</time>
      </trkpt>
      <trkpt lat="45.56928" lon="3.56354">
        <ele>1035.701445</ele>
        <time>2023-08-25T06:18:54.814Z</time>
      </trkpt>
      <trkpt lat="45.56917" lon="3.56355">
        <ele>1037.050426</ele>
        <time>2023-08-25T06:18:57.803Z</time>
      </trkpt>
      <trkpt lat="45.56906" lon="3.56356">
        <ele>1038.33449</ele>
        <time>2023-08-25T06:19:01.799Z</time>
      </trkpt>
      <trkpt lat="45.56897" lon="3.5636">
        <ele>1039.538636</ele>
        <time>2023-08-25T06:19:06.796Z</time>
      </trkpt>
      <trkpt lat="45.56888" lon="3.56363">
        <ele>1040.839548</ele>
        <time>2023-08-25T06:19:11.805Z</time>
      </trkpt>
      <trkpt lat="45.5688" lon="3.56371">
        <ele>1042.278825</ele>
        <time>2023-08-25T06:19:16.815Z</time>
      </trkpt>
      <trkpt lat="45.5687" lon="3.5638">
        <ele>1043.854019</ele>
        <time>2023-08-25T06:19:20.812Z</time>
      </trkpt>
      <trkpt lat="45.56862" lon="3.56388">
        <ele>1045.338405</ele>
        <time>2023-08-25T06:19:24.805Z</time>
      </trkpt>
      <trkpt lat="45.56853" lon="3.56396">
        <ele>1046.730219</ele>
        <time>2023-08-25T06:19:28.807Z</time>
      </trkpt>
      <trkpt lat="45.56846" lon="3.56406">
        <ele>1048.134713</ele>
        <time>2023-08-25T06:19:31.801Z</time>
      </trkpt>
      <trkpt lat="45.56838" lon="3.56414">
        <ele>1049.452015</ele>
        <time>2023-08-25T06:19:35.807Z</time>
      </trkpt>
      <trkpt lat="45.5683" lon="3.56421">
        <ele>1050.78725</ele>
        <time>2023-08-25T06:19:39.799Z</time>
      </trkpt>
      <trkpt lat="45.56822" lon="3.56429">
        <ele>1052.179506</ele>
        <time>2023-08-25T06:19:43.815Z</time>
      </trkpt>
      <trkpt lat="45.56814" lon="3.56439">
        <ele>1053.739117</ele>
        <time>2023-08-25T06:19:47.814Z</time>
      </trkpt>
      <trkpt lat="45.56806" lon="3.56447">
        <ele>1055.079386</ele>
        <time>2023-08-25T06:19:51.817Z</time>
      </trkpt>
      <trkpt lat="45.56797" lon="3.56455">
        <ele>1056.523185</ele>
        <time>2023-08-25T06:19:54.815Z</time>
      </trkpt>
      <trkpt lat="45.56786" lon="3.56465">
        <ele>1058.340263</ele>
        <time>2023-08-25T06:19:57.819Z</time>
      </trkpt>
      <trkpt lat="45.56776" lon="3.56472">
        <ele>1059.928923</ele>
        <time>2023-08-25T06:20:00.805Z</time>
      </trkpt>
      <trkpt lat="45.56767" lon="3.56481">
        <ele>1061.446698</ele>
        <time>2023-08-25T06:20:04.805Z</time>
      </trkpt>
      <trkpt lat="45.5676" lon="3.56492">
        <ele>1062.993614</ele>
        <time>2023-08-25T06:20:08.806Z</time>
      </trkpt>
      <trkpt lat="45.56754" lon="3.56507">
        <ele>1064.623043</ele>
        <time>2023-08-25T06:20:12.809Z</time>
      </trkpt>
      <trkpt lat="45.5675" lon="3.56521">
        <ele>1065.402237</ele>
        <time>2023-08-25T06:20:16.814Z</time>
      </trkpt>
      <trkpt lat="45.56745" lon="3.56532">
        <ele>1066.049255</ele>
        <time>2023-08-25T06:20:20.808Z</time>
      </trkpt>
      <trkpt lat="45.56737" lon="3.56541">
        <ele>1066.67768</ele>
        <time>2023-08-25T06:20:23.813Z</time>
      </trkpt>
      <trkpt lat="45.56728" lon="3.56551">
        <ele>1067.42152</ele>
        <time>2023-08-25T06:20:27.803Z</time>
      </trkpt>
      <trkpt lat="45.56719" lon="3.56559">
        <ele>1068.105507</ele>
        <time>2023-08-25T06:20:31.816Z</time>
      </trkpt>
      <trkpt lat="45.56709" lon="3.56567">
        <ele>1068.870505</ele>
        <time>2023-08-25T06:20:35.823Z</time>
      </trkpt>
      <trkpt lat="45.56699" lon="3.56575">
        <ele>1069.60438</ele>
        <time>2023-08-25T06:20:39.805Z</time>
      </trkpt>
      <trkpt lat="45.56689" lon="3.56582">
        <ele>1070.330024</ele>
        <time>2023-08-25T06:20:43.796Z</time>
      </trkpt>
      <trkpt lat="45.56681" lon="3.56588">
        <ele>1070.909386</ele>
        <time>2023-08-25T06:20:46.792Z</time>
      </trkpt>
      <trkpt lat="45.56671" lon="3.56595">
        <ele>1071.642836</ele>
        <time>2023-08-25T06:20:50.816Z</time>
      </trkpt>
      <trkpt lat="45.56661" lon="3.56601">
        <ele>1072.362104</ele>
        <time>2023-08-25T06:20:54.805Z</time>
      </trkpt>
      <trkpt lat="45.5665" lon="3.56606">
        <ele>1073.097632</ele>
        <time>2023-08-25T06:20:56.803Z</time>
      </trkpt>
      <trkpt lat="45.56639" lon="3.56613">
        <ele>1073.887192</ele>
        <time>2023-08-25T06:20:59.799Z</time>
      </trkpt>
      <trkpt lat="45.56629" lon="3.56619">
        <ele>1074.554511</ele>
        <time>2023-08-25T06:21:02.803Z</time>
      </trkpt>
      <trkpt lat="45.5662" lon="3.56624">
        <ele>1075.223238</ele>
        <time>2023-08-25T06:21:05.810Z</time>
      </trkpt>
      <trkpt lat="45.56609" lon="3.5663">
        <ele>1075.957204</ele>
        <time>2023-08-25T06:21:09.807Z</time>
      </trkpt>
      <trkpt lat="45.56599" lon="3.56636">
        <ele>1076.753942</ele>
        <time>2023-08-25T06:21:13.801Z</time>
      </trkpt>
      <trkpt lat="45.5659" lon="3.5664">
        <ele>1077.697449</ele>
        <time>2023-08-25T06:21:16.814Z</time>
      </trkpt>
      <trkpt lat="45.56582" lon="3.56646">
        <ele>1078.653835</ele>
        <time>2023-08-25T06:21:19.810Z</time>
      </trkpt>
      <trkpt lat="45.56573" lon="3.5665">
        <ele>1079.571231</ele>
        <time>2023-08-25T06:21:22.797Z</time>
      </trkpt>
      <trkpt lat="45.56564" lon="3.56654">
        <ele>1080.514768</ele>
        <time>2023-08-25T06:21:25.806Z</time>
      </trkpt>
      <trkpt lat="45.56556" lon="3.5666">
        <ele>1081.418494</ele>
        <time>2023-08-25T06:21:28.803Z</time>
      </trkpt>
      <trkpt lat="45.56546" lon="3.56665">
        <ele>1082.513953</ele>
        <time>2023-08-25T06:21:32.801Z</time>
      </trkpt>
      <trkpt lat="45.56535" lon="3.56671">
        <ele>1083.690902</ele>
        <time>2023-08-25T06:21:36.801Z</time>
      </trkpt>
      <trkpt lat="45.56525" lon="3.56675">
        <ele>1084.683572</ele>
        <time>2023-08-25T06:21:39.811Z</time>
      </trkpt>
      <trkpt lat="45.56516" lon="3.56679">
        <ele>1085.687844</ele>
        <time>2023-08-25T06:21:42.806Z</time>
      </trkpt>
      <trkpt lat="45.56507" lon="3.56682">
        <ele>1086.606186</ele>
        <time>2023-08-25T06:21:45.812Z</time>
      </trkpt>
      <trkpt lat="45.56498" lon="3.56687">
        <ele>1087.537832</ele>
        <time>2023-08-25T06:21:48.801Z</time>
      </trkpt>
      <trkpt lat="45.56487" lon="3.56691">
        <ele>1088.661913</ele>
        <time>2023-08-25T06:21:51.799Z</time>
      </trkpt>
      <trkpt lat="45.56476" lon="3.56696">
        <ele>1089.852031</ele>
        <time>2023-08-25T06:21:55.813Z</time>
      </trkpt>
      <trkpt lat="45.56466" lon="3.56703">
        <ele>1090.991565</ele>
        <time>2023-08-25T06:21:59.811Z</time>
      </trkpt>
      <trkpt lat="45.56456" lon="3.56711">
        <ele>1092.11489</ele>
        <time>2023-08-25T06:22:03.815Z</time>
      </trkpt>
      <trkpt lat="45.56448" lon="3.56717">
        <ele>1093.01907</ele>
        <time>2023-08-25T06:22:06.809Z</time>
      </trkpt>
      <trkpt lat="45.56438" lon="3.56725">
        <ele>1094.172138</ele>
        <time>2023-08-25T06:22:10.810Z</time>
      </trkpt>
      <trkpt lat="45.56428" lon="3.56732">
        <ele>1094.969407</ele>
        <time>2023-08-25T06:22:14.815Z</time>
      </trkpt>
      <trkpt lat="45.56419" lon="3.56738">
        <ele>1095.495869</ele>
        <time>2023-08-25T06:22:17.810Z</time>
      </trkpt>
      <trkpt lat="45.56411" lon="3.56744">
        <ele>1096.017243</ele>
        <time>2023-08-25T06:22:20.813Z</time>
      </trkpt>
      <trkpt lat="45.56403" lon="3.56752">
        <ele>1096.57258</ele>
        <time>2023-08-25T06:22:23.813Z</time>
      </trkpt>
      <trkpt lat="45.56395" lon="3.56762">
        <ele>1097.148648</ele>
        <time>2023-08-25T06:22:26.810Z</time>
      </trkpt>
      <trkpt lat="45.56389" lon="3.56773">
        <ele>1097.684308</ele>
        <time>2023-08-25T06:22:29.795Z</time>
      </trkpt>
      <trkpt lat="45.56382" lon="3.56782">
        <ele>1098.203347</ele>
        <time>2023-08-25T06:22:32.815Z</time>
      </trkpt>
      <trkpt lat="45.56376" lon="3.56791">
        <ele>1098.716474</ele>
        <time>2023-08-25T06:22:35.812Z</time>
      </trkpt>
      <trkpt lat="45.56368" lon="3.56804">
        <ele>1099.385605</ele>
        <time>2023-08-25T06:22:39.774Z</time>
      </trkpt>
      <trkpt lat="45.56361" lon="3.56814">
        <ele>1099.914887</ele>
        <time>2023-08-25T06:22:42.816Z</time>
      </trkpt>
      <trkpt lat="45.56353" lon="3.56827">
        <ele>1100.570055</ele>
        <time>2023-08-25T06:22:46.828Z</time>
      </trkpt>
      <trkpt lat="45.56347" lon="3.56836">
        <ele>1101.0786</ele>
        <time>2023-08-25T06:22:49.818Z</time>
      </trkpt>
      <trkpt lat="45.5634" lon="3.56846">
        <ele>1101.609985</ele>
        <time>2023-08-25T06:22:52.832Z</time>
      </trkpt>
      <trkpt lat="45.56333" lon="3.56855">
        <ele>1102.14381</ele>
        <time>2023-08-25T06:22:55.817Z</time>
      </trkpt>
      <trkpt lat="45.56327" lon="3.56865">
        <ele>1102.655145</ele>
        <time>2023-08-25T06:22:58.807Z</time>
      </trkpt>
      <trkpt lat="45.5632" lon="3.56874">
        <ele>1103.174308</ele>
        <time>2023-08-25T06:23:01.827Z</time>
      </trkpt>
      <trkpt lat="45.56314" lon="3.56884">
        <ele>1103.719747</ele>
        <time>2023-08-25T06:23:04.807Z</time>
      </trkpt>
      <trkpt lat="45.56307" lon="3.56894">
        <ele>1104.265722</ele>
        <time>2023-08-25T06:23:07.808Z</time>
      </trkpt>
      <trkpt lat="45.56301" lon="3.56904">
        <ele>1104.631394</ele>
        <time>2023-08-25T06:23:10.818Z</time>
      </trkpt>
      <trkpt lat="45.56295" lon="3.56914">
        <ele>1104.830879</ele>
        <time>2023-08-25T06:23:13.815Z</time>
      </trkpt>
      <trkpt lat="45.5629" lon="3.56929">
        <ele>1105.092598</ele>
        <time>2023-08-25T06:23:17.820Z</time>
      </trkpt>
      <trkpt lat="45.56285" lon="3.5694">
        <ele>1105.295087</ele>
        <time>2023-08-25T06:23:20.816Z</time>
      </trkpt>
      <trkpt lat="45.56274" lon="3.56944">
        <ele>1105.530156</ele>
        <time>2023-08-25T06:23:23.803Z</time>
      </trkpt>
      <trkpt lat="45.56262" lon="3.56942">
        <ele>1105.803887</ele>
        <time>2023-08-25T06:23:26.814Z</time>
      </trkpt>
      <trkpt lat="45.5625" lon="3.5694">
        <ele>1106.062974</ele>
        <time>2023-08-25T06:23:29.791Z</time>
      </trkpt>
      <trkpt lat="45.56238" lon="3.56939">
        <ele>1106.320958</ele>
        <time>2023-08-25T06:23:32.795Z</time>
      </trkpt>
      <trkpt lat="45.56225" lon="3.56937">
        <ele>1106.603515</ele>
        <time>2023-08-25T06:23:35.794Z</time>
      </trkpt>
      <trkpt lat="45.56213" lon="3.56935">
        <ele>1106.873239</ele>
        <time>2023-08-25T06:23:38.791Z</time>
      </trkpt>
      <trkpt lat="45.56201" lon="3.56933">
        <ele>1107.13381</ele>
        <time>2023-08-25T06:23:41.806Z</time>
      </trkpt>
      <trkpt lat="45.56189" lon="3.56931">
        <ele>1107.394877</ele>
        <time>2023-08-25T06:23:44.799Z</time>
      </trkpt>
      <trkpt lat="45.56177" lon="3.56929">
        <ele>1107.657935</ele>
        <time>2023-08-25T06:23:47.804Z</time>
      </trkpt>
      <trkpt lat="45.56165" lon="3.56929">
        <ele>1107.924103</ele>
        <time>2023-08-25T06:23:50.799Z</time>
      </trkpt>
      <trkpt lat="45.56155" lon="3.56928">
        <ele>1108.14865</ele>
        <time>2023-08-25T06:23:53.794Z</time>
      </trkpt>
      <trkpt lat="45.56142" lon="3.56929">
        <ele>1108.425509</ele>
        <time>2023-08-25T06:23:56.805Z</time>
      </trkpt>
      <trkpt lat="45.56128" lon="3.5693">
        <ele>1108.721936</ele>
        <time>2023-08-25T06:23:59.801Z</time>
      </trkpt>
      <trkpt lat="45.56119" lon="3.5693">
        <ele>1108.928184</ele>
        <time>2023-08-25T06:24:01.819Z</time>
      </trkpt>
      <trkpt lat="45.5611" lon="3.5693">
        <ele>1109.132284</ele>
        <time>2023-08-25T06:24:03.786Z</time>
      </trkpt>
      <trkpt lat="45.561" lon="3.5693">
        <ele>1109.336355</ele>
        <time>2023-08-25T06:24:05.814Z</time>
      </trkpt>
      <trkpt lat="45.56091" lon="3.5693">
        <ele>1109.536015</ele>
        <time>2023-08-25T06:24:07.807Z</time>
      </trkpt>
      <trkpt lat="45.56082" lon="3.5693">
        <ele>1109.737869</ele>
        <time>2023-08-25T06:24:09.813Z</time>
      </trkpt>
      <trkpt lat="45.56073" lon="3.56931">
        <ele>1109.939816</ele>
        <time>2023-08-25T06:24:11.780Z</time>
      </trkpt>
      <trkpt lat="45.5606" lon="3.56931">
        <ele>1110.229437</ele>
        <time>2023-08-25T06:24:14.810Z</time>
      </trkpt>
      <trkpt lat="45.56046" lon="3.56931">
        <ele>1110.5192</ele>
        <time>2023-08-25T06:24:17.805Z</time>
      </trkpt>
      <trkpt lat="45.56034" lon="3.56932">
        <ele>1110.791615</ele>
        <time>2023-08-25T06:24:20.792Z</time>
      </trkpt>
      <trkpt lat="45.56023" lon="3.56932">
        <ele>1111.037351</ele>
        <time>2023-08-25T06:24:23.813Z</time>
      </trkpt>
      <trkpt lat="45.56013" lon="3.56932">
        <ele>1111.261335</ele>
        <time>2023-08-25T06:24:26.819Z</time>
      </trkpt>
      <trkpt lat="45.56001" lon="3.56928">
        <ele>1111.511939</ele>
        <time>2023-08-25T06:24:30.815Z</time>
      </trkpt>
      <trkpt lat="45.55992" lon="3.56925">
        <ele>1111.736859</ele>
        <time>2023-08-25T06:24:33.824Z</time>
      </trkpt>
      <trkpt lat="45.55981" lon="3.56922">
        <ele>1111.967531</ele>
        <time>2023-08-25T06:24:36.810Z</time>
      </trkpt>
      <trkpt lat="45.5597" lon="3.56919">
        <ele>1112.217272</ele>
        <time>2023-08-25T06:24:39.816Z</time>
      </trkpt>
      <trkpt lat="45.5596" lon="3.56918">
        <ele>1112.445993</ele>
        <time>2023-08-25T06:24:42.795Z</time>
      </trkpt>
      <trkpt lat="45.5595" lon="3.56916">
        <ele>1112.680497</ele>
        <time>2023-08-25T06:24:45.814Z</time>
      </trkpt>
      <trkpt lat="45.5594" lon="3.56914">
        <ele>1112.914508</ele>
        <time>2023-08-25T06:24:48.815Z</time>
      </trkpt>
      <trkpt lat="45.55929" lon="3.56914">
        <ele>1113.169228</ele>
        <time>2023-08-25T06:24:51.809Z</time>
      </trkpt>
      <trkpt lat="45.55917" lon="3.56912">
        <ele>1113.431975</ele>
        <time>2023-08-25T06:24:54.812Z</time>
      </trkpt>
      <trkpt lat="45.55906" lon="3.56911">
        <ele>1113.691689</ele>
        <time>2023-08-25T06:24:57.806Z</time>
      </trkpt>
      <trkpt lat="45.55895" lon="3.5691">
        <ele>1113.94199</ele>
        <time>2023-08-25T06:25:00.818Z</time>
      </trkpt>
      <trkpt lat="45.55884" lon="3.56909">
        <ele>1114.19833</ele>
        <time>2023-08-25T06:25:03.813Z</time>
      </trkpt>
      <trkpt lat="45.55873" lon="3.56908">
        <ele>1114.464979</ele>
        <time>2023-08-25T06:25:06.816Z</time>
      </trkpt>
      <trkpt lat="45.55861" lon="3.56904">
        <ele>1114.743679</ele>
        <time>2023-08-25T06:25:09.810Z</time>
      </trkpt>
      <trkpt lat="45.55849" lon="3.56901">
        <ele>1115.023171</ele>
        <time>2023-08-25T06:25:12.815Z</time>
      </trkpt>
      <trkpt lat="45.55838" lon="3.56899">
        <ele>1115.282197</ele>
        <time>2023-08-25T06:25:15.798Z</time>
      </trkpt>
      <trkpt lat="45.55825" lon="3.56898">
        <ele>1115.578988</ele>
        <time>2023-08-25T06:25:18.798Z</time>
      </trkpt>
      <trkpt lat="45.55812" lon="3.56899">
        <ele>1115.875495</ele>
        <time>2023-08-25T06:25:21.818Z</time>
      </trkpt>
      <trkpt lat="45.558" lon="3.56899">
        <ele>1116.171843</ele>
        <time>2023-08-25T06:25:24.808Z</time>
      </trkpt>
      <trkpt lat="45.55787" lon="3.56903">
        <ele>1116.480699</ele>
        <time>2023-08-25T06:25:27.807Z</time>
      </trkpt>
      <trkpt lat="45.55774" lon="3.56905">
        <ele>1116.793253</ele>
        <time>2023-08-25T06:25:30.812Z</time>
      </trkpt>
      <trkpt lat="45.55763" lon="3.56907">
        <ele>1117.083994</ele>
        <time>2023-08-25T06:25:33.820Z</time>
      </trkpt>
      <trkpt lat="45.55752" lon="3.56909">
        <ele>1117.356931</ele>
        <time>2023-08-25T06:25:36.817Z</time>
      </trkpt>
      <trkpt lat="45.55742" lon="3.56913">
        <ele>1117.617856</ele>
        <time>2023-08-25T06:25:39.798Z</time>
      </trkpt>
      <trkpt lat="45.5573" lon="3.56917">
        <ele>1117.918326</ele>
        <time>2023-08-25T06:25:42.821Z</time>
      </trkpt>
      <trkpt lat="45.55721" lon="3.56919">
        <ele>1118.152256</ele>
        <time>2023-08-25T06:25:45.822Z</time>
      </trkpt>
      <trkpt lat="45.55711" lon="3.56921">
        <ele>1118.409689</ele>
        <time>2023-08-25T06:25:48.805Z</time>
      </trkpt>
      <trkpt lat="45.557" lon="3.56923">
        <ele>1118.701643</ele>
        <time>2023-08-25T06:25:51.806Z</time>
      </trkpt>
      <trkpt lat="45.55689" lon="3.56925">
        <ele>1118.969785</ele>
        <time>2023-08-25T06:25:54.816Z</time>
      </trkpt>
      <trkpt lat="45.55679" lon="3.56928">
        <ele>1119.226179</ele>
        <time>2023-08-25T06:25:57.823Z</time>
      </trkpt>
      <trkpt lat="45.55668" lon="3.56929">
        <ele>1119.510357</ele>
        <time>2023-08-25T06:26:01.815Z</time>
      </trkpt>
      <trkpt lat="45.55658" lon="3.56928">
        <ele>1119.766322</ele>
        <time>2023-08-25T06:26:04.810Z</time>
      </trkpt>
      <trkpt lat="45.55648" lon="3.56927">
        <ele>1120.020075</ele>
        <time>2023-08-25T06:26:07.817Z</time>
      </trkpt>
      <trkpt lat="45.55638" lon="3.56926">
        <ele>1120.266252</ele>
        <time>2023-08-25T06:26:10.798Z</time>
      </trkpt>
      <trkpt lat="45.55628" lon="3.56922">
        <ele>1120.547148</ele>
        <time>2023-08-25T06:26:13.803Z</time>
      </trkpt>
      <trkpt lat="45.55618" lon="3.56919">
        <ele>1120.791672</ele>
        <time>2023-08-25T06:26:16.789Z</time>
      </trkpt>
      <trkpt lat="45.55608" lon="3.56919">
        <ele>1121.042781</ele>
        <time>2023-08-25T06:26:19.818Z</time>
      </trkpt>
      <trkpt lat="45.55598" lon="3.56916">
        <ele>1121.191744</ele>
        <time>2023-08-25T06:26:22.822Z</time>
      </trkpt>
      <trkpt lat="45.55588" lon="3.56913">
        <ele>1121.288855</ele>
        <time>2023-08-25T06:26:25.805Z</time>
      </trkpt>
      <trkpt lat="45.55578" lon="3.56909">
        <ele>1121.387735</ele>
        <time>2023-08-25T06:26:28.805Z</time>
      </trkpt>
      <trkpt lat="45.55568" lon="3.56907">
        <ele>1121.483848</ele>
        <time>2023-08-25T06:26:31.810Z</time>
      </trkpt>
      <trkpt lat="45.55558" lon="3.56906">
        <ele>1121.581416</ele>
        <time>2023-08-25T06:26:34.813Z</time>
      </trkpt>
      <trkpt lat="45.55547" lon="3.56908">
        <ele>1121.683847</ele>
        <time>2023-08-25T06:26:37.819Z</time>
      </trkpt>
      <trkpt lat="45.55537" lon="3.56909">
        <ele>1121.779446</ele>
        <time>2023-08-25T06:26:40.807Z</time>
      </trkpt>
      <trkpt lat="45.55527" lon="3.56908">
        <ele>1121.869251</ele>
        <time>2023-08-25T06:26:43.821Z</time>
      </trkpt>
      <trkpt lat="45.55518" lon="3.56908">
        <ele>1121.958098</ele>
        <time>2023-08-25T06:26:46.823Z</time>
      </trkpt>
      <trkpt lat="45.55506" lon="3.56912">
        <ele>1122.068439</ele>
        <time>2023-08-25T06:26:49.822Z</time>
      </trkpt>
      <trkpt lat="45.55496" lon="3.56914">
        <ele>1122.171636</ele>
        <time>2023-08-25T06:26:52.809Z</time>
      </trkpt>
      <trkpt lat="45.55484" lon="3.56914">
        <ele>1122.284149</ele>
        <time>2023-08-25T06:26:55.812Z</time>
      </trkpt>
      <trkpt lat="45.55473" lon="3.56915">
        <ele>1122.387375</ele>
        <time>2023-08-25T06:26:57.813Z</time>
      </trkpt>
      <trkpt lat="45.55462" lon="3.56917">
        <ele>1122.487046</ele>
        <time>2023-08-25T06:26:59.824Z</time>
      </trkpt>
      <trkpt lat="45.55453" lon="3.56921">
        <ele>1122.580522</ele>
        <time>2023-08-25T06:27:01.812Z</time>
      </trkpt>
      <trkpt lat="45.55444" lon="3.56924">
        <ele>1122.669033</ele>
        <time>2023-08-25T06:27:03.830Z</time>
      </trkpt>
      <trkpt lat="45.55435" lon="3.56929">
        <ele>1122.760116</ele>
        <time>2023-08-25T06:27:05.815Z</time>
      </trkpt>
      <trkpt lat="45.55424" lon="3.56931">
        <ele>1122.813601</ele>
        <time>2023-08-25T06:27:07.829Z</time>
      </trkpt>
      <trkpt lat="45.55414" lon="3.56933">
        <ele>1122.78072</ele>
        <time>2023-08-25T06:27:09.820Z</time>
      </trkpt>
      <trkpt lat="45.55405" lon="3.56936">
        <ele>1122.75019</ele>
        <time>2023-08-25T06:27:11.834Z</time>
      </trkpt>
      <trkpt lat="45.55396" lon="3.5694">
        <ele>1122.720279</ele>
        <time>2023-08-25T06:27:13.816Z</time>
      </trkpt>
      <trkpt lat="45.55383" lon="3.56944">
        <ele>1122.678888</ele>
        <time>2023-08-25T06:27:16.807Z</time>
      </trkpt>
      <trkpt lat="45.55374" lon="3.56946">
        <ele>1122.648695</ele>
        <time>2023-08-25T06:27:18.788Z</time>
      </trkpt>
      <trkpt lat="45.55363" lon="3.56948">
        <ele>1122.614834</ele>
        <time>2023-08-25T06:27:21.781Z</time>
      </trkpt>
      <trkpt lat="45.55352" lon="3.5695">
        <ele>1122.577883</ele>
        <time>2023-08-25T06:27:24.823Z</time>
      </trkpt>
      <trkpt lat="45.55344" lon="3.56956">
        <ele>1122.547674</ele>
        <time>2023-08-25T06:27:26.808Z</time>
      </trkpt>
      <trkpt lat="45.55331" lon="3.56962">
        <ele>1122.506375</ele>
        <time>2023-08-25T06:27:29.795Z</time>
      </trkpt>
      <trkpt lat="45.55322" lon="3.5697">
        <ele>1122.471444</ele>
        <time>2023-08-25T06:27:31.796Z</time>
      </trkpt>
      <trkpt lat="45.55313" lon="3.56977">
        <ele>1122.439877</ele>
        <time>2023-08-25T06:27:33.816Z</time>
      </trkpt>
      <trkpt lat="45.55305" lon="3.56982">
        <ele>1122.411015</ele>
        <time>2023-08-25T06:27:35.832Z</time>
      </trkpt>
      <trkpt lat="45.55296" lon="3.56988">
        <ele>1122.379737</ele>
        <time>2023-08-25T06:27:37.818Z</time>
      </trkpt>
      <trkpt lat="45.55288" lon="3.56994">
        <ele>1122.349489</ele>
        <time>2023-08-25T06:27:39.822Z</time>
      </trkpt>
      <trkpt lat="45.55279" lon="3.57001">
        <ele>1122.318182</ele>
        <time>2023-08-25T06:27:41.803Z</time>
      </trkpt>
      <trkpt lat="45.5527" lon="3.57008">
        <ele>1122.285491</ele>
        <time>2023-08-25T06:27:43.817Z</time>
      </trkpt>
      <trkpt lat="45.55262" lon="3.57016">
        <ele>1122.252597</ele>
        <time>2023-08-25T06:27:45.810Z</time>
      </trkpt>
      <trkpt lat="45.55252" lon="3.57025">
        <ele>1122.007982</ele>
        <time>2023-08-25T06:27:47.835Z</time>
      </trkpt>
      <trkpt lat="45.55243" lon="3.57034">
        <ele>1121.73299</ele>
        <time>2023-08-25T06:27:49.827Z</time>
      </trkpt>
      <trkpt lat="45.55234" lon="3.57043">
        <ele>1121.476231</ele>
        <time>2023-08-25T06:27:51.823Z</time>
      </trkpt>
      <trkpt lat="45.55224" lon="3.5705">
        <ele>1121.215844</ele>
        <time>2023-08-25T06:27:53.805Z</time>
      </trkpt>
      <trkpt lat="45.55214" lon="3.57056">
        <ele>1120.954245</ele>
        <time>2023-08-25T06:27:55.819Z</time>
      </trkpt>
      <trkpt lat="45.55204" lon="3.57063">
        <ele>1120.696417</ele>
        <time>2023-08-25T06:27:57.797Z</time>
      </trkpt>
      <trkpt lat="45.55196" lon="3.57071">
        <ele>1120.449283</ele>
        <time>2023-08-25T06:27:59.808Z</time>
      </trkpt>
      <trkpt lat="45.55188" lon="3.57079">
        <ele>1120.221712</ele>
        <time>2023-08-25T06:28:01.814Z</time>
      </trkpt>
      <trkpt lat="45.55181" lon="3.57087">
        <ele>1120.002749</ele>
        <time>2023-08-25T06:28:03.820Z</time>
      </trkpt>
      <trkpt lat="45.55173" lon="3.57095">
        <ele>1119.780835</ele>
        <time>2023-08-25T06:28:05.821Z</time>
      </trkpt>
      <trkpt lat="45.55165" lon="3.57101">
        <ele>1119.5593</ele>
        <time>2023-08-25T06:28:07.817Z</time>
      </trkpt>
      <trkpt lat="45.55157" lon="3.57108">
        <ele>1119.342988</ele>
        <time>2023-08-25T06:28:09.833Z</time>
      </trkpt>
      <trkpt lat="45.55148" lon="3.57116">
        <ele>1119.09827</ele>
        <time>2023-08-25T06:28:11.821Z</time>
      </trkpt>
      <trkpt lat="45.55139" lon="3.57123">
        <ele>1118.843125</ele>
        <time>2023-08-25T06:28:13.825Z</time>
      </trkpt>
      <trkpt lat="45.5513" lon="3.5713">
        <ele>1118.604204</ele>
        <time>2023-08-25T06:28:15.831Z</time>
      </trkpt>
      <trkpt lat="45.55121" lon="3.57136">
        <ele>1118.369713</ele>
        <time>2023-08-25T06:28:17.820Z</time>
      </trkpt>
      <trkpt lat="45.55111" lon="3.57142">
        <ele>1118.108767</ele>
        <time>2023-08-25T06:28:19.819Z</time>
      </trkpt>
      <trkpt lat="45.55102" lon="3.57149">
        <ele>1118.069972</ele>
        <time>2023-08-25T06:28:21.819Z</time>
      </trkpt>
      <trkpt lat="45.55093" lon="3.5714">
        <ele>1118.30976</ele>
        <time>2023-08-25T06:28:25.818Z</time>
      </trkpt>
      <trkpt lat="45.5509" lon="3.57124">
        <ele>1118.57833</ele>
        <time>2023-08-25T06:28:29.792Z</time>
      </trkpt>
      <trkpt lat="45.55086" lon="3.57108">
        <ele>1118.838493</ele>
        <time>2023-08-25T06:28:32.815Z</time>
      </trkpt>
      <trkpt lat="45.55083" lon="3.57092">
        <ele>1119.104022</ele>
        <time>2023-08-25T06:28:35.817Z</time>
      </trkpt>
      <trkpt lat="45.55078" lon="3.57075">
        <ele>1119.399649</ele>
        <time>2023-08-25T06:28:38.788Z</time>
      </trkpt>
      <trkpt lat="45.55074" lon="3.57057">
        <ele>1119.698174</ele>
        <time>2023-08-25T06:28:41.820Z</time>
      </trkpt>
      <trkpt lat="45.5507" lon="3.57039">
        <ele>1119.993114</ele>
        <time>2023-08-25T06:28:44.820Z</time>
      </trkpt>
      <trkpt lat="45.55066" lon="3.57022">
        <ele>1120.288614</ele>
        <time>2023-08-25T06:28:47.794Z</time>
      </trkpt>
      <trkpt lat="45.55062" lon="3.5701">
        <ele>1120.498961</ele>
        <time>2023-08-25T06:28:49.815Z</time>
      </trkpt>
      <trkpt lat="45.55059" lon="3.56997">
        <ele>1120.714913</ele>
        <time>2023-08-25T06:28:51.812Z</time>
      </trkpt>
      <trkpt lat="45.55055" lon="3.56979">
        <ele>1121.018136</ele>
        <time>2023-08-25T06:28:54.828Z</time>
      </trkpt>
      <trkpt lat="45.55054" lon="3.56966">
        <ele>1121.224105</ele>
        <time>2023-08-25T06:28:56.821Z</time>
      </trkpt>
      <trkpt lat="45.5506" lon="3.56949">
        <ele>1121.514757</ele>
        <time>2023-08-25T06:28:59.816Z</time>
      </trkpt>
      <trkpt lat="45.55068" lon="3.56943">
        <ele>1121.730468</ele>
        <time>2023-08-25T06:29:02.824Z</time>
      </trkpt>
      <trkpt lat="45.55059" lon="3.56947">
        <ele>1121.938289</ele>
        <time>2023-08-25T06:29:13.814Z</time>
      </trkpt>
      <trkpt lat="45.55071" lon="3.56946">
        <ele>1122.421824</ele>
        <time>2023-08-25T06:29:20.810Z</time>
      </trkpt>
      <trkpt lat="45.55083" lon="3.56947">
        <ele>1123.207593</ele>
        <time>2023-08-25T06:29:23.827Z</time>
      </trkpt>
      <trkpt lat="45.55092" lon="3.56945">
        <ele>1123.771783</ele>
        <time>2023-08-25T06:29:25.787Z</time>
      </trkpt>
      <trkpt lat="45.551" lon="3.5694">
        <ele>1124.347314</ele>
        <time>2023-08-25T06:29:28.797Z</time>
      </trkpt>
      <trkpt lat="45.5511" lon="3.56937">
        <ele>1124.963082</ele>
        <time>2023-08-25T06:29:31.805Z</time>
      </trkpt>
      <trkpt lat="45.55121" lon="3.56935">
        <ele>1125.632869</ele>
        <time>2023-08-25T06:29:34.822Z</time>
      </trkpt>
      <trkpt lat="45.55133" lon="3.56936">
        <ele>1126.391801</ele>
        <time>2023-08-25T06:29:37.823Z</time>
      </trkpt>
      <trkpt lat="45.55142" lon="3.56934">
        <ele>1126.989727</ele>
        <time>2023-08-25T06:29:40.813Z</time>
      </trkpt>
      <trkpt lat="45.55152" lon="3.5693">
        <ele>1127.625253</ele>
        <time>2023-08-25T06:29:42.792Z</time>
      </trkpt>
      <trkpt lat="45.55161" lon="3.56922">
        <ele>1128.286189</ele>
        <time>2023-08-25T06:29:44.820Z</time>
      </trkpt>
      <trkpt lat="45.55169" lon="3.56912">
        <ele>1128.973874</ele>
        <time>2023-08-25T06:29:46.810Z</time>
      </trkpt>
      <trkpt lat="45.5518" lon="3.56902">
        <ele>1129.767368</ele>
        <time>2023-08-25T06:29:49.785Z</time>
      </trkpt>
      <trkpt lat="45.55189" lon="3.56895">
        <ele>1130.432023</ele>
        <time>2023-08-25T06:29:51.819Z</time>
      </trkpt>
      <trkpt lat="45.55198" lon="3.56888">
        <ele>1131.089089</ele>
        <time>2023-08-25T06:29:53.812Z</time>
      </trkpt>
      <trkpt lat="45.55205" lon="3.56878">
        <ele>1131.699092</ele>
        <time>2023-08-25T06:29:55.818Z</time>
      </trkpt>
      <trkpt lat="45.55213" lon="3.56868">
        <ele>1132.327399</ele>
        <time>2023-08-25T06:29:57.815Z</time>
      </trkpt>
      <trkpt lat="45.55219" lon="3.56859">
        <ele>1132.913196</ele>
        <time>2023-08-25T06:29:59.811Z</time>
      </trkpt>
      <trkpt lat="45.55227" lon="3.56849">
        <ele>1133.463876</ele>
        <time>2023-08-25T06:30:01.816Z</time>
      </trkpt>
      <trkpt lat="45.55234" lon="3.56841">
        <ele>1133.781388</ele>
        <time>2023-08-25T06:30:03.816Z</time>
      </trkpt>
      <trkpt lat="45.55241" lon="3.56832">
        <ele>1134.111529</ele>
        <time>2023-08-25T06:30:05.817Z</time>
      </trkpt>
      <trkpt lat="45.55249" lon="3.56823">
        <ele>1134.448511</ele>
        <time>2023-08-25T06:30:07.811Z</time>
      </trkpt>
      <trkpt lat="45.55256" lon="3.56814">
        <ele>1134.781692</ele>
        <time>2023-08-25T06:30:09.827Z</time>
      </trkpt>
      <trkpt lat="45.55264" lon="3.56806">
        <ele>1135.11289</ele>
        <time>2023-08-25T06:30:11.824Z</time>
      </trkpt>
      <trkpt lat="45.5527" lon="3.56796">
        <ele>1135.437141</ele>
        <time>2023-08-25T06:30:13.831Z</time>
      </trkpt>
      <trkpt lat="45.55276" lon="3.56786">
        <ele>1135.752741</ele>
        <time>2023-08-25T06:30:15.824Z</time>
      </trkpt>
      <trkpt lat="45.55283" lon="3.56769">
        <ele>1136.22613</ele>
        <time>2023-08-25T06:30:18.786Z</time>
      </trkpt>
      <trkpt lat="45.55288" lon="3.56751">
        <ele>1136.709647</ele>
        <time>2023-08-25T06:30:21.804Z</time>
      </trkpt>
      <trkpt lat="45.5529" lon="3.56736">
        <ele>1137.067458</ele>
        <time>2023-08-25T06:30:23.806Z</time>
      </trkpt>
      <trkpt lat="45.55293" lon="3.56718">
        <ele>1137.525367</ele>
        <time>2023-08-25T06:30:26.822Z</time>
      </trkpt>
      <trkpt lat="45.55297" lon="3.56699">
        <ele>1137.992703</ele>
        <time>2023-08-25T06:30:29.802Z</time>
      </trkpt>
      <trkpt lat="45.553" lon="3.56681">
        <ele>1138.458441</ele>
        <time>2023-08-25T06:30:32.833Z</time>
      </trkpt>
      <trkpt lat="45.55301" lon="3.56668">
        <ele>1138.777769</ele>
        <time>2023-08-25T06:30:34.821Z</time>
      </trkpt>
      <trkpt lat="45.55304" lon="3.56654">
        <ele>1139.117253</ele>
        <time>2023-08-25T06:30:36.821Z</time>
      </trkpt>
      <trkpt lat="45.55306" lon="3.56641">
        <ele>1139.445469</ele>
        <time>2023-08-25T06:30:38.793Z</time>
      </trkpt>
      <trkpt lat="45.55307" lon="3.56624">
        <ele>1139.368506</ele>
        <time>2023-08-25T06:30:41.818Z</time>
      </trkpt>
      <trkpt lat="45.55309" lon="3.56606">
        <ele>1139.036956</ele>
        <time>2023-08-25T06:30:44.824Z</time>
      </trkpt>
      <trkpt lat="45.55312" lon="3.56592">
        <ele>1138.787334</ele>
        <time>2023-08-25T06:30:46.824Z</time>
      </trkpt>
      <trkpt lat="45.55314" lon="3.56578">
        <ele>1138.535903</ele>
        <time>2023-08-25T06:30:48.813Z</time>
      </trkpt>
      <trkpt lat="45.55316" lon="3.56565">
        <ele>1138.298248</ele>
        <time>2023-08-25T06:30:50.801Z</time>
      </trkpt>
      <trkpt lat="45.55319" lon="3.56552">
        <ele>1138.052442</ele>
        <time>2023-08-25T06:30:52.829Z</time>
      </trkpt>
      <trkpt lat="45.55323" lon="3.56538">
        <ele>1137.792413</ele>
        <time>2023-08-25T06:30:54.827Z</time>
      </trkpt>
      <trkpt lat="45.55326" lon="3.56524">
        <ele>1137.539642</ele>
        <time>2023-08-25T06:30:56.820Z</time>
      </trkpt>
      <trkpt lat="45.55331" lon="3.56509">
        <ele>1137.251487</ele>
        <time>2023-08-25T06:30:59.828Z</time>
      </trkpt>
      <trkpt lat="45.55334" lon="3.56496">
        <ele>1137.0071</ele>
        <time>2023-08-25T06:31:02.827Z</time>
      </trkpt>
      <trkpt lat="45.55324" lon="3.56499">
        <ele>1136.745747</ele>
        <time>2023-08-25T06:31:06.821Z</time>
      </trkpt>
      <trkpt lat="45.55314" lon="3.56507">
        <ele>1136.473455</ele>
        <time>2023-08-25T06:31:09.830Z</time>
      </trkpt>
      <trkpt lat="45.55302" lon="3.56514">
        <ele>1136.14604</ele>
        <time>2023-08-25T06:31:12.822Z</time>
      </trkpt>
      <trkpt lat="45.55294" lon="3.56521">
        <ele>1135.906189</ele>
        <time>2023-08-25T06:31:14.815Z</time>
      </trkpt>
      <trkpt lat="45.55284" lon="3.56528">
        <ele>1135.63592</ele>
        <time>2023-08-25T06:31:16.828Z</time>
      </trkpt>
      <trkpt lat="45.55274" lon="3.56535">
        <ele>1135.346244</ele>
        <time>2023-08-25T06:31:18.816Z</time>
      </trkpt>
      <trkpt lat="45.55264" lon="3.56542">
        <ele>1135.068636</ele>
        <time>2023-08-25T06:31:20.835Z</time>
      </trkpt>
      <trkpt lat="45.55254" lon="3.56551">
        <ele>1134.445912</ele>
        <time>2023-08-25T06:31:22.832Z</time>
      </trkpt>
      <trkpt lat="45.55243" lon="3.56561">
        <ele>1133.71612</ele>
        <time>2023-08-25T06:31:24.826Z</time>
      </trkpt>
      <trkpt lat="45.5523" lon="3.5657">
        <ele>1132.862425</ele>
        <time>2023-08-25T06:31:26.800Z</time>
      </trkpt>
      <trkpt lat="45.55216" lon="3.56578">
        <ele>1132.035531</ele>
        <time>2023-08-25T06:31:28.812Z</time>
      </trkpt>
      <trkpt lat="45.55202" lon="3.56582">
        <ele>1131.248466</ele>
        <time>2023-08-25T06:31:30.828Z</time>
      </trkpt>
      <trkpt lat="45.55187" lon="3.56582">
        <ele>1130.407141</ele>
        <time>2023-08-25T06:31:32.790Z</time>
      </trkpt>
      <trkpt lat="45.55171" lon="3.56581">
        <ele>1129.543248</ele>
        <time>2023-08-25T06:31:34.822Z</time>
      </trkpt>
      <trkpt lat="45.55158" lon="3.56577">
        <ele>1128.764941</ele>
        <time>2023-08-25T06:31:36.828Z</time>
      </trkpt>
      <trkpt lat="45.55143" lon="3.56567">
        <ele>1127.872614</ele>
        <time>2023-08-25T06:31:38.803Z</time>
      </trkpt>
      <trkpt lat="45.55136" lon="3.56559">
        <ele>1127.360122</ele>
        <time>2023-08-25T06:31:39.821Z</time>
      </trkpt>
      <trkpt lat="45.55118" lon="3.56544">
        <ele>1126.231119</ele>
        <time>2023-08-25T06:31:41.829Z</time>
      </trkpt>
      <trkpt lat="45.55109" lon="3.56536">
        <ele>1125.608582</ele>
        <time>2023-08-25T06:31:42.821Z</time>
      </trkpt>
      <trkpt lat="45.55101" lon="3.56528">
        <ele>1125.055282</ele>
        <time>2023-08-25T06:31:43.837Z</time>
      </trkpt>
      <trkpt lat="45.55093" lon="3.5652">
        <ele>1124.521429</ele>
        <time>2023-08-25T06:31:44.835Z</time>
      </trkpt>
      <trkpt lat="45.55085" lon="3.56513">
        <ele>1124.006945</ele>
        <time>2023-08-25T06:31:45.821Z</time>
      </trkpt>
      <trkpt lat="45.55076" lon="3.56507">
        <ele>1123.485498</ele>
        <time>2023-08-25T06:31:46.827Z</time>
      </trkpt>
      <trkpt lat="45.55059" lon="3.56503">
        <ele>1122.512012</ele>
        <time>2023-08-25T06:31:48.808Z</time>
      </trkpt>
      <trkpt lat="45.55042" lon="3.56504">
        <ele>1121.565459</ele>
        <time>2023-08-25T06:31:50.836Z</time>
      </trkpt>
      <trkpt lat="45.55033" lon="3.56504">
        <ele>1121.050691</ele>
        <time>2023-08-25T06:31:51.826Z</time>
      </trkpt>
      <trkpt lat="45.55016" lon="3.56505">
        <ele>1120.120735</ele>
        <time>2023-08-25T06:31:53.840Z</time>
      </trkpt>
      <trkpt lat="45.54998" lon="3.56505">
        <ele>1119.146729</ele>
        <time>2023-08-25T06:31:55.823Z</time>
      </trkpt>
      <trkpt lat="45.54988" lon="3.56506">
        <ele>1118.587339</ele>
        <time>2023-08-25T06:31:56.831Z</time>
      </trkpt>
      <trkpt lat="45.54979" lon="3.56507">
        <ele>1118.066001</ele>
        <time>2023-08-25T06:31:57.823Z</time>
      </trkpt>
      <trkpt lat="45.5497" lon="3.56509">
        <ele>1117.557078</ele>
        <time>2023-08-25T06:31:58.810Z</time>
      </trkpt>
      <trkpt lat="45.54961" lon="3.56511">
        <ele>1117.057898</ele>
        <time>2023-08-25T06:31:59.820Z</time>
      </trkpt>
      <trkpt lat="45.5494" lon="3.56516">
        <ele>1115.880444</ele>
        <time>2023-08-25T06:32:01.831Z</time>
      </trkpt>
      <trkpt lat="45.5493" lon="3.5652">
        <ele>1115.322801</ele>
        <time>2023-08-25T06:32:02.826Z</time>
      </trkpt>
      <trkpt lat="45.5492" lon="3.56525">
        <ele>1114.960138</ele>
        <time>2023-08-25T06:32:03.833Z</time>
      </trkpt>
      <trkpt lat="45.54904" lon="3.56537">
        <ele>1114.627322</ele>
        <time>2023-08-25T06:32:05.823Z</time>
      </trkpt>
      <trkpt lat="45.54896" lon="3.56544">
        <ele>1114.450669</ele>
        <time>2023-08-25T06:32:06.827Z</time>
      </trkpt>
      <trkpt lat="45.54888" lon="3.56552">
        <ele>1114.266291</ele>
        <time>2023-08-25T06:32:07.825Z</time>
      </trkpt>
      <trkpt lat="45.54874" lon="3.56566">
        <ele>1113.943391</ele>
        <time>2023-08-25T06:32:09.823Z</time>
      </trkpt>
      <trkpt lat="45.54859" lon="3.56575">
        <ele>1113.643177</ele>
        <time>2023-08-25T06:32:11.821Z</time>
      </trkpt>
      <trkpt lat="45.54844" lon="3.56577">
        <ele>1113.353004</ele>
        <time>2023-08-25T06:32:13.826Z</time>
      </trkpt>
      <trkpt lat="45.54829" lon="3.56578">
        <ele>1113.074752</ele>
        <time>2023-08-25T06:32:15.816Z</time>
      </trkpt>
      <trkpt lat="45.54815" lon="3.56578">
        <ele>1112.807519</ele>
        <time>2023-08-25T06:32:17.826Z</time>
      </trkpt>
      <trkpt lat="45.54799" lon="3.56582">
        <ele>1112.507496</ele>
        <time>2023-08-25T06:32:19.822Z</time>
      </trkpt>
      <trkpt lat="45.54786" lon="3.56583">
        <ele>1112.247297</ele>
        <time>2023-08-25T06:32:21.825Z</time>
      </trkpt>
      <trkpt lat="45.54771" lon="3.56582">
        <ele>1111.979779</ele>
        <time>2023-08-25T06:32:23.806Z</time>
      </trkpt>
      <trkpt lat="45.54756" lon="3.56578">
        <ele>1111.686362</ele>
        <time>2023-08-25T06:32:25.821Z</time>
      </trkpt>
      <trkpt lat="45.54741" lon="3.56574">
        <ele>1111.196201</ele>
        <time>2023-08-25T06:32:27.825Z</time>
      </trkpt>
      <trkpt lat="45.54726" lon="3.5657">
        <ele>1110.749718</ele>
        <time>2023-08-25T06:32:29.823Z</time>
      </trkpt>
      <trkpt lat="45.5471" lon="3.56567">
        <ele>1110.234977</ele>
        <time>2023-08-25T06:32:31.821Z</time>
      </trkpt>
      <trkpt lat="45.54696" lon="3.56564">
        <ele>1109.792068</ele>
        <time>2023-08-25T06:32:33.825Z</time>
      </trkpt>
      <trkpt lat="45.54679" lon="3.56561">
        <ele>1109.27902</ele>
        <time>2023-08-25T06:32:35.819Z</time>
      </trkpt>
      <trkpt lat="45.5467" lon="3.5656">
        <ele>1108.990495</ele>
        <time>2023-08-25T06:32:36.831Z</time>
      </trkpt>
      <trkpt lat="45.54661" lon="3.56558">
        <ele>1108.71123</ele>
        <time>2023-08-25T06:32:37.812Z</time>
      </trkpt>
      <trkpt lat="45.54644" lon="3.56551">
        <ele>1108.176206</ele>
        <time>2023-08-25T06:32:39.823Z</time>
      </trkpt>
      <trkpt lat="45.5463" lon="3.56542">
        <ele>1107.691923</ele>
        <time>2023-08-25T06:32:41.834Z</time>
      </trkpt>
      <trkpt lat="45.54615" lon="3.56532">
        <ele>1107.198428</ele>
        <time>2023-08-25T06:32:43.831Z</time>
      </trkpt>
      <trkpt lat="45.546" lon="3.56521">
        <ele>1106.671443</ele>
        <time>2023-08-25T06:32:45.824Z</time>
      </trkpt>
      <trkpt lat="45.54592" lon="3.56515">
        <ele>1106.393028</ele>
        <time>2023-08-25T06:32:46.821Z</time>
      </trkpt>
      <trkpt lat="45.54585" lon="3.56507">
        <ele>1106.064248</ele>
        <time>2023-08-25T06:32:47.823Z</time>
      </trkpt>
      <trkpt lat="45.54577" lon="3.565">
        <ele>1105.502327</ele>
        <time>2023-08-25T06:32:48.815Z</time>
      </trkpt>
      <trkpt lat="45.54568" lon="3.56493">
        <ele>1104.920815</ele>
        <time>2023-08-25T06:32:49.823Z</time>
      </trkpt>
      <trkpt lat="45.54559" lon="3.56486">
        <ele>1104.318537</ele>
        <time>2023-08-25T06:32:50.824Z</time>
      </trkpt>
      <trkpt lat="45.54551" lon="3.56481">
        <ele>1103.758508</ele>
        <time>2023-08-25T06:32:51.833Z</time>
      </trkpt>
      <trkpt lat="45.54534" lon="3.56473">
        <ele>1102.696932</ele>
        <time>2023-08-25T06:32:53.820Z</time>
      </trkpt>
      <trkpt lat="45.54525" lon="3.56469">
        <ele>1102.126173</ele>
        <time>2023-08-25T06:32:54.828Z</time>
      </trkpt>
      <trkpt lat="45.5451" lon="3.56464">
        <ele>1101.21294</ele>
        <time>2023-08-25T06:32:56.836Z</time>
      </trkpt>
      <trkpt lat="45.54495" lon="3.56462">
        <ele>1100.321518</ele>
        <time>2023-08-25T06:32:58.793Z</time>
      </trkpt>
      <trkpt lat="45.54486" lon="3.56465">
        <ele>1099.751288</ele>
        <time>2023-08-25T06:32:59.802Z</time>
      </trkpt>
      <trkpt lat="45.54477" lon="3.56469">
        <ele>1099.199807</ele>
        <time>2023-08-25T06:33:00.833Z</time>
      </trkpt>
      <trkpt lat="45.54462" lon="3.56478">
        <ele>1098.208446</ele>
        <time>2023-08-25T06:33:02.837Z</time>
      </trkpt>
      <trkpt lat="45.54447" lon="3.56488">
        <ele>1097.218064</ele>
        <time>2023-08-25T06:33:04.815Z</time>
      </trkpt>
      <trkpt lat="45.54439" lon="3.56494">
        <ele>1096.678814</ele>
        <time>2023-08-25T06:33:05.821Z</time>
      </trkpt>
      <trkpt lat="45.54423" lon="3.56505">
        <ele>1095.650543</ele>
        <time>2023-08-25T06:33:07.827Z</time>
      </trkpt>
      <trkpt lat="45.54409" lon="3.56514">
        <ele>1095.331713</ele>
        <time>2023-08-25T06:33:09.829Z</time>
      </trkpt>
      <trkpt lat="45.54394" lon="3.56523">
        <ele>1095.237051</ele>
        <time>2023-08-25T06:33:11.808Z</time>
      </trkpt>
      <trkpt lat="45.54381" lon="3.5653">
        <ele>1095.149925</ele>
        <time>2023-08-25T06:33:13.829Z</time>
      </trkpt>
      <trkpt lat="45.54367" lon="3.56539">
        <ele>1095.061583</ele>
        <time>2023-08-25T06:33:15.828Z</time>
      </trkpt>
      <trkpt lat="45.54355" lon="3.56548">
        <ele>1094.976753</ele>
        <time>2023-08-25T06:33:17.820Z</time>
      </trkpt>
      <trkpt lat="45.54342" lon="3.56557">
        <ele>1094.890649</ele>
        <time>2023-08-25T06:33:19.822Z</time>
      </trkpt>
      <trkpt lat="45.54329" lon="3.56566">
        <ele>1094.801569</ele>
        <time>2023-08-25T06:33:21.816Z</time>
      </trkpt>
      <trkpt lat="45.54316" lon="3.56575">
        <ele>1094.715655</ele>
        <time>2023-08-25T06:33:23.811Z</time>
      </trkpt>
      <trkpt lat="45.54301" lon="3.56585">
        <ele>1094.614613</ele>
        <time>2023-08-25T06:33:25.822Z</time>
      </trkpt>
      <trkpt lat="45.54286" lon="3.56596">
        <ele>1094.513508</ele>
        <time>2023-08-25T06:33:27.824Z</time>
      </trkpt>
      <trkpt lat="45.54272" lon="3.56607">
        <ele>1094.412468</ele>
        <time>2023-08-25T06:33:29.828Z</time>
      </trkpt>
      <trkpt lat="45.54263" lon="3.56615">
        <ele>1094.351404</ele>
        <time>2023-08-25T06:33:31.827Z</time>
      </trkpt>
      <trkpt lat="45.54255" lon="3.56622">
        <ele>1094.547705</ele>
        <time>2023-08-25T06:33:34.813Z</time>
      </trkpt>
      <trkpt lat="45.54245" lon="3.5663">
        <ele>1095.480734</ele>
        <time>2023-08-25T06:33:38.822Z</time>
      </trkpt>
      <trkpt lat="45.54234" lon="3.56639">
        <ele>1096.431925</ele>
        <time>2023-08-25T06:33:41.821Z</time>
      </trkpt>
      <trkpt lat="45.54224" lon="3.56648">
        <ele>1097.334218</ele>
        <time>2023-08-25T06:33:44.824Z</time>
      </trkpt>
      <trkpt lat="45.54215" lon="3.56658">
        <ele>1098.20188</ele>
        <time>2023-08-25T06:33:47.821Z</time>
      </trkpt>
      <trkpt lat="45.54208" lon="3.5667">
        <ele>1099.070033</ele>
        <time>2023-08-25T06:33:50.826Z</time>
      </trkpt>
      <trkpt lat="45.54199" lon="3.56682">
        <ele>1099.997243</ele>
        <time>2023-08-25T06:33:53.781Z</time>
      </trkpt>
      <trkpt lat="45.54192" lon="3.56695">
        <ele>1100.935018</ele>
        <time>2023-08-25T06:33:56.825Z</time>
      </trkpt>
      <trkpt lat="45.54183" lon="3.56707">
        <ele>1101.867716</ele>
        <time>2023-08-25T06:33:59.818Z</time>
      </trkpt>
      <trkpt lat="45.54172" lon="3.56713">
        <ele>1102.764427</ele>
        <time>2023-08-25T06:34:02.791Z</time>
      </trkpt>
      <trkpt lat="45.54163" lon="3.56708">
        <ele>1103.527779</ele>
        <time>2023-08-25T06:34:05.818Z</time>
      </trkpt>
      <trkpt lat="45.54158" lon="3.56696">
        <ele>1104.242813</ele>
        <time>2023-08-25T06:34:09.827Z</time>
      </trkpt>
      <trkpt lat="45.54156" lon="3.56683">
        <ele>1104.970401</ele>
        <time>2023-08-25T06:34:14.821Z</time>
      </trkpt>
      <trkpt lat="45.54153" lon="3.56671">
        <ele>1105.69555</ele>
        <time>2023-08-25T06:34:18.791Z</time>
      </trkpt>
      <trkpt lat="45.54156" lon="3.56658">
        <ele>1106.397721</ele>
        <time>2023-08-25T06:34:22.810Z</time>
      </trkpt>
      <trkpt lat="45.54161" lon="3.56647">
        <ele>1107.117385</ele>
        <time>2023-08-25T06:34:26.810Z</time>
      </trkpt>
      <trkpt lat="45.54166" lon="3.56632">
        <ele>1107.983554</ele>
        <time>2023-08-25T06:34:30.823Z</time>
      </trkpt>
      <trkpt lat="45.5417" lon="3.56618">
        <ele>1108.885769</ele>
        <time>2023-08-25T06:34:34.812Z</time>
      </trkpt>
      <trkpt lat="45.54173" lon="3.56605">
        <ele>1109.677606</ele>
        <time>2023-08-25T06:34:38.804Z</time>
      </trkpt>
      <trkpt lat="45.54177" lon="3.56592">
        <ele>1110.506635</ele>
        <time>2023-08-25T06:34:42.811Z</time>
      </trkpt>
      <trkpt lat="45.54181" lon="3.56577">
        <ele>1111.482427</ele>
        <time>2023-08-25T06:34:46.828Z</time>
      </trkpt>
      <trkpt lat="45.54184" lon="3.56563">
        <ele>1112.347488</ele>
        <time>2023-08-25T06:34:49.790Z</time>
      </trkpt>
      <trkpt lat="45.54188" lon="3.5655">
        <ele>1113.172732</ele>
        <time>2023-08-25T06:34:53.823Z</time>
      </trkpt>
      <trkpt lat="45.5419" lon="3.56536">
        <ele>1114.012788</ele>
        <time>2023-08-25T06:34:57.827Z</time>
      </trkpt>
      <trkpt lat="45.54193" lon="3.56519">
        <ele>1115.029265</ele>
        <time>2023-08-25T06:35:01.830Z</time>
      </trkpt>
      <trkpt lat="45.54195" lon="3.56505">
        <ele>1115.895122</ele>
        <time>2023-08-25T06:35:05.809Z</time>
      </trkpt>
      <trkpt lat="45.54197" lon="3.56492">
        <ele>1116.673508</ele>
        <time>2023-08-25T06:35:08.800Z</time>
      </trkpt>
      <trkpt lat="45.54198" lon="3.56479">
        <ele>1117.45627</ele>
        <time>2023-08-25T06:35:12.823Z</time>
      </trkpt>
      <trkpt lat="45.54199" lon="3.56465">
        <ele>1118.277826</ele>
        <time>2023-08-25T06:35:16.815Z</time>
      </trkpt>
      <trkpt lat="45.54199" lon="3.56452">
        <ele>1119.058085</ele>
        <time>2023-08-25T06:35:19.806Z</time>
      </trkpt>
      <trkpt lat="45.54199" lon="3.56437">
        <ele>1119.956092</ele>
        <time>2023-08-25T06:35:24.828Z</time>
      </trkpt>
      <trkpt lat="45.54198" lon="3.56424">
        <ele>1120.715314</ele>
        <time>2023-08-25T06:35:28.810Z</time>
      </trkpt>
      <trkpt lat="45.54196" lon="3.5641">
        <ele>1121.553376</ele>
        <time>2023-08-25T06:35:32.842Z</time>
      </trkpt>
      <trkpt lat="45.54195" lon="3.56395">
        <ele>1122.464973</ele>
        <time>2023-08-25T06:35:37.823Z</time>
      </trkpt>
      <trkpt lat="45.54192" lon="3.5638">
        <ele>1123.375911</ele>
        <time>2023-08-25T06:35:42.827Z</time>
      </trkpt>
      <trkpt lat="45.54191" lon="3.56367">
        <ele>1123.487019</ele>
        <time>2023-08-25T06:35:46.822Z</time>
      </trkpt>
      <trkpt lat="45.54189" lon="3.56352">
        <ele>1123.60959</ele>
        <time>2023-08-25T06:35:50.821Z</time>
      </trkpt>
      <trkpt lat="45.54188" lon="3.56337">
        <ele>1123.729997</ele>
        <time>2023-08-25T06:35:55.830Z</time>
      </trkpt>
      <trkpt lat="45.54185" lon="3.56322">
        <ele>1123.85581</ele>
        <time>2023-08-25T06:36:00.815Z</time>
      </trkpt>
      <trkpt lat="45.54181" lon="3.56309">
        <ele>1123.977712</ele>
        <time>2023-08-25T06:36:04.792Z</time>
      </trkpt>
      <trkpt lat="45.54176" lon="3.56295">
        <ele>1124.104393</ele>
        <time>2023-08-25T06:36:08.814Z</time>
      </trkpt>
      <trkpt lat="45.54172" lon="3.56284">
        <ele>1124.209896</ele>
        <time>2023-08-25T06:36:11.830Z</time>
      </trkpt>
      <trkpt lat="45.54169" lon="3.5627">
        <ele>1124.324337</ele>
        <time>2023-08-25T06:36:14.820Z</time>
      </trkpt>
      <trkpt lat="45.54163" lon="3.56258">
        <ele>1124.450681</ele>
        <time>2023-08-25T06:36:17.826Z</time>
      </trkpt>
      <trkpt lat="45.54156" lon="3.56244">
        <ele>1124.588385</ele>
        <time>2023-08-25T06:36:20.823Z</time>
      </trkpt>
      <trkpt lat="45.54153" lon="3.56227">
        <ele>1124.726404</ele>
        <time>2023-08-25T06:36:23.830Z</time>
      </trkpt>
      <trkpt lat="45.54151" lon="3.5621">
        <ele>1124.872889</ele>
        <time>2023-08-25T06:36:26.838Z</time>
      </trkpt>
      <trkpt lat="45.54148" lon="3.56197">
        <ele>1124.978423</ele>
        <time>2023-08-25T06:36:28.787Z</time>
      </trkpt>
      <trkpt lat="45.54143" lon="3.5618">
        <ele>1125.136903</ele>
        <time>2023-08-25T06:36:31.824Z</time>
      </trkpt>
      <trkpt lat="45.54139" lon="3.56167">
        <ele>1125.250648</ele>
        <time>2023-08-25T06:36:33.818Z</time>
      </trkpt>
      <trkpt lat="45.54135" lon="3.56154">
        <ele>1125.361687</ele>
        <time>2023-08-25T06:36:35.833Z</time>
      </trkpt>
      <trkpt lat="45.54132" lon="3.56141">
        <ele>1125.475251</ele>
        <time>2023-08-25T06:36:37.829Z</time>
      </trkpt>
      <trkpt lat="45.54129" lon="3.56126">
        <ele>1125.50241</ele>
        <time>2023-08-25T06:36:39.830Z</time>
      </trkpt>
      <trkpt lat="45.54126" lon="3.56111">
        <ele>1125.53028</ele>
        <time>2023-08-25T06:36:41.828Z</time>
      </trkpt>
      <trkpt lat="45.54123" lon="3.56095">
        <ele>1125.559053</ele>
        <time>2023-08-25T06:36:43.837Z</time>
      </trkpt>
      <trkpt lat="45.5412" lon="3.56079">
        <ele>1125.58934</ele>
        <time>2023-08-25T06:36:45.821Z</time>
      </trkpt>
      <trkpt lat="45.54116" lon="3.56063">
        <ele>1125.620095</ele>
        <time>2023-08-25T06:36:47.788Z</time>
      </trkpt>
      <trkpt lat="45.54113" lon="3.56046">
        <ele>1125.65124</ele>
        <time>2023-08-25T06:36:49.826Z</time>
      </trkpt>
      <trkpt lat="45.5411" lon="3.56029">
        <ele>1125.681432</ele>
        <time>2023-08-25T06:36:51.835Z</time>
      </trkpt>
      <trkpt lat="45.54107" lon="3.56014">
        <ele>1125.710653</ele>
        <time>2023-08-25T06:36:53.830Z</time>
      </trkpt>
      <trkpt lat="45.54104" lon="3.55998">
        <ele>1125.740233</ele>
        <time>2023-08-25T06:36:55.832Z</time>
      </trkpt>
      <trkpt lat="45.541" lon="3.55983">
        <ele>1125.768885</ele>
        <time>2023-08-25T06:36:57.826Z</time>
      </trkpt>
      <trkpt lat="45.54098" lon="3.55968">
        <ele>1125.795713</ele>
        <time>2023-08-25T06:36:59.835Z</time>
      </trkpt>
      <trkpt lat="45.54096" lon="3.55953">
        <ele>1125.822794</ele>
        <time>2023-08-25T06:37:01.832Z</time>
      </trkpt>
      <trkpt lat="45.54094" lon="3.55939">
        <ele>1125.849036</ele>
        <time>2023-08-25T06:37:03.829Z</time>
      </trkpt>
      <trkpt lat="45.54094" lon="3.5592">
        <ele>1125.882618</ele>
        <time>2023-08-25T06:37:06.830Z</time>
      </trkpt>
      <trkpt lat="45.54095" lon="3.55901">
        <ele>1125.9167</ele>
        <time>2023-08-25T06:37:09.827Z</time>
      </trkpt>
      <trkpt lat="45.54097" lon="3.55886">
        <ele>1125.954973</ele>
        <time>2023-08-25T06:37:11.819Z</time>
      </trkpt>
      <trkpt lat="45.54099" lon="3.55871">
        <ele>1126.017987</ele>
        <time>2023-08-25T06:37:13.834Z</time>
      </trkpt>
      <trkpt lat="45.54101" lon="3.55856">
        <ele>1126.076086</ele>
        <time>2023-08-25T06:37:15.829Z</time>
      </trkpt>
      <trkpt lat="45.54103" lon="3.55841">
        <ele>1126.136763</ele>
        <time>2023-08-25T06:37:17.833Z</time>
      </trkpt>
      <trkpt lat="45.54104" lon="3.55827">
        <ele>1126.191261</ele>
        <time>2023-08-25T06:37:19.826Z</time>
      </trkpt>
      <trkpt lat="45.54105" lon="3.55814">
        <ele>1126.245838</ele>
        <time>2023-08-25T06:37:21.822Z</time>
      </trkpt>
      <trkpt lat="45.54107" lon="3.558">
        <ele>1126.301665</ele>
        <time>2023-08-25T06:37:23.818Z</time>
      </trkpt>
      <trkpt lat="45.54109" lon="3.55782">
        <ele>1126.371235</ele>
        <time>2023-08-25T06:37:26.831Z</time>
      </trkpt>
      <trkpt lat="45.5411" lon="3.55764">
        <ele>1126.442271</ele>
        <time>2023-08-25T06:37:29.820Z</time>
      </trkpt>
      <trkpt lat="45.5411" lon="3.55745">
        <ele>1126.517244</ele>
        <time>2023-08-25T06:37:32.828Z</time>
      </trkpt>
      <trkpt lat="45.54116" lon="3.55729">
        <ele>1126.589277</ele>
        <time>2023-08-25T06:37:35.828Z</time>
      </trkpt>
      <trkpt lat="45.54122" lon="3.55714">
        <ele>1126.656292</ele>
        <time>2023-08-25T06:37:38.813Z</time>
      </trkpt>
      <trkpt lat="45.54128" lon="3.55704">
        <ele>1126.707306</ele>
        <time>2023-08-25T06:37:40.835Z</time>
      </trkpt>
      <trkpt lat="45.54135" lon="3.55696">
        <ele>1126.762327</ele>
        <time>2023-08-25T06:37:42.833Z</time>
      </trkpt>
      <trkpt lat="45.54144" lon="3.5569">
        <ele>1126.81519</ele>
        <time>2023-08-25T06:37:44.832Z</time>
      </trkpt>
      <trkpt lat="45.54154" lon="3.55681">
        <ele>1126.879872</ele>
        <time>2023-08-25T06:37:47.816Z</time>
      </trkpt>
      <trkpt lat="45.54163" lon="3.5567">
        <ele>1126.94475</ele>
        <time>2023-08-25T06:37:50.826Z</time>
      </trkpt>
      <trkpt lat="45.54171" lon="3.55658">
        <ele>1126.857928</ele>
        <time>2023-08-25T06:37:53.822Z</time>
      </trkpt>
      <trkpt lat="45.54178" lon="3.5565">
        <ele>1126.79211</ele>
        <time>2023-08-25T06:37:55.808Z</time>
      </trkpt>
      <trkpt lat="45.54189" lon="3.5564">
        <ele>1126.699606</ele>
        <time>2023-08-25T06:37:58.807Z</time>
      </trkpt>
      <trkpt lat="45.54196" lon="3.55631">
        <ele>1126.632004</ele>
        <time>2023-08-25T06:38:00.826Z</time>
      </trkpt>
      <trkpt lat="45.54204" lon="3.55621">
        <ele>1126.553401</ele>
        <time>2023-08-25T06:38:02.826Z</time>
      </trkpt>
      <trkpt lat="45.54214" lon="3.55612">
        <ele>1126.468959</ele>
        <time>2023-08-25T06:38:04.827Z</time>
      </trkpt>
      <trkpt lat="45.54226" lon="3.55608">
        <ele>1126.377939</ele>
        <time>2023-08-25T06:38:06.820Z</time>
      </trkpt>
      <trkpt lat="45.5424" lon="3.55605">
        <ele>1126.275341</ele>
        <time>2023-08-25T06:38:08.814Z</time>
      </trkpt>
      <trkpt lat="45.54253" lon="3.55605">
        <ele>1126.180583</ele>
        <time>2023-08-25T06:38:10.843Z</time>
      </trkpt>
      <trkpt lat="45.54265" lon="3.55607">
        <ele>1126.094125</ele>
        <time>2023-08-25T06:38:12.824Z</time>
      </trkpt>
      <trkpt lat="45.54276" lon="3.5561">
        <ele>1126.014103</ele>
        <time>2023-08-25T06:38:14.834Z</time>
      </trkpt>
      <trkpt lat="45.54286" lon="3.55612">
        <ele>1125.942344</ele>
        <time>2023-08-25T06:38:16.823Z</time>
      </trkpt>
      <trkpt lat="45.54296" lon="3.55613">
        <ele>1125.869866</ele>
        <time>2023-08-25T06:38:18.797Z</time>
      </trkpt>
      <trkpt lat="45.54306" lon="3.55615">
        <ele>1125.795964</ele>
        <time>2023-08-25T06:38:20.838Z</time>
      </trkpt>
      <trkpt lat="45.54316" lon="3.55617">
        <ele>1125.724665</ele>
        <time>2023-08-25T06:38:22.835Z</time>
      </trkpt>
      <trkpt lat="45.54326" lon="3.55621">
        <ele>1125.645148</ele>
        <time>2023-08-25T06:38:24.827Z</time>
      </trkpt>
      <trkpt lat="45.54338" lon="3.55624">
        <ele>1126.176825</ele>
        <time>2023-08-25T06:38:26.834Z</time>
      </trkpt>
      <trkpt lat="45.54349" lon="3.55631">
        <ele>1126.671996</ele>
        <time>2023-08-25T06:38:28.817Z</time>
      </trkpt>
      <trkpt lat="45.54356" lon="3.5564">
        <ele>1127.116395</ele>
        <time>2023-08-25T06:38:30.824Z</time>
      </trkpt>
      <trkpt lat="45.54366" lon="3.55647">
        <ele>1127.573057</ele>
        <time>2023-08-25T06:38:32.845Z</time>
      </trkpt>
      <trkpt lat="45.54375" lon="3.55652">
        <ele>1128.000718</ele>
        <time>2023-08-25T06:38:34.832Z</time>
      </trkpt>
      <trkpt lat="45.54384" lon="3.55659">
        <ele>1128.441699</ele>
        <time>2023-08-25T06:38:36.826Z</time>
      </trkpt>
      <trkpt lat="45.54393" lon="3.55665">
        <ele>1128.889117</ele>
        <time>2023-08-25T06:38:38.790Z</time>
      </trkpt>
      <trkpt lat="45.54401" lon="3.55672">
        <ele>1129.307773</ele>
        <time>2023-08-25T06:38:40.840Z</time>
      </trkpt>
      <trkpt lat="45.5441" lon="3.55679">
        <ele>1129.756243</ele>
        <time>2023-08-25T06:38:42.835Z</time>
      </trkpt>
      <trkpt lat="45.54419" lon="3.55687">
        <ele>1130.227769</ele>
        <time>2023-08-25T06:38:44.826Z</time>
      </trkpt>
      <trkpt lat="45.54427" lon="3.55695">
        <ele>1130.650106</ele>
        <time>2023-08-25T06:38:46.828Z</time>
      </trkpt>
      <trkpt lat="45.54434" lon="3.55703">
        <ele>1131.052877</ele>
        <time>2023-08-25T06:38:48.813Z</time>
      </trkpt>
      <trkpt lat="45.54446" lon="3.55712">
        <ele>1131.635424</ele>
        <time>2023-08-25T06:38:51.830Z</time>
      </trkpt>
      <trkpt lat="45.54454" lon="3.55717">
        <ele>1132.045705</ele>
        <time>2023-08-25T06:38:53.814Z</time>
      </trkpt>
      <trkpt lat="45.54463" lon="3.55723">
        <ele>1132.485469</ele>
        <time>2023-08-25T06:38:55.829Z</time>
      </trkpt>
      <trkpt lat="45.54474" lon="3.55728">
        <ele>1132.963834</ele>
        <time>2023-08-25T06:38:57.833Z</time>
      </trkpt>
      <trkpt lat="45.54485" lon="3.55734">
        <ele>1133.477345</ele>
        <time>2023-08-25T06:38:59.823Z</time>
      </trkpt>
      <trkpt lat="45.54495" lon="3.55738">
        <ele>1133.666984</ele>
        <time>2023-08-25T06:39:01.830Z</time>
      </trkpt>
      <trkpt lat="45.54505" lon="3.55746">
        <ele>1133.802891</ele>
        <time>2023-08-25T06:39:03.846Z</time>
      </trkpt>
      <trkpt lat="45.54516" lon="3.55756">
        <ele>1133.953464</ele>
        <time>2023-08-25T06:39:05.832Z</time>
      </trkpt>
      <trkpt lat="45.54526" lon="3.55767">
        <ele>1134.1148</ele>
        <time>2023-08-25T06:39:07.833Z</time>
      </trkpt>
      <trkpt lat="45.54536" lon="3.55779">
        <ele>1134.270664</ele>
        <time>2023-08-25T06:39:09.830Z</time>
      </trkpt>
      <trkpt lat="45.54546" lon="3.55787">
        <ele>1134.413987</ele>
        <time>2023-08-25T06:39:11.827Z</time>
      </trkpt>
      <trkpt lat="45.54556" lon="3.55792">
        <ele>1134.537929</ele>
        <time>2023-08-25T06:39:13.821Z</time>
      </trkpt>
      <trkpt lat="45.54567" lon="3.55799">
        <ele>1134.682703</ele>
        <time>2023-08-25T06:39:15.821Z</time>
      </trkpt>
      <trkpt lat="45.54579" lon="3.55804">
        <ele>1134.834364</ele>
        <time>2023-08-25T06:39:17.829Z</time>
      </trkpt>
      <trkpt lat="45.54593" lon="3.55807">
        <ele>1135.002522</ele>
        <time>2023-08-25T06:39:19.854Z</time>
      </trkpt>
      <trkpt lat="45.54605" lon="3.55811">
        <ele>1135.155521</ele>
        <time>2023-08-25T06:39:21.843Z</time>
      </trkpt>
      <trkpt lat="45.54618" lon="3.55816">
        <ele>1135.316724</ele>
        <time>2023-08-25T06:39:23.828Z</time>
      </trkpt>
      <trkpt lat="45.54629" lon="3.55822">
        <ele>1135.457101</ele>
        <time>2023-08-25T06:39:25.835Z</time>
      </trkpt>
      <trkpt lat="45.54641" lon="3.55828">
        <ele>1135.609415</ele>
        <time>2023-08-25T06:39:27.831Z</time>
      </trkpt>
      <trkpt lat="45.54653" lon="3.55835">
        <ele>1135.7993</ele>
        <time>2023-08-25T06:39:29.826Z</time>
      </trkpt>
      <trkpt lat="45.54667" lon="3.55843">
        <ele>1136.070133</ele>
        <time>2023-08-25T06:39:31.835Z</time>
      </trkpt>
      <trkpt lat="45.54681" lon="3.55849">
        <ele>1136.332121</ele>
        <time>2023-08-25T06:39:33.828Z</time>
      </trkpt>
      <trkpt lat="45.54694" lon="3.55854">
        <ele>1136.576544</ele>
        <time>2023-08-25T06:39:35.835Z</time>
      </trkpt>
      <trkpt lat="45.54705" lon="3.55862">
        <ele>1136.802116</ele>
        <time>2023-08-25T06:39:37.826Z</time>
      </trkpt>
      <trkpt lat="45.54715" lon="3.55868">
        <ele>1136.989815</ele>
        <time>2023-08-25T06:39:39.835Z</time>
      </trkpt>
      <trkpt lat="45.54724" lon="3.55872">
        <ele>1137.168372</ele>
        <time>2023-08-25T06:39:41.813Z</time>
      </trkpt>
      <trkpt lat="45.54736" lon="3.55878">
        <ele>1137.406238</ele>
        <time>2023-08-25T06:39:43.811Z</time>
      </trkpt>
      <trkpt lat="45.54748" lon="3.55882">
        <ele>1137.626749</ele>
        <time>2023-08-25T06:39:45.828Z</time>
      </trkpt>
      <trkpt lat="45.5476" lon="3.55886">
        <ele>1137.85028</ele>
        <time>2023-08-25T06:39:47.820Z</time>
      </trkpt>
      <trkpt lat="45.54772" lon="3.55888">
        <ele>1138.07894</ele>
        <time>2023-08-25T06:39:49.837Z</time>
      </trkpt>
      <trkpt lat="45.54784" lon="3.55891">
        <ele>1138.301022</ele>
        <time>2023-08-25T06:39:51.838Z</time>
      </trkpt>
      <trkpt lat="45.54796" lon="3.55895">
        <ele>1138.522254</ele>
        <time>2023-08-25T06:39:53.830Z</time>
      </trkpt>
      <trkpt lat="45.54809" lon="3.55898">
        <ele>1138.751522</ele>
        <time>2023-08-25T06:39:55.820Z</time>
      </trkpt>
      <trkpt lat="45.54821" lon="3.559">
        <ele>1138.973573</ele>
        <time>2023-08-25T06:39:57.824Z</time>
      </trkpt>
      <trkpt lat="45.54833" lon="3.55902">
        <ele>1139.029454</ele>
        <time>2023-08-25T06:39:59.833Z</time>
      </trkpt>
      <trkpt lat="45.54846" lon="3.55905">
        <ele>1139.051578</ele>
        <time>2023-08-25T06:40:01.828Z</time>
      </trkpt>
      <trkpt lat="45.54859" lon="3.55907">
        <ele>1139.074651</ele>
        <time>2023-08-25T06:40:03.835Z</time>
      </trkpt>
      <trkpt lat="45.5487" lon="3.5591">
        <ele>1139.094705</ele>
        <time>2023-08-25T06:40:05.834Z</time>
      </trkpt>
      <trkpt lat="45.54882" lon="3.55915">
        <ele>1139.116112</ele>
        <time>2023-08-25T06:40:07.839Z</time>
      </trkpt>
      <trkpt lat="45.54894" lon="3.55922">
        <ele>1139.139196</ele>
        <time>2023-08-25T06:40:09.829Z</time>
      </trkpt>
      <trkpt lat="45.54905" lon="3.5593">
        <ele>1139.161607</ele>
        <time>2023-08-25T06:40:11.840Z</time>
      </trkpt>
      <trkpt lat="45.54915" lon="3.55937">
        <ele>1139.181381</ele>
        <time>2023-08-25T06:40:13.833Z</time>
      </trkpt>
      <trkpt lat="45.54927" lon="3.55946">
        <ele>1139.204373</ele>
        <time>2023-08-25T06:40:15.834Z</time>
      </trkpt>
      <trkpt lat="45.54939" lon="3.55954">
        <ele>1139.228315</ele>
        <time>2023-08-25T06:40:17.832Z</time>
      </trkpt>
      <trkpt lat="45.5495" lon="3.55963">
        <ele>1139.250274</ele>
        <time>2023-08-25T06:40:19.829Z</time>
      </trkpt>
      <trkpt lat="45.54961" lon="3.55974">
        <ele>1139.27307</ele>
        <time>2023-08-25T06:40:21.833Z</time>
      </trkpt>
      <trkpt lat="45.54971" lon="3.55987">
        <ele>1139.296979</ele>
        <time>2023-08-25T06:40:23.823Z</time>
      </trkpt>
      <trkpt lat="45.54979" lon="3.56001">
        <ele>1139.319809</ele>
        <time>2023-08-25T06:40:25.827Z</time>
      </trkpt>
      <trkpt lat="45.54988" lon="3.56015">
        <ele>1139.143375</ele>
        <time>2023-08-25T06:40:27.839Z</time>
      </trkpt>
      <trkpt lat="45.54999" lon="3.56032">
        <ele>1138.830475</ele>
        <time>2023-08-25T06:40:29.828Z</time>
      </trkpt>
      <trkpt lat="45.55008" lon="3.56048">
        <ele>1138.535551</ele>
        <time>2023-08-25T06:40:31.833Z</time>
      </trkpt>
      <trkpt lat="45.55017" lon="3.56063">
        <ele>1138.264702</ele>
        <time>2023-08-25T06:40:33.836Z</time>
      </trkpt>
      <trkpt lat="45.55027" lon="3.56078">
        <ele>1137.984332</ele>
        <time>2023-08-25T06:40:35.830Z</time>
      </trkpt>
      <trkpt lat="45.55036" lon="3.56093">
        <ele>1137.716422</ele>
        <time>2023-08-25T06:40:37.833Z</time>
      </trkpt>
      <trkpt lat="45.55044" lon="3.56107">
        <ele>1137.465196</ele>
        <time>2023-08-25T06:40:39.844Z</time>
      </trkpt>
      <trkpt lat="45.55053" lon="3.5612">
        <ele>1137.217308</ele>
        <time>2023-08-25T06:40:41.824Z</time>
      </trkpt>
      <trkpt lat="45.55062" lon="3.56133">
        <ele>1136.968161</ele>
        <time>2023-08-25T06:40:43.831Z</time>
      </trkpt>
      <trkpt lat="45.55072" lon="3.56145">
        <ele>1136.714997</ele>
        <time>2023-08-25T06:40:45.836Z</time>
      </trkpt>
      <trkpt lat="45.55081" lon="3.56156">
        <ele>1136.472199</ele>
        <time>2023-08-25T06:40:47.832Z</time>
      </trkpt>
      <trkpt lat="45.55091" lon="3.56166">
        <ele>1136.232948</ele>
        <time>2023-08-25T06:40:49.829Z</time>
      </trkpt>
      <trkpt lat="45.55102" lon="3.56181">
        <ele>1135.93231</ele>
        <time>2023-08-25T06:40:51.828Z</time>
      </trkpt>
      <trkpt lat="45.55113" lon="3.56193">
        <ele>1135.835672</ele>
        <time>2023-08-25T06:40:53.834Z</time>
      </trkpt>
      <trkpt lat="45.55123" lon="3.56207">
        <ele>1135.933638</ele>
        <time>2023-08-25T06:40:55.837Z</time>
      </trkpt>
      <trkpt lat="45.55133" lon="3.56218">
        <ele>1136.023281</ele>
        <time>2023-08-25T06:40:57.836Z</time>
      </trkpt>
      <trkpt lat="45.55143" lon="3.56229">
        <ele>1136.113315</ele>
        <time>2023-08-25T06:40:59.822Z</time>
      </trkpt>
      <trkpt lat="45.55153" lon="3.5624">
        <ele>1136.203331</ele>
        <time>2023-08-25T06:41:01.836Z</time>
      </trkpt>
      <trkpt lat="45.55163" lon="3.56247">
        <ele>1136.283556</ele>
        <time>2023-08-25T06:41:03.840Z</time>
      </trkpt>
      <trkpt lat="45.55175" lon="3.56254">
        <ele>1136.370306</ele>
        <time>2023-08-25T06:41:05.840Z</time>
      </trkpt>
      <trkpt lat="45.55186" lon="3.56263">
        <ele>1136.46003</ele>
        <time>2023-08-25T06:41:07.840Z</time>
      </trkpt>
      <trkpt lat="45.55198" lon="3.56271">
        <ele>1136.558975</ele>
        <time>2023-08-25T06:41:09.837Z</time>
      </trkpt>
      <trkpt lat="45.55211" lon="3.56278">
        <ele>1136.65423</ele>
        <time>2023-08-25T06:41:11.837Z</time>
      </trkpt>
      <trkpt lat="45.55222" lon="3.56286">
        <ele>1136.744439</ele>
        <time>2023-08-25T06:41:13.828Z</time>
      </trkpt>
      <trkpt lat="45.55234" lon="3.56295">
        <ele>1136.838291</ele>
        <time>2023-08-25T06:41:15.836Z</time>
      </trkpt>
      <trkpt lat="45.55245" lon="3.56304">
        <ele>1136.929491</ele>
        <time>2023-08-25T06:41:17.832Z</time>
      </trkpt>
      <trkpt lat="45.55256" lon="3.56312">
        <ele>1137.014454</ele>
        <time>2023-08-25T06:41:19.835Z</time>
      </trkpt>
      <trkpt lat="45.55266" lon="3.5632">
        <ele>1137.070278</ele>
        <time>2023-08-25T06:41:21.845Z</time>
      </trkpt>
      <trkpt lat="45.55277" lon="3.5633">
        <ele>1137.091633</ele>
        <time>2023-08-25T06:41:23.826Z</time>
      </trkpt>
      <trkpt lat="45.55288" lon="3.56341">
        <ele>1137.113604</ele>
        <time>2023-08-25T06:41:25.839Z</time>
      </trkpt>
      <trkpt lat="45.553" lon="3.56349">
        <ele>1137.135969</ele>
        <time>2023-08-25T06:41:27.832Z</time>
      </trkpt>
      <trkpt lat="45.55311" lon="3.56362">
        <ele>1137.158793</ele>
        <time>2023-08-25T06:41:29.833Z</time>
      </trkpt>
      <trkpt lat="45.5532" lon="3.56372">
        <ele>1137.179069</ele>
        <time>2023-08-25T06:41:31.844Z</time>
      </trkpt>
      <trkpt lat="45.55329" lon="3.56381">
        <ele>1137.196309</ele>
        <time>2023-08-25T06:41:33.830Z</time>
      </trkpt>
      <trkpt lat="45.5534" lon="3.56388">
        <ele>1137.216532</ele>
        <time>2023-08-25T06:41:35.839Z</time>
      </trkpt>
      <trkpt lat="45.55353" lon="3.56396">
        <ele>1137.239917</ele>
        <time>2023-08-25T06:41:37.825Z</time>
      </trkpt>
      <trkpt lat="45.55366" lon="3.56402">
        <ele>1137.262527</ele>
        <time>2023-08-25T06:41:39.829Z</time>
      </trkpt>
      <trkpt lat="45.55378" lon="3.56404">
        <ele>1137.281565</ele>
        <time>2023-08-25T06:41:41.828Z</time>
      </trkpt>
      <trkpt lat="45.55392" lon="3.56397">
        <ele>1137.306787</ele>
        <time>2023-08-25T06:41:43.849Z</time>
      </trkpt>
      <trkpt lat="45.55402" lon="3.56383">
        <ele>1137.330922</ele>
        <time>2023-08-25T06:41:45.838Z</time>
      </trkpt>
      <trkpt lat="45.55411" lon="3.56368">
        <ele>1137.352268</ele>
        <time>2023-08-25T06:41:47.835Z</time>
      </trkpt>
      <trkpt lat="45.5542" lon="3.56356">
        <ele>1137.132909</ele>
        <time>2023-08-25T06:41:49.834Z</time>
      </trkpt>
      <trkpt lat="45.55429" lon="3.56344">
        <ele>1136.776702</ele>
        <time>2023-08-25T06:41:51.833Z</time>
      </trkpt>
      <trkpt lat="45.55439" lon="3.56331">
        <ele>1136.385152</ele>
        <time>2023-08-25T06:41:53.843Z</time>
      </trkpt>
      <trkpt lat="45.55448" lon="3.56318">
        <ele>1136.000743</ele>
        <time>2023-08-25T06:41:55.824Z</time>
      </trkpt>
      <trkpt lat="45.55458" lon="3.56307">
        <ele>1135.643418</ele>
        <time>2023-08-25T06:41:57.826Z</time>
      </trkpt>
      <trkpt lat="45.55466" lon="3.56296">
        <ele>1135.304131</ele>
        <time>2023-08-25T06:41:59.830Z</time>
      </trkpt>
      <trkpt lat="45.55475" lon="3.56283">
        <ele>1134.931782</ele>
        <time>2023-08-25T06:42:01.831Z</time>
      </trkpt>
      <trkpt lat="45.55484" lon="3.5627">
        <ele>1134.548786</ele>
        <time>2023-08-25T06:42:03.837Z</time>
      </trkpt>
      <trkpt lat="45.55496" lon="3.56255">
        <ele>1134.099227</ele>
        <time>2023-08-25T06:42:05.826Z</time>
      </trkpt>
      <trkpt lat="45.55505" lon="3.56241">
        <ele>1133.709932</ele>
        <time>2023-08-25T06:42:07.830Z</time>
      </trkpt>
      <trkpt lat="45.55512" lon="3.56225">
        <ele>1133.308232</ele>
        <time>2023-08-25T06:42:09.837Z</time>
      </trkpt>
      <trkpt lat="45.55519" lon="3.56211">
        <ele>1132.959657</ele>
        <time>2023-08-25T06:42:11.839Z</time>
      </trkpt>
      <trkpt lat="45.55528" lon="3.56198">
        <ele>1132.573832</ele>
        <time>2023-08-25T06:42:13.827Z</time>
      </trkpt>
      <trkpt lat="45.55538" lon="3.56186">
        <ele>1132.198976</ele>
        <time>2023-08-25T06:42:15.830Z</time>
      </trkpt>
      <trkpt lat="45.55547" lon="3.5618">
        <ele>1132.207353</ele>
        <time>2023-08-25T06:42:17.846Z</time>
      </trkpt>
      <trkpt lat="45.55556" lon="3.56184">
        <ele>1132.348927</ele>
        <time>2023-08-25T06:42:19.829Z</time>
      </trkpt>
      <trkpt lat="45.55565" lon="3.56187">
        <ele>1132.487481</ele>
        <time>2023-08-25T06:42:21.838Z</time>
      </trkpt>
      <trkpt lat="45.55576" lon="3.56178">
        <ele>1132.672803</ele>
        <time>2023-08-25T06:42:23.833Z</time>
      </trkpt>
      <trkpt lat="45.55585" lon="3.56164">
        <ele>1132.87513</ele>
        <time>2023-08-25T06:42:25.839Z</time>
      </trkpt>
      <trkpt lat="45.55594" lon="3.5615">
        <ele>1133.081267</ele>
        <time>2023-08-25T06:42:27.831Z</time>
      </trkpt>
      <trkpt lat="45.55603" lon="3.56137">
        <ele>1133.267508</ele>
        <time>2023-08-25T06:42:29.835Z</time>
      </trkpt>
      <trkpt lat="45.55611" lon="3.56125">
        <ele>1133.443331</ele>
        <time>2023-08-25T06:42:31.836Z</time>
      </trkpt>
      <trkpt lat="45.55618" lon="3.56113">
        <ele>1133.609485</ele>
        <time>2023-08-25T06:42:33.832Z</time>
      </trkpt>
      <trkpt lat="45.55625" lon="3.56099">
        <ele>1133.79148</ele>
        <time>2023-08-25T06:42:35.833Z</time>
      </trkpt>
      <trkpt lat="45.55631" lon="3.56086">
        <ele>1133.963212</ele>
        <time>2023-08-25T06:42:37.832Z</time>
      </trkpt>
      <trkpt lat="45.55637" lon="3.5607">
        <ele>1134.156007</ele>
        <time>2023-08-25T06:42:39.831Z</time>
      </trkpt>
      <trkpt lat="45.55644" lon="3.56056">
        <ele>1134.334492</ele>
        <time>2023-08-25T06:42:41.839Z</time>
      </trkpt>
      <trkpt lat="45.55651" lon="3.56041">
        <ele>1134.529512</ele>
        <time>2023-08-25T06:42:43.834Z</time>
      </trkpt>
      <trkpt lat="45.55659" lon="3.56027">
        <ele>1134.716683</ele>
        <time>2023-08-25T06:42:45.838Z</time>
      </trkpt>
      <trkpt lat="45.55667" lon="3.5601">
        <ele>1134.836932</ele>
        <time>2023-08-25T06:42:47.833Z</time>
      </trkpt>
      <trkpt lat="45.55676" lon="3.55995">
        <ele>1134.841456</ele>
        <time>2023-08-25T06:42:49.834Z</time>
      </trkpt>
      <trkpt lat="45.55685" lon="3.55979">
        <ele>1134.845841</ele>
        <time>2023-08-25T06:42:51.831Z</time>
      </trkpt>
      <trkpt lat="45.55693" lon="3.55963">
        <ele>1134.850131</ele>
        <time>2023-08-25T06:42:53.838Z</time>
      </trkpt>
      <trkpt lat="45.55701" lon="3.55947">
        <ele>1134.854297</ele>
        <time>2023-08-25T06:42:55.802Z</time>
      </trkpt>
      <trkpt lat="45.5571" lon="3.55934">
        <ele>1134.85837</ele>
        <time>2023-08-25T06:42:57.811Z</time>
      </trkpt>
      <trkpt lat="45.55718" lon="3.55921">
        <ele>1134.861958</ele>
        <time>2023-08-25T06:42:59.829Z</time>
      </trkpt>
      <trkpt lat="45.55726" lon="3.55908">
        <ele>1134.865775</ele>
        <time>2023-08-25T06:43:01.806Z</time>
      </trkpt>
      <trkpt lat="45.55733" lon="3.55894">
        <ele>1134.869583</ele>
        <time>2023-08-25T06:43:03.827Z</time>
      </trkpt>
      <trkpt lat="45.55739" lon="3.5588">
        <ele>1134.873229</ele>
        <time>2023-08-25T06:43:05.827Z</time>
      </trkpt>
      <trkpt lat="45.55745" lon="3.55868">
        <ele>1134.876464</ele>
        <time>2023-08-25T06:43:07.843Z</time>
      </trkpt>
      <trkpt lat="45.55751" lon="3.55856">
        <ele>1134.87961</ele>
        <time>2023-08-25T06:43:09.831Z</time>
      </trkpt>
      <trkpt lat="45.55756" lon="3.55842">
        <ele>1134.883039</ele>
        <time>2023-08-25T06:43:11.827Z</time>
      </trkpt>
      <trkpt lat="45.5576" lon="3.55829">
        <ele>1134.886262</ele>
        <time>2023-08-25T06:43:13.818Z</time>
      </trkpt>
      <trkpt lat="45.55766" lon="3.55815">
        <ele>1134.889696</ele>
        <time>2023-08-25T06:43:15.842Z</time>
      </trkpt>
      <trkpt lat="45.5577" lon="3.55799">
        <ele>1134.942209</ele>
        <time>2023-08-25T06:43:17.839Z</time>
      </trkpt>
      <trkpt lat="45.55776" lon="3.55781">
        <ele>1135.02257</ele>
        <time>2023-08-25T06:43:19.840Z</time>
      </trkpt>
      <trkpt lat="45.55781" lon="3.55763">
        <ele>1135.105164</ele>
        <time>2023-08-25T06:43:21.836Z</time>
      </trkpt>
      <trkpt lat="45.55787" lon="3.55748">
        <ele>1135.182027</ele>
        <time>2023-08-25T06:43:23.849Z</time>
      </trkpt>
      <trkpt lat="45.55795" lon="3.55733">
        <ele>1135.2578</ele>
        <time>2023-08-25T06:43:25.839Z</time>
      </trkpt>
      <trkpt lat="45.55803" lon="3.55719">
        <ele>1135.336219</ele>
        <time>2023-08-25T06:43:27.827Z</time>
      </trkpt>
      <trkpt lat="45.55812" lon="3.55706">
        <ele>1135.412066</ele>
        <time>2023-08-25T06:43:29.814Z</time>
      </trkpt>
      <trkpt lat="45.55821" lon="3.55694">
        <ele>1135.485753</ele>
        <time>2023-08-25T06:43:31.833Z</time>
      </trkpt>
      <trkpt lat="45.5583" lon="3.55683">
        <ele>1135.559779</ele>
        <time>2023-08-25T06:43:33.839Z</time>
      </trkpt>
      <trkpt lat="45.55839" lon="3.55672">
        <ele>1135.632354</ele>
        <time>2023-08-25T06:43:35.837Z</time>
      </trkpt>
      <trkpt lat="45.55847" lon="3.55662">
        <ele>1135.695254</ele>
        <time>2023-08-25T06:43:37.835Z</time>
      </trkpt>
      <trkpt lat="45.55856" lon="3.55653">
        <ele>1135.760547</ele>
        <time>2023-08-25T06:43:39.829Z</time>
      </trkpt>
      <trkpt lat="45.55866" lon="3.55644">
        <ele>1135.831888</ele>
        <time>2023-08-25T06:43:41.818Z</time>
      </trkpt>
      <trkpt lat="45.55876" lon="3.55634">
        <ele>1135.904843</ele>
        <time>2023-08-25T06:43:43.839Z</time>
      </trkpt>
      <trkpt lat="45.55884" lon="3.55623">
        <ele>1135.975195</ele>
        <time>2023-08-25T06:43:45.834Z</time>
      </trkpt>
      <trkpt lat="45.5589" lon="3.55611">
        <ele>1135.980544</ele>
        <time>2023-08-25T06:43:47.799Z</time>
      </trkpt>
      <trkpt lat="45.55895" lon="3.55599">
        <ele>1135.981116</ele>
        <time>2023-08-25T06:43:49.811Z</time>
      </trkpt>
      <trkpt lat="45.55904" lon="3.55585">
        <ele>1135.981869</ele>
        <time>2023-08-25T06:43:52.832Z</time>
      </trkpt>
      <trkpt lat="45.55915" lon="3.55575">
        <ele>1135.982624</ele>
        <time>2023-08-25T06:43:55.835Z</time>
      </trkpt>
      <trkpt lat="45.55925" lon="3.55563">
        <ele>1135.983397</ele>
        <time>2023-08-25T06:43:58.798Z</time>
      </trkpt>
      <trkpt lat="45.55931" lon="3.55552">
        <ele>1135.983968</ele>
        <time>2023-08-25T06:44:00.828Z</time>
      </trkpt>
      <trkpt lat="45.55939" lon="3.55541">
        <ele>1135.984602</ele>
        <time>2023-08-25T06:44:02.841Z</time>
      </trkpt>
      <trkpt lat="45.55947" lon="3.55531">
        <ele>1135.985241</ele>
        <time>2023-08-25T06:44:04.831Z</time>
      </trkpt>
      <trkpt lat="45.55954" lon="3.5552">
        <ele>1135.985861</ele>
        <time>2023-08-25T06:44:06.834Z</time>
      </trkpt>
      <trkpt lat="45.55961" lon="3.55509">
        <ele>1135.986464</ele>
        <time>2023-08-25T06:44:08.820Z</time>
      </trkpt>
      <trkpt lat="45.55967" lon="3.55498">
        <ele>1135.987055</ele>
        <time>2023-08-25T06:44:10.835Z</time>
      </trkpt>
      <trkpt lat="45.55973" lon="3.55485">
        <ele>1135.987656</ele>
        <time>2023-08-25T06:44:12.832Z</time>
      </trkpt>
      <trkpt lat="45.55978" lon="3.55472">
        <ele>1135.988272</ele>
        <time>2023-08-25T06:44:14.831Z</time>
      </trkpt>
      <trkpt lat="45.55982" lon="3.55459">
        <ele>1135.988862</ele>
        <time>2023-08-25T06:44:16.832Z</time>
      </trkpt>
      <trkpt lat="45.55984" lon="3.55444">
        <ele>1135.989505</ele>
        <time>2023-08-25T06:44:18.825Z</time>
      </trkpt>
      <trkpt lat="45.55987" lon="3.55427">
        <ele>1135.990196</ele>
        <time>2023-08-25T06:44:20.836Z</time>
      </trkpt>
      <trkpt lat="45.55991" lon="3.55412">
        <ele>1135.840713</ele>
        <time>2023-08-25T06:44:22.816Z</time>
      </trkpt>
      <trkpt lat="45.55993" lon="3.55395">
        <ele>1135.540857</ele>
        <time>2023-08-25T06:44:24.825Z</time>
      </trkpt>
      <trkpt lat="45.55993" lon="3.55378">
        <ele>1135.231276</ele>
        <time>2023-08-25T06:44:26.841Z</time>
      </trkpt>
      <trkpt lat="45.55991" lon="3.55361">
        <ele>1134.940287</ele>
        <time>2023-08-25T06:44:28.817Z</time>
      </trkpt>
      <trkpt lat="45.55986" lon="3.55345">
        <ele>1134.630937</ele>
        <time>2023-08-25T06:44:30.828Z</time>
      </trkpt>
      <trkpt lat="45.55979" lon="3.5533">
        <ele>1134.313175</ele>
        <time>2023-08-25T06:44:32.833Z</time>
      </trkpt>
      <trkpt lat="45.5597" lon="3.55315">
        <ele>1133.970929</ele>
        <time>2023-08-25T06:44:34.812Z</time>
      </trkpt>
      <trkpt lat="45.55959" lon="3.55299">
        <ele>1133.579722</ele>
        <time>2023-08-25T06:44:36.829Z</time>
      </trkpt>
      <trkpt lat="45.55949" lon="3.55283">
        <ele>1133.196458</ele>
        <time>2023-08-25T06:44:38.821Z</time>
      </trkpt>
      <trkpt lat="45.55939" lon="3.55268">
        <ele>1132.841428</ele>
        <time>2023-08-25T06:44:40.827Z</time>
      </trkpt>
      <trkpt lat="45.55931" lon="3.55253">
        <ele>1132.509407</ele>
        <time>2023-08-25T06:44:42.834Z</time>
      </trkpt>
      <trkpt lat="45.55924" lon="3.55237">
        <ele>1132.177391</ele>
        <time>2023-08-25T06:44:44.834Z</time>
      </trkpt>
      <trkpt lat="45.55915" lon="3.5522">
        <ele>1131.808123</ele>
        <time>2023-08-25T06:44:46.813Z</time>
      </trkpt>
      <trkpt lat="45.55906" lon="3.55201">
        <ele>1131.271531</ele>
        <time>2023-08-25T06:44:48.818Z</time>
      </trkpt>
      <trkpt lat="45.55899" lon="3.55182">
        <ele>1130.458649</ele>
        <time>2023-08-25T06:44:50.831Z</time>
      </trkpt>
      <trkpt lat="45.55894" lon="3.55161">
        <ele>1129.636686</ele>
        <time>2023-08-25T06:44:52.835Z</time>
      </trkpt>
      <trkpt lat="45.55891" lon="3.55138">
        <ele>1128.73042</ele>
        <time>2023-08-25T06:44:54.801Z</time>
      </trkpt>
      <trkpt lat="45.5589" lon="3.55114">
        <ele>1127.789278</ele>
        <time>2023-08-25T06:44:56.835Z</time>
      </trkpt>
      <trkpt lat="45.55887" lon="3.55089">
        <ele>1126.846178</ele>
        <time>2023-08-25T06:44:58.828Z</time>
      </trkpt>
      <trkpt lat="45.55886" lon="3.55065">
        <ele>1125.909505</ele>
        <time>2023-08-25T06:45:00.834Z</time>
      </trkpt>
      <trkpt lat="45.55887" lon="3.55051">
        <ele>1125.395086</ele>
        <time>2023-08-25T06:45:01.837Z</time>
      </trkpt>
      <trkpt lat="45.55888" lon="3.55038">
        <ele>1124.872322</ele>
        <time>2023-08-25T06:45:02.830Z</time>
      </trkpt>
      <trkpt lat="45.5589" lon="3.55012">
        <ele>1123.886617</ele>
        <time>2023-08-25T06:45:04.834Z</time>
      </trkpt>
      <trkpt lat="45.55892" lon="3.54999">
        <ele>1123.373767</ele>
        <time>2023-08-25T06:45:05.840Z</time>
      </trkpt>
      <trkpt lat="45.55894" lon="3.54986">
        <ele>1122.859779</ele>
        <time>2023-08-25T06:45:06.832Z</time>
      </trkpt>
      <trkpt lat="45.55899" lon="3.54962">
        <ele>1121.879319</ele>
        <time>2023-08-25T06:45:08.825Z</time>
      </trkpt>
      <trkpt lat="45.55903" lon="3.5495">
        <ele>1121.417102</ele>
        <time>2023-08-25T06:45:09.835Z</time>
      </trkpt>
      <trkpt lat="45.55906" lon="3.54938">
        <ele>1120.979289</ele>
        <time>2023-08-25T06:45:10.834Z</time>
      </trkpt>
      <trkpt lat="45.5591" lon="3.54925">
        <ele>1120.534421</ele>
        <time>2023-08-25T06:45:11.839Z</time>
      </trkpt>
      <trkpt lat="45.55913" lon="3.54913">
        <ele>1120.092865</ele>
        <time>2023-08-25T06:45:12.839Z</time>
      </trkpt>
      <trkpt lat="45.55916" lon="3.549">
        <ele>1119.654438</ele>
        <time>2023-08-25T06:45:13.835Z</time>
      </trkpt>
      <trkpt lat="45.55919" lon="3.54888">
        <ele>1119.217199</ele>
        <time>2023-08-25T06:45:14.831Z</time>
      </trkpt>
      <trkpt lat="45.55922" lon="3.54876">
        <ele>1118.781955</ele>
        <time>2023-08-25T06:45:15.823Z</time>
      </trkpt>
      <trkpt lat="45.55929" lon="3.54853">
        <ele>1117.934763</ele>
        <time>2023-08-25T06:45:17.848Z</time>
      </trkpt>
      <trkpt lat="45.55934" lon="3.54842">
        <ele>1117.491104</ele>
        <time>2023-08-25T06:45:18.822Z</time>
      </trkpt>
      <trkpt lat="45.55939" lon="3.54831">
        <ele>1117.056699</ele>
        <time>2023-08-25T06:45:19.835Z</time>
      </trkpt>
      <trkpt lat="45.55945" lon="3.54821">
        <ele>1116.618156</ele>
        <time>2023-08-25T06:45:20.838Z</time>
      </trkpt>
      <trkpt lat="45.55957" lon="3.54804">
        <ele>1115.787607</ele>
        <time>2023-08-25T06:45:22.829Z</time>
      </trkpt>
      <trkpt lat="45.55968" lon="3.54786">
        <ele>1114.9901</ele>
        <time>2023-08-25T06:45:24.832Z</time>
      </trkpt>
      <trkpt lat="45.55979" lon="3.54768">
        <ele>1114.195143</ele>
        <time>2023-08-25T06:45:26.838Z</time>
      </trkpt>
      <trkpt lat="45.55991" lon="3.54751">
        <ele>1113.382172</ele>
        <time>2023-08-25T06:45:28.819Z</time>
      </trkpt>
      <trkpt lat="45.56006" lon="3.54737">
        <ele>1113.078149</ele>
        <time>2023-08-25T06:45:30.833Z</time>
      </trkpt>
      <trkpt lat="45.56013" lon="3.5473">
        <ele>1113.11087</ele>
        <time>2023-08-25T06:45:31.836Z</time>
      </trkpt>
      <trkpt lat="45.56021" lon="3.54723">
        <ele>1113.144478</ele>
        <time>2023-08-25T06:45:32.835Z</time>
      </trkpt>
      <trkpt lat="45.56029" lon="3.54717">
        <ele>1113.177571</ele>
        <time>2023-08-25T06:45:33.835Z</time>
      </trkpt>
      <trkpt lat="45.56043" lon="3.54705">
        <ele>1113.236291</ele>
        <time>2023-08-25T06:45:35.836Z</time>
      </trkpt>
      <trkpt lat="45.56058" lon="3.54695">
        <ele>1113.295852</ele>
        <time>2023-08-25T06:45:37.835Z</time>
      </trkpt>
      <trkpt lat="45.56072" lon="3.54686">
        <ele>1113.353768</ele>
        <time>2023-08-25T06:45:39.842Z</time>
      </trkpt>
      <trkpt lat="45.56086" lon="3.5468">
        <ele>1113.404713</ele>
        <time>2023-08-25T06:45:41.814Z</time>
      </trkpt>
      <trkpt lat="45.56099" lon="3.54676">
        <ele>1113.455469</ele>
        <time>2023-08-25T06:45:43.831Z</time>
      </trkpt>
      <trkpt lat="45.56115" lon="3.54671">
        <ele>1113.512546</ele>
        <time>2023-08-25T06:45:45.837Z</time>
      </trkpt>
      <trkpt lat="45.56131" lon="3.54666">
        <ele>1113.574461</ele>
        <time>2023-08-25T06:45:47.836Z</time>
      </trkpt>
      <trkpt lat="45.56147" lon="3.5466">
        <ele>1113.633549</ele>
        <time>2023-08-25T06:45:49.835Z</time>
      </trkpt>
      <trkpt lat="45.56163" lon="3.54655">
        <ele>1113.694706</ele>
        <time>2023-08-25T06:45:51.844Z</time>
      </trkpt>
      <trkpt lat="45.56177" lon="3.54651">
        <ele>1112.999317</ele>
        <time>2023-08-25T06:45:53.835Z</time>
      </trkpt>
      <trkpt lat="45.56188" lon="3.54646">
        <ele>1112.382468</ele>
        <time>2023-08-25T06:45:55.839Z</time>
      </trkpt>
      <trkpt lat="45.56201" lon="3.54643">
        <ele>1111.704637</ele>
        <time>2023-08-25T06:45:57.826Z</time>
      </trkpt>
      <trkpt lat="45.56213" lon="3.54641">
        <ele>1111.090692</ele>
        <time>2023-08-25T06:45:59.847Z</time>
      </trkpt>
      <trkpt lat="45.56228" lon="3.54636">
        <ele>1110.31537</ele>
        <time>2023-08-25T06:46:01.843Z</time>
      </trkpt>
      <trkpt lat="45.56241" lon="3.5463">
        <ele>1109.601116</ele>
        <time>2023-08-25T06:46:03.822Z</time>
      </trkpt>
      <trkpt lat="45.56254" lon="3.54622">
        <ele>1108.903949</ele>
        <time>2023-08-25T06:46:05.840Z</time>
      </trkpt>
      <trkpt lat="45.56266" lon="3.54613">
        <ele>1108.208218</ele>
        <time>2023-08-25T06:46:07.834Z</time>
      </trkpt>
      <trkpt lat="45.56279" lon="3.54605">
        <ele>1107.478599</ele>
        <time>2023-08-25T06:46:09.838Z</time>
      </trkpt>
      <trkpt lat="45.56293" lon="3.54595">
        <ele>1106.67656</ele>
        <time>2023-08-25T06:46:11.839Z</time>
      </trkpt>
      <trkpt lat="45.56306" lon="3.54581">
        <ele>1105.865398</ele>
        <time>2023-08-25T06:46:13.832Z</time>
      </trkpt>
      <trkpt lat="45.56317" lon="3.54565">
        <ele>1105.059909</ele>
        <time>2023-08-25T06:46:15.842Z</time>
      </trkpt>
      <trkpt lat="45.56326" lon="3.54546">
        <ele>1104.260014</ele>
        <time>2023-08-25T06:46:17.822Z</time>
      </trkpt>
      <trkpt lat="45.56334" lon="3.54526">
        <ele>1103.570147</ele>
        <time>2023-08-25T06:46:19.841Z</time>
      </trkpt>
      <trkpt lat="45.5634" lon="3.54505">
        <ele>1102.904551</ele>
        <time>2023-08-25T06:46:21.833Z</time>
      </trkpt>
      <trkpt lat="45.56345" lon="3.54484">
        <ele>1102.225542</ele>
        <time>2023-08-25T06:46:23.840Z</time>
      </trkpt>
      <trkpt lat="45.5635" lon="3.54463">
        <ele>1101.553776</ele>
        <time>2023-08-25T06:46:25.838Z</time>
      </trkpt>
      <trkpt lat="45.56357" lon="3.54443">
        <ele>1100.894256</ele>
        <time>2023-08-25T06:46:27.840Z</time>
      </trkpt>
      <trkpt lat="45.56364" lon="3.54423">
        <ele>1100.234859</ele>
        <time>2023-08-25T06:46:29.834Z</time>
      </trkpt>
      <trkpt lat="45.56371" lon="3.54403">
        <ele>1099.558377</ele>
        <time>2023-08-25T06:46:31.845Z</time>
      </trkpt>
      <trkpt lat="45.56379" lon="3.54383">
        <ele>1098.866441</ele>
        <time>2023-08-25T06:46:33.830Z</time>
      </trkpt>
      <trkpt lat="45.56386" lon="3.54363">
        <ele>1098.191178</ele>
        <time>2023-08-25T06:46:35.837Z</time>
      </trkpt>
      <trkpt lat="45.56394" lon="3.54344">
        <ele>1097.535754</ele>
        <time>2023-08-25T06:46:37.837Z</time>
      </trkpt>
      <trkpt lat="45.56401" lon="3.54323">
        <ele>1096.849979</ele>
        <time>2023-08-25T06:46:39.844Z</time>
      </trkpt>
      <trkpt lat="45.56406" lon="3.54303">
        <ele>1096.183417</ele>
        <time>2023-08-25T06:46:41.848Z</time>
      </trkpt>
      <trkpt lat="45.56409" lon="3.54279">
        <ele>1095.441442</ele>
        <time>2023-08-25T06:46:43.839Z</time>
      </trkpt>
      <trkpt lat="45.56411" lon="3.54255">
        <ele>1094.716472</ele>
        <time>2023-08-25T06:46:45.838Z</time>
      </trkpt>
      <trkpt lat="45.56411" lon="3.54232">
        <ele>1094.010372</ele>
        <time>2023-08-25T06:46:47.831Z</time>
      </trkpt>
      <trkpt lat="45.56409" lon="3.5421">
        <ele>1093.315793</ele>
        <time>2023-08-25T06:46:49.829Z</time>
      </trkpt>
      <trkpt lat="45.56407" lon="3.54187">
        <ele>1092.620226</ele>
        <time>2023-08-25T06:46:51.831Z</time>
      </trkpt>
      <trkpt lat="45.56406" lon="3.54162">
        <ele>1091.855833</ele>
        <time>2023-08-25T06:46:53.826Z</time>
      </trkpt>
      <trkpt lat="45.56409" lon="3.54137">
        <ele>1091.076782</ele>
        <time>2023-08-25T06:46:55.837Z</time>
      </trkpt>
      <trkpt lat="45.56412" lon="3.54111">
        <ele>1090.290362</ele>
        <time>2023-08-25T06:46:57.829Z</time>
      </trkpt>
      <trkpt lat="45.56412" lon="3.54098">
        <ele>1089.891938</ele>
        <time>2023-08-25T06:46:58.822Z</time>
      </trkpt>
      <trkpt lat="45.56413" lon="3.54085">
        <ele>1089.478279</ele>
        <time>2023-08-25T06:46:59.835Z</time>
      </trkpt>
      <trkpt lat="45.56413" lon="3.54071">
        <ele>1089.068225</ele>
        <time>2023-08-25T06:47:00.834Z</time>
      </trkpt>
      <trkpt lat="45.56414" lon="3.54058">
        <ele>1088.822142</ele>
        <time>2023-08-25T06:47:01.834Z</time>
      </trkpt>
      <trkpt lat="45.56415" lon="3.54045">
        <ele>1088.645293</ele>
        <time>2023-08-25T06:47:02.837Z</time>
      </trkpt>
      <trkpt lat="45.56415" lon="3.54032">
        <ele>1088.467674</ele>
        <time>2023-08-25T06:47:03.840Z</time>
      </trkpt>
      <trkpt lat="45.56415" lon="3.54018">
        <ele>1088.287419</ele>
        <time>2023-08-25T06:47:04.840Z</time>
      </trkpt>
      <trkpt lat="45.56415" lon="3.54005">
        <ele>1088.105819</ele>
        <time>2023-08-25T06:47:05.838Z</time>
      </trkpt>
      <trkpt lat="45.56415" lon="3.53991">
        <ele>1087.924096</ele>
        <time>2023-08-25T06:47:06.838Z</time>
      </trkpt>
      <trkpt lat="45.56415" lon="3.53978">
        <ele>1087.738462</ele>
        <time>2023-08-25T06:47:07.837Z</time>
      </trkpt>
      <trkpt lat="45.56416" lon="3.53965">
        <ele>1087.562575</ele>
        <time>2023-08-25T06:47:08.825Z</time>
      </trkpt>
      <trkpt lat="45.56419" lon="3.53942">
        <ele>1087.2585</ele>
        <time>2023-08-25T06:47:10.838Z</time>
      </trkpt>
      <trkpt lat="45.56422" lon="3.53926">
        <ele>1087.026068</ele>
        <time>2023-08-25T06:47:12.828Z</time>
      </trkpt>
      <trkpt lat="45.56428" lon="3.53908">
        <ele>1086.757552</ele>
        <time>2023-08-25T06:47:15.838Z</time>
      </trkpt>
      <trkpt lat="45.56436" lon="3.53895">
        <ele>1086.537398</ele>
        <time>2023-08-25T06:47:17.834Z</time>
      </trkpt>
      <trkpt lat="45.56443" lon="3.53884">
        <ele>1086.329393</ele>
        <time>2023-08-25T06:47:19.848Z</time>
      </trkpt>
      <trkpt lat="45.56452" lon="3.53873">
        <ele>1086.105517</ele>
        <time>2023-08-25T06:47:21.835Z</time>
      </trkpt>
      <trkpt lat="45.56462" lon="3.53864">
        <ele>1085.871931</ele>
        <time>2023-08-25T06:47:23.838Z</time>
      </trkpt>
      <trkpt lat="45.56476" lon="3.53857">
        <ele>1085.591397</ele>
        <time>2023-08-25T06:47:25.844Z</time>
      </trkpt>
      <trkpt lat="45.56491" lon="3.5385">
        <ele>1085.229811</ele>
        <time>2023-08-25T06:47:27.839Z</time>
      </trkpt>
      <trkpt lat="45.56507" lon="3.53845">
        <ele>1084.820716</ele>
        <time>2023-08-25T06:47:29.824Z</time>
      </trkpt>
      <trkpt lat="45.56523" lon="3.53843">
        <ele>1084.427793</ele>
        <time>2023-08-25T06:47:31.834Z</time>
      </trkpt>
      <trkpt lat="45.56539" lon="3.53844">
        <ele>1084.026478</ele>
        <time>2023-08-25T06:47:33.839Z</time>
      </trkpt>
      <trkpt lat="45.56548" lon="3.53844">
        <ele>1083.797323</ele>
        <time>2023-08-25T06:47:34.834Z</time>
      </trkpt>
      <trkpt lat="45.56566" lon="3.53842">
        <ele>1083.345526</ele>
        <time>2023-08-25T06:47:36.835Z</time>
      </trkpt>
      <trkpt lat="45.56583" lon="3.53839">
        <ele>1082.91454</ele>
        <time>2023-08-25T06:47:38.822Z</time>
      </trkpt>
      <trkpt lat="45.56592" lon="3.53839">
        <ele>1082.685385</ele>
        <time>2023-08-25T06:47:39.843Z</time>
      </trkpt>
      <trkpt lat="45.56602" lon="3.53839">
        <ele>1082.448739</ele>
        <time>2023-08-25T06:47:40.856Z</time>
      </trkpt>
      <trkpt lat="45.56611" lon="3.53838">
        <ele>1082.216308</ele>
        <time>2023-08-25T06:47:41.838Z</time>
      </trkpt>
      <trkpt lat="45.56628" lon="3.53835">
        <ele>1081.786285</ele>
        <time>2023-08-25T06:47:43.838Z</time>
      </trkpt>
      <trkpt lat="45.56646" lon="3.53829">
        <ele>1081.3364</ele>
        <time>2023-08-25T06:47:45.837Z</time>
      </trkpt>
      <trkpt lat="45.56655" lon="3.53825">
        <ele>1081.090201</ele>
        <time>2023-08-25T06:47:46.826Z</time>
      </trkpt>
      <trkpt lat="45.56666" lon="3.53821">
        <ele>1080.264264</ele>
        <time>2023-08-25T06:47:47.819Z</time>
      </trkpt>
      <trkpt lat="45.56676" lon="3.53817">
        <ele>1079.153366</ele>
        <time>2023-08-25T06:47:48.828Z</time>
      </trkpt>
      <trkpt lat="45.56687" lon="3.53815">
        <ele>1078.046069</ele>
        <time>2023-08-25T06:47:49.838Z</time>
      </trkpt>
      <trkpt lat="45.56697" lon="3.53813">
        <ele>1077.012442</ele>
        <time>2023-08-25T06:47:50.834Z</time>
      </trkpt>
      <trkpt lat="45.56707" lon="3.53812">
        <ele>1075.911829</ele>
        <time>2023-08-25T06:47:51.837Z</time>
      </trkpt>
      <trkpt lat="45.56718" lon="3.53812">
        <ele>1074.812722</ele>
        <time>2023-08-25T06:47:52.816Z</time>
      </trkpt>
      <trkpt lat="45.5673" lon="3.53813">
        <ele>1073.620385</ele>
        <time>2023-08-25T06:47:53.837Z</time>
      </trkpt>
      <trkpt lat="45.56741" lon="3.53814">
        <ele>1072.466125</ele>
        <time>2023-08-25T06:47:54.834Z</time>
      </trkpt>
      <trkpt lat="45.56751" lon="3.53816">
        <ele>1071.421472</ele>
        <time>2023-08-25T06:47:55.840Z</time>
      </trkpt>
      <trkpt lat="45.56762" lon="3.53818">
        <ele>1070.316701</ele>
        <time>2023-08-25T06:47:56.831Z</time>
      </trkpt>
      <trkpt lat="45.56771" lon="3.53821">
        <ele>1069.334536</ele>
        <time>2023-08-25T06:47:57.833Z</time>
      </trkpt>
      <trkpt lat="45.56789" lon="3.53824">
        <ele>1067.506048</ele>
        <time>2023-08-25T06:47:59.838Z</time>
      </trkpt>
      <trkpt lat="45.56805" lon="3.53825">
        <ele>1065.787667</ele>
        <time>2023-08-25T06:48:01.840Z</time>
      </trkpt>
      <trkpt lat="45.5682" lon="3.53826">
        <ele>1064.305072</ele>
        <time>2023-08-25T06:48:03.834Z</time>
      </trkpt>
      <trkpt lat="45.56835" lon="3.53826">
        <ele>1062.72259</ele>
        <time>2023-08-25T06:48:05.838Z</time>
      </trkpt>
      <trkpt lat="45.56853" lon="3.53825">
        <ele>1061.015825</ele>
        <time>2023-08-25T06:48:07.829Z</time>
      </trkpt>
      <trkpt lat="45.56863" lon="3.53826">
        <ele>1060.141817</ele>
        <time>2023-08-25T06:48:08.826Z</time>
      </trkpt>
      <trkpt lat="45.5688" lon="3.53828">
        <ele>1058.570098</ele>
        <time>2023-08-25T06:48:10.853Z</time>
      </trkpt>
      <trkpt lat="45.56897" lon="3.53827">
        <ele>1056.954818</ele>
        <time>2023-08-25T06:48:12.835Z</time>
      </trkpt>
      <trkpt lat="45.56906" lon="3.53826">
        <ele>1056.116247</ele>
        <time>2023-08-25T06:48:13.848Z</time>
      </trkpt>
      <trkpt lat="45.56923" lon="3.53826">
        <ele>1054.511091</ele>
        <time>2023-08-25T06:48:15.834Z</time>
      </trkpt>
      <trkpt lat="45.56939" lon="3.53829">
        <ele>1053.027784</ele>
        <time>2023-08-25T06:48:17.842Z</time>
      </trkpt>
      <trkpt lat="45.56955" lon="3.53827">
        <ele>1051.59433</ele>
        <time>2023-08-25T06:48:19.835Z</time>
      </trkpt>
      <trkpt lat="45.56971" lon="3.53817">
        <ele>1049.904223</ele>
        <time>2023-08-25T06:48:21.839Z</time>
      </trkpt>
      <trkpt lat="45.5698" lon="3.53813">
        <ele>1049.031604</ele>
        <time>2023-08-25T06:48:22.833Z</time>
      </trkpt>
      <trkpt lat="45.56997" lon="3.53808">
        <ele>1047.483583</ele>
        <time>2023-08-25T06:48:24.841Z</time>
      </trkpt>
      <trkpt lat="45.57011" lon="3.53798">
        <ele>1045.977752</ele>
        <time>2023-08-25T06:48:26.835Z</time>
      </trkpt>
      <trkpt lat="45.57019" lon="3.53789">
        <ele>1044.91038</ele>
        <time>2023-08-25T06:48:27.843Z</time>
      </trkpt>
      <trkpt lat="45.57027" lon="3.53779">
        <ele>1043.804235</ele>
        <time>2023-08-25T06:48:28.831Z</time>
      </trkpt>
      <trkpt lat="45.57034" lon="3.53768">
        <ele>1042.700365</ele>
        <time>2023-08-25T06:48:29.835Z</time>
      </trkpt>
      <trkpt lat="45.57042" lon="3.53757">
        <ele>1041.561104</ele>
        <time>2023-08-25T06:48:30.841Z</time>
      </trkpt>
      <trkpt lat="45.57049" lon="3.53746">
        <ele>1040.441462</ele>
        <time>2023-08-25T06:48:31.844Z</time>
      </trkpt>
      <trkpt lat="45.57056" lon="3.53735">
        <ele>1039.381277</ele>
        <time>2023-08-25T06:48:32.841Z</time>
      </trkpt>
      <trkpt lat="45.57063" lon="3.53726">
        <ele>1038.356563</ele>
        <time>2023-08-25T06:48:33.848Z</time>
      </trkpt>
      <trkpt lat="45.57078" lon="3.53712">
        <ele>1036.481192</ele>
        <time>2023-08-25T06:48:35.838Z</time>
      </trkpt>
      <trkpt lat="45.57087" lon="3.53707">
        <ele>1035.456873</ele>
        <time>2023-08-25T06:48:36.840Z</time>
      </trkpt>
      <trkpt lat="45.57096" lon="3.53704">
        <ele>1034.500361</ele>
        <time>2023-08-25T06:48:37.840Z</time>
      </trkpt>
      <trkpt lat="45.57106" lon="3.53703">
        <ele>1033.485894</ele>
        <time>2023-08-25T06:48:38.829Z</time>
      </trkpt>
      <trkpt lat="45.57121" lon="3.537">
        <ele>1031.846658</ele>
        <time>2023-08-25T06:48:40.845Z</time>
      </trkpt>
      <trkpt lat="45.57125" lon="3.53687">
        <ele>1030.835454</ele>
        <time>2023-08-25T06:48:44.844Z</time>
      </trkpt>
      <trkpt lat="45.57117" lon="3.53679">
        <ele>1029.781102</ele>
        <time>2023-08-25T06:48:47.836Z</time>
      </trkpt>
      <trkpt lat="45.57106" lon="3.53676">
        <ele>1028.60266</ele>
        <time>2023-08-25T06:48:51.840Z</time>
      </trkpt>
      <trkpt lat="45.57097" lon="3.53671">
        <ele>1027.56298</ele>
        <time>2023-08-25T06:48:55.840Z</time>
      </trkpt>
      <trkpt lat="45.57087" lon="3.53667">
        <ele>1026.832085</ele>
        <time>2023-08-25T06:48:58.815Z</time>
      </trkpt>
      <trkpt lat="45.57077" lon="3.53663">
        <ele>1026.661736</ele>
        <time>2023-08-25T06:49:00.829Z</time>
      </trkpt>
      <trkpt lat="45.57063" lon="3.53656">
        <ele>1026.41592</ele>
        <time>2023-08-25T06:49:03.833Z</time>
      </trkpt>
      <trkpt lat="45.57053" lon="3.53654">
        <ele>1026.229369</ele>
        <time>2023-08-25T06:49:05.825Z</time>
      </trkpt>
      <trkpt lat="45.57042" lon="3.53653">
        <ele>1026.048067</ele>
        <time>2023-08-25T06:49:07.817Z</time>
      </trkpt>
      <trkpt lat="45.57032" lon="3.53653">
        <ele>1025.868199</ele>
        <time>2023-08-25T06:49:09.836Z</time>
      </trkpt>
      <trkpt lat="45.57021" lon="3.53653">
        <ele>1025.69347</ele>
        <time>2023-08-25T06:49:11.821Z</time>
      </trkpt>
      <trkpt lat="45.57012" lon="3.53652">
        <ele>1025.52346</ele>
        <time>2023-08-25T06:49:13.829Z</time>
      </trkpt>
      <trkpt lat="45.57001" lon="3.53652">
        <ele>1025.343532</ele>
        <time>2023-08-25T06:49:15.845Z</time>
      </trkpt>
      <trkpt lat="45.5699" lon="3.5365">
        <ele>1025.149871</ele>
        <time>2023-08-25T06:49:17.829Z</time>
      </trkpt>
      <trkpt lat="45.56978" lon="3.53646">
        <ele>1024.943509</ele>
        <time>2023-08-25T06:49:19.836Z</time>
      </trkpt>
      <trkpt lat="45.56968" lon="3.5364">
        <ele>1024.752508</ele>
        <time>2023-08-25T06:49:21.845Z</time>
      </trkpt>
      <trkpt lat="45.56959" lon="3.53631">
        <ele>1024.571295</ele>
        <time>2023-08-25T06:49:23.845Z</time>
      </trkpt>
      <trkpt lat="45.5695" lon="3.5362">
        <ele>1024.361056</ele>
        <time>2023-08-25T06:49:25.843Z</time>
      </trkpt>
      <trkpt lat="45.56941" lon="3.53608">
        <ele>1024.160082</ele>
        <time>2023-08-25T06:49:27.836Z</time>
      </trkpt>
      <trkpt lat="45.56931" lon="3.53598">
        <ele>1023.955169</ele>
        <time>2023-08-25T06:49:29.843Z</time>
      </trkpt>
      <trkpt lat="45.5692" lon="3.53586">
        <ele>1023.485252</ele>
        <time>2023-08-25T06:49:31.841Z</time>
      </trkpt>
      <trkpt lat="45.5691" lon="3.53573">
        <ele>1022.82842</ele>
        <time>2023-08-25T06:49:33.835Z</time>
      </trkpt>
      <trkpt lat="45.56899" lon="3.53559">
        <ele>1022.142507</ele>
        <time>2023-08-25T06:49:35.836Z</time>
      </trkpt>
      <trkpt lat="45.56889" lon="3.53545">
        <ele>1021.440276</ele>
        <time>2023-08-25T06:49:37.839Z</time>
      </trkpt>
      <trkpt lat="45.56878" lon="3.53531">
        <ele>1020.734531</ele>
        <time>2023-08-25T06:49:39.831Z</time>
      </trkpt>
      <trkpt lat="45.56868" lon="3.53518">
        <ele>1020.047481</ele>
        <time>2023-08-25T06:49:41.844Z</time>
      </trkpt>
      <trkpt lat="45.56856" lon="3.53502">
        <ele>1019.28063</ele>
        <time>2023-08-25T06:49:43.835Z</time>
      </trkpt>
      <trkpt lat="45.56845" lon="3.53486">
        <ele>1018.512472</ele>
        <time>2023-08-25T06:49:45.840Z</time>
      </trkpt>
      <trkpt lat="45.5683" lon="3.53476">
        <ele>1017.696971</ele>
        <time>2023-08-25T06:49:47.836Z</time>
      </trkpt>
      <trkpt lat="45.56821" lon="3.53472">
        <ele>1017.250224</ele>
        <time>2023-08-25T06:49:48.817Z</time>
      </trkpt>
      <trkpt lat="45.56805" lon="3.53464">
        <ele>1016.411917</ele>
        <time>2023-08-25T06:49:50.848Z</time>
      </trkpt>
      <trkpt lat="45.56789" lon="3.53461">
        <ele>1015.627107</ele>
        <time>2023-08-25T06:49:52.842Z</time>
      </trkpt>
      <trkpt lat="45.56775" lon="3.53463">
        <ele>1015.040758</ele>
        <time>2023-08-25T06:49:54.841Z</time>
      </trkpt>
      <trkpt lat="45.5676" lon="3.5347">
        <ele>1014.819145</ele>
        <time>2023-08-25T06:49:56.840Z</time>
      </trkpt>
      <trkpt lat="45.56744" lon="3.53469">
        <ele>1014.607313</ele>
        <time>2023-08-25T06:49:58.811Z</time>
      </trkpt>
      <trkpt lat="45.56729" lon="3.53458">
        <ele>1014.376741</ele>
        <time>2023-08-25T06:50:00.842Z</time>
      </trkpt>
      <trkpt lat="45.5672" lon="3.53442">
        <ele>1014.186607</ele>
        <time>2023-08-25T06:50:02.841Z</time>
      </trkpt>
      <trkpt lat="45.56715" lon="3.53424">
        <ele>1014.004592</ele>
        <time>2023-08-25T06:50:04.828Z</time>
      </trkpt>
      <trkpt lat="45.56713" lon="3.53408">
        <ele>1013.849941</ele>
        <time>2023-08-25T06:50:06.846Z</time>
      </trkpt>
      <trkpt lat="45.56712" lon="3.53393">
        <ele>1013.700566</ele>
        <time>2023-08-25T06:50:08.824Z</time>
      </trkpt>
      <trkpt lat="45.56714" lon="3.53377">
        <ele>1013.551301</ele>
        <time>2023-08-25T06:50:10.842Z</time>
      </trkpt>
      <trkpt lat="45.56715" lon="3.53363">
        <ele>1013.416064</ele>
        <time>2023-08-25T06:50:12.837Z</time>
      </trkpt>
      <trkpt lat="45.56714" lon="3.53349">
        <ele>1013.282502</ele>
        <time>2023-08-25T06:50:14.831Z</time>
      </trkpt>
      <trkpt lat="45.56712" lon="3.5333">
        <ele>1013.097151</ele>
        <time>2023-08-25T06:50:17.838Z</time>
      </trkpt>
      <trkpt lat="45.56709" lon="3.53317">
        <ele>1012.970657</ele>
        <time>2023-08-25T06:50:19.823Z</time>
      </trkpt>
      <trkpt lat="45.56703" lon="3.53303">
        <ele>1012.811327</ele>
        <time>2023-08-25T06:50:21.811Z</time>
      </trkpt>
      <trkpt lat="45.56695" lon="3.5329">
        <ele>1012.648586</ele>
        <time>2023-08-25T06:50:23.812Z</time>
      </trkpt>
      <trkpt lat="45.56686" lon="3.53277">
        <ele>1012.316193</ele>
        <time>2023-08-25T06:50:25.814Z</time>
      </trkpt>
      <trkpt lat="45.56675" lon="3.53265">
        <ele>1011.95992</ele>
        <time>2023-08-25T06:50:27.836Z</time>
      </trkpt>
      <trkpt lat="45.56666" lon="3.53253">
        <ele>1011.617349</ele>
        <time>2023-08-25T06:50:29.841Z</time>
      </trkpt>
      <trkpt lat="45.56656" lon="3.53242">
        <ele>1011.292128</ele>
        <time>2023-08-25T06:50:31.838Z</time>
      </trkpt>
      <trkpt lat="45.56648" lon="3.53231">
        <ele>1010.997561</ele>
        <time>2023-08-25T06:50:33.834Z</time>
      </trkpt>
      <trkpt lat="45.56637" lon="3.53219">
        <ele>1010.637955</ele>
        <time>2023-08-25T06:50:35.822Z</time>
      </trkpt>
      <trkpt lat="45.56625" lon="3.53206">
        <ele>1010.232554</ele>
        <time>2023-08-25T06:50:37.846Z</time>
      </trkpt>
      <trkpt lat="45.56612" lon="3.53195">
        <ele>1009.828824</ele>
        <time>2023-08-25T06:50:39.854Z</time>
      </trkpt>
      <trkpt lat="45.56597" lon="3.53187">
        <ele>1009.397796</ele>
        <time>2023-08-25T06:50:41.847Z</time>
      </trkpt>
      <trkpt lat="45.5658" lon="3.5318">
        <ele>1008.930809</ele>
        <time>2023-08-25T06:50:43.837Z</time>
      </trkpt>
      <trkpt lat="45.56563" lon="3.53172">
        <ele>1008.45979</ele>
        <time>2023-08-25T06:50:45.824Z</time>
      </trkpt>
      <trkpt lat="45.56547" lon="3.53162">
        <ele>1008.01167</ele>
        <time>2023-08-25T06:50:47.812Z</time>
      </trkpt>
      <trkpt lat="45.56533" lon="3.53152">
        <ele>1007.800077</ele>
        <time>2023-08-25T06:50:49.843Z</time>
      </trkpt>
      <trkpt lat="45.56518" lon="3.53142">
        <ele>1007.719235</ele>
        <time>2023-08-25T06:50:51.830Z</time>
      </trkpt>
      <trkpt lat="45.56504" lon="3.53132">
        <ele>1007.637484</ele>
        <time>2023-08-25T06:50:53.837Z</time>
      </trkpt>
      <trkpt lat="45.5649" lon="3.53122">
        <ele>1007.561213</ele>
        <time>2023-08-25T06:50:55.844Z</time>
      </trkpt>
      <trkpt lat="45.56477" lon="3.53113">
        <ele>1007.489454</ele>
        <time>2023-08-25T06:50:57.839Z</time>
      </trkpt>
      <trkpt lat="45.56463" lon="3.53107">
        <ele>1007.411871</ele>
        <time>2023-08-25T06:50:59.838Z</time>
      </trkpt>
      <trkpt lat="45.56445" lon="3.53106">
        <ele>1007.323808</ele>
        <time>2023-08-25T06:51:01.843Z</time>
      </trkpt>
      <trkpt lat="45.56428" lon="3.53112">
        <ele>1007.235638</ele>
        <time>2023-08-25T06:51:03.838Z</time>
      </trkpt>
      <trkpt lat="45.56413" lon="3.53119">
        <ele>1007.154986</ele>
        <time>2023-08-25T06:51:05.830Z</time>
      </trkpt>
      <trkpt lat="45.56399" lon="3.53128">
        <ele>1007.07925</ele>
        <time>2023-08-25T06:51:07.836Z</time>
      </trkpt>
      <trkpt lat="45.56388" lon="3.53136">
        <ele>1007.016725</ele>
        <time>2023-08-25T06:51:09.828Z</time>
      </trkpt>
      <trkpt lat="45.56378" lon="3.53142">
        <ele>1006.962824</ele>
        <time>2023-08-25T06:51:11.847Z</time>
      </trkpt>
      <trkpt lat="45.56372" lon="3.53153">
        <ele>1007.64164</ele>
        <time>2023-08-25T06:51:13.836Z</time>
      </trkpt>
      <trkpt lat="45.56373" lon="3.53173">
        <ele>1009.108814</ele>
        <time>2023-08-25T06:51:16.835Z</time>
      </trkpt>
      <trkpt lat="45.56373" lon="3.53187">
        <ele>1010.132746</ele>
        <time>2023-08-25T06:51:18.827Z</time>
      </trkpt>
      <trkpt lat="45.56372" lon="3.53201">
        <ele>1011.13358</ele>
        <time>2023-08-25T06:51:20.834Z</time>
      </trkpt>
      <trkpt lat="45.5637" lon="3.53214">
        <ele>1012.143631</ele>
        <time>2023-08-25T06:51:22.855Z</time>
      </trkpt>
      <trkpt lat="45.56368" lon="3.53227">
        <ele>1013.128113</ele>
        <time>2023-08-25T06:51:24.840Z</time>
      </trkpt>
      <trkpt lat="45.56366" lon="3.53245">
        <ele>1014.472205</ele>
        <time>2023-08-25T06:51:27.848Z</time>
      </trkpt>
      <trkpt lat="45.56363" lon="3.53261">
        <ele>1015.669879</ele>
        <time>2023-08-25T06:51:30.842Z</time>
      </trkpt>
      <trkpt lat="45.56361" lon="3.53277">
        <ele>1016.829459</ele>
        <time>2023-08-25T06:51:33.838Z</time>
      </trkpt>
      <trkpt lat="45.56358" lon="3.53291">
        <ele>1017.940864</ele>
        <time>2023-08-25T06:51:36.830Z</time>
      </trkpt>
      <trkpt lat="45.56357" lon="3.53305">
        <ele>1018.951224</ele>
        <time>2023-08-25T06:51:39.822Z</time>
      </trkpt>
      <trkpt lat="45.56355" lon="3.5332">
        <ele>1020.053959</ele>
        <time>2023-08-25T06:51:43.833Z</time>
      </trkpt>
      <trkpt lat="45.56353" lon="3.53335">
        <ele>1021.242141</ele>
        <time>2023-08-25T06:51:48.802Z</time>
      </trkpt>
      <trkpt lat="45.5635" lon="3.53349">
        <ele>1022.273533</ele>
        <time>2023-08-25T06:51:52.846Z</time>
      </trkpt>
      <trkpt lat="45.56343" lon="3.53361">
        <ele>1023.456309</ele>
        <time>2023-08-25T06:51:56.831Z</time>
      </trkpt>
      <trkpt lat="45.56336" lon="3.53369">
        <ele>1024.411225</ele>
        <time>2023-08-25T06:51:59.823Z</time>
      </trkpt>
      <trkpt lat="45.56327" lon="3.53373">
        <ele>1025.396596</ele>
        <time>2023-08-25T06:52:02.842Z</time>
      </trkpt>
      <trkpt lat="45.56316" lon="3.53377">
        <ele>1026.514599</ele>
        <time>2023-08-25T06:52:05.817Z</time>
      </trkpt>
      <trkpt lat="45.56305" lon="3.53383">
        <ele>1027.680215</ele>
        <time>2023-08-25T06:52:09.823Z</time>
      </trkpt>
      <trkpt lat="45.56294" lon="3.53389">
        <ele>1028.839905</ele>
        <time>2023-08-25T06:52:13.837Z</time>
      </trkpt>
      <trkpt lat="45.56284" lon="3.53394">
        <ele>1029.876982</ele>
        <time>2023-08-25T06:52:16.829Z</time>
      </trkpt>
      <trkpt lat="45.56274" lon="3.53399">
        <ele>1030.951498</ele>
        <time>2023-08-25T06:52:19.831Z</time>
      </trkpt>
      <trkpt lat="45.56265" lon="3.53405">
        <ele>1031.980754</ele>
        <time>2023-08-25T06:52:22.831Z</time>
      </trkpt>
      <trkpt lat="45.56255" lon="3.53412">
        <ele>1033.081986</ele>
        <time>2023-08-25T06:52:25.838Z</time>
      </trkpt>
      <trkpt lat="45.56246" lon="3.53419">
        <ele>1034.040171</ele>
        <time>2023-08-25T06:52:28.798Z</time>
      </trkpt>
      <trkpt lat="45.56239" lon="3.53428">
        <ele>1034.987002</ele>
        <time>2023-08-25T06:52:31.828Z</time>
      </trkpt>
      <trkpt lat="45.56231" lon="3.53436">
        <ele>1035.970216</ele>
        <time>2023-08-25T06:52:34.837Z</time>
      </trkpt>
      <trkpt lat="45.56222" lon="3.53447">
        <ele>1037.138736</ele>
        <time>2023-08-25T06:52:38.813Z</time>
      </trkpt>
      <trkpt lat="45.56214" lon="3.53459">
        <ele>1038.308923</ele>
        <time>2023-08-25T06:52:42.846Z</time>
      </trkpt>
      <trkpt lat="45.56205" lon="3.53469">
        <ele>1039.412527</ele>
        <time>2023-08-25T06:52:45.834Z</time>
      </trkpt>
      <trkpt lat="45.56199" lon="3.5348">
        <ele>1040.377626</ele>
        <time>2023-08-25T06:52:48.817Z</time>
      </trkpt>
      <trkpt lat="45.56192" lon="3.53491">
        <ele>1041.400069</ele>
        <time>2023-08-25T06:52:51.831Z</time>
      </trkpt>
      <trkpt lat="45.56185" lon="3.53502">
        <ele>1042.43625</ele>
        <time>2023-08-25T06:52:54.836Z</time>
      </trkpt>
      <trkpt lat="45.56179" lon="3.53513">
        <ele>1043.406213</ele>
        <time>2023-08-25T06:52:57.819Z</time>
      </trkpt>
      <trkpt lat="45.56174" lon="3.53524">
        <ele>1044.301907</ele>
        <time>2023-08-25T06:53:00.841Z</time>
      </trkpt>
      <trkpt lat="45.56167" lon="3.53535">
        <ele>1045.300769</ele>
        <time>2023-08-25T06:53:04.851Z</time>
      </trkpt>
      <trkpt lat="45.56159" lon="3.53546">
        <ele>1046.397493</ele>
        <time>2023-08-25T06:53:08.795Z</time>
      </trkpt>
      <trkpt lat="45.56152" lon="3.53555">
        <ele>1047.259032</ele>
        <time>2023-08-25T06:53:11.815Z</time>
      </trkpt>
      <trkpt lat="45.56145" lon="3.53566">
        <ele>1048.262869</ele>
        <time>2023-08-25T06:53:15.814Z</time>
      </trkpt>
      <trkpt lat="45.56138" lon="3.53575">
        <ele>1049.148367</ele>
        <time>2023-08-25T06:53:18.822Z</time>
      </trkpt>
      <trkpt lat="45.56132" lon="3.53586">
        <ele>1050.03298</ele>
        <time>2023-08-25T06:53:21.833Z</time>
      </trkpt>
      <trkpt lat="45.56123" lon="3.53595">
        <ele>1051.111772</ele>
        <time>2023-08-25T06:53:24.836Z</time>
      </trkpt>
      <trkpt lat="45.56115" lon="3.53604">
        <ele>1052.070858</ele>
        <time>2023-08-25T06:53:27.825Z</time>
      </trkpt>
      <trkpt lat="45.56105" lon="3.53615">
        <ele>1053.251971</ele>
        <time>2023-08-25T06:53:30.829Z</time>
      </trkpt>
      <trkpt lat="45.56097" lon="3.53627">
        <ele>1054.382246</ele>
        <time>2023-08-25T06:53:33.831Z</time>
      </trkpt>
      <trkpt lat="45.5609" lon="3.53643">
        <ele>1055.61052</ele>
        <time>2023-08-25T06:53:36.837Z</time>
      </trkpt>
      <trkpt lat="45.56085" lon="3.53659">
        <ele>1056.810854</ele>
        <time>2023-08-25T06:53:39.835Z</time>
      </trkpt>
      <trkpt lat="45.5608" lon="3.53671">
        <ele>1057.716552</ele>
        <time>2023-08-25T06:53:41.826Z</time>
      </trkpt>
      <trkpt lat="45.56076" lon="3.53683">
        <ele>1058.578704</ele>
        <time>2023-08-25T06:53:43.836Z</time>
      </trkpt>
      <trkpt lat="45.56072" lon="3.53695">
        <ele>1059.474995</ele>
        <time>2023-08-25T06:53:45.842Z</time>
      </trkpt>
      <trkpt lat="45.56068" lon="3.53708">
        <ele>1060.40376</ele>
        <time>2023-08-25T06:53:47.797Z</time>
      </trkpt>
      <trkpt lat="45.56064" lon="3.53721">
        <ele>1060.205418</ele>
        <time>2023-08-25T06:53:49.832Z</time>
      </trkpt>
      <trkpt lat="45.5606" lon="3.53735">
        <ele>1059.281427</ele>
        <time>2023-08-25T06:53:51.833Z</time>
      </trkpt>
      <trkpt lat="45.56058" lon="3.53751">
        <ele>1058.261868</ele>
        <time>2023-08-25T06:53:53.818Z</time>
      </trkpt>
      <trkpt lat="45.56056" lon="3.5377">
        <ele>1057.025821</ele>
        <time>2023-08-25T06:53:56.823Z</time>
      </trkpt>
      <trkpt lat="45.56057" lon="3.53787">
        <ele>1055.973983</ele>
        <time>2023-08-25T06:53:58.819Z</time>
      </trkpt>
      <trkpt lat="45.56061" lon="3.53804">
        <ele>1054.846229</ele>
        <time>2023-08-25T06:54:00.833Z</time>
      </trkpt>
      <trkpt lat="45.56068" lon="3.53824">
        <ele>1053.448122</ele>
        <time>2023-08-25T06:54:02.838Z</time>
      </trkpt>
      <trkpt lat="45.56075" lon="3.53842">
        <ele>1052.14646</ele>
        <time>2023-08-25T06:54:04.839Z</time>
      </trkpt>
      <trkpt lat="45.5608" lon="3.53857">
        <ele>1051.108471</ele>
        <time>2023-08-25T06:54:06.832Z</time>
      </trkpt>
      <trkpt lat="45.56076" lon="3.53873">
        <ele>1050.00959</ele>
        <time>2023-08-25T06:54:08.821Z</time>
      </trkpt>
      <trkpt lat="45.56067" lon="3.53889">
        <ele>1048.746477</ele>
        <time>2023-08-25T06:54:10.799Z</time>
      </trkpt>
      <trkpt lat="45.56062" lon="3.5391">
        <ele>1047.389104</ele>
        <time>2023-08-25T06:54:12.816Z</time>
      </trkpt>
      <trkpt lat="45.56064" lon="3.53933">
        <ele>1045.929574</ele>
        <time>2023-08-25T06:54:14.826Z</time>
      </trkpt>
      <trkpt lat="45.56063" lon="3.53955">
        <ele>1044.724062</ele>
        <time>2023-08-25T06:54:16.839Z</time>
      </trkpt>
      <trkpt lat="45.56056" lon="3.53971">
        <ele>1044.875008</ele>
        <time>2023-08-25T06:54:18.811Z</time>
      </trkpt>
      <trkpt lat="45.56045" lon="3.53982">
        <ele>1045.029698</ele>
        <time>2023-08-25T06:54:20.836Z</time>
      </trkpt>
      <trkpt lat="45.56036" lon="3.53992">
        <ele>1045.163572</ele>
        <time>2023-08-25T06:54:22.850Z</time>
      </trkpt>
      <trkpt lat="45.56027" lon="3.54002">
        <ele>1045.298219</ele>
        <time>2023-08-25T06:54:24.834Z</time>
      </trkpt>
      <trkpt lat="45.56019" lon="3.54013">
        <ele>1045.430501</ele>
        <time>2023-08-25T06:54:26.840Z</time>
      </trkpt>
      <trkpt lat="45.56013" lon="3.54025">
        <ele>1045.547627</ele>
        <time>2023-08-25T06:54:28.829Z</time>
      </trkpt>
      <trkpt lat="45.56009" lon="3.54038">
        <ele>1045.667908</ele>
        <time>2023-08-25T06:54:30.839Z</time>
      </trkpt>
      <trkpt lat="45.56007" lon="3.54052">
        <ele>1045.785277</ele>
        <time>2023-08-25T06:54:32.830Z</time>
      </trkpt>
      <trkpt lat="45.56006" lon="3.54066">
        <ele>1045.895971</ele>
        <time>2023-08-25T06:54:34.844Z</time>
      </trkpt>
      <trkpt lat="45.56004" lon="3.54084">
        <ele>1046.047078</ele>
        <time>2023-08-25T06:54:37.833Z</time>
      </trkpt>
      <trkpt lat="45.56002" lon="3.54102">
        <ele>1046.201481</ele>
        <time>2023-08-25T06:54:40.829Z</time>
      </trkpt>
      <trkpt lat="45.56" lon="3.54119">
        <ele>1046.341087</ele>
        <time>2023-08-25T06:54:43.838Z</time>
      </trkpt>
      <trkpt lat="45.55999" lon="3.54136">
        <ele>1046.48296</ele>
        <time>2023-08-25T06:54:46.848Z</time>
      </trkpt>
      <trkpt lat="45.55998" lon="3.54155">
        <ele>1046.63919</ele>
        <time>2023-08-25T06:54:49.845Z</time>
      </trkpt>
      <trkpt lat="45.55998" lon="3.54169">
        <ele>1046.750305</ele>
        <time>2023-08-25T06:54:51.849Z</time>
      </trkpt>
      <trkpt lat="45.55996" lon="3.54182">
        <ele>1046.911676</ele>
        <time>2023-08-25T06:54:53.839Z</time>
      </trkpt>
      <trkpt lat="45.55995" lon="3.54196">
        <ele>1047.124021</ele>
        <time>2023-08-25T06:54:55.843Z</time>
      </trkpt>
      <trkpt lat="45.55992" lon="3.54214">
        <ele>1047.428812</ele>
        <time>2023-08-25T06:54:58.805Z</time>
      </trkpt>
      <trkpt lat="45.55989" lon="3.54226">
        <ele>1047.633036</ele>
        <time>2023-08-25T06:55:00.836Z</time>
      </trkpt>
      <trkpt lat="45.55984" lon="3.54238">
        <ele>1047.842303</ele>
        <time>2023-08-25T06:55:02.841Z</time>
      </trkpt>
      <trkpt lat="45.55977" lon="3.54246">
        <ele>1048.056104</ele>
        <time>2023-08-25T06:55:04.820Z</time>
      </trkpt>
      <trkpt lat="45.55968" lon="3.54251">
        <ele>1048.284872</ele>
        <time>2023-08-25T06:55:06.828Z</time>
      </trkpt>
      <trkpt lat="45.55958" lon="3.54251">
        <ele>1048.51527</ele>
        <time>2023-08-25T06:55:08.825Z</time>
      </trkpt>
      <trkpt lat="45.55948" lon="3.54243">
        <ele>1048.7656</ele>
        <time>2023-08-25T06:55:10.835Z</time>
      </trkpt>
      <trkpt lat="45.55939" lon="3.54235">
        <ele>1048.999873</ele>
        <time>2023-08-25T06:55:12.842Z</time>
      </trkpt>
      <trkpt lat="45.55929" lon="3.54233">
        <ele>1049.23063</ele>
        <time>2023-08-25T06:55:14.846Z</time>
      </trkpt>
      <trkpt lat="45.55917" lon="3.54235">
        <ele>1049.510193</ele>
        <time>2023-08-25T06:55:16.840Z</time>
      </trkpt>
      <trkpt lat="45.55906" lon="3.54239">
        <ele>1049.779937</ele>
        <time>2023-08-25T06:55:18.812Z</time>
      </trkpt>
      <trkpt lat="45.55897" lon="3.54246">
        <ele>1050.005888</ele>
        <time>2023-08-25T06:55:20.855Z</time>
      </trkpt>
      <trkpt lat="45.55883" lon="3.54246">
        <ele>1050.327466</ele>
        <time>2023-08-25T06:55:23.831Z</time>
      </trkpt>
      <trkpt lat="45.55871" lon="3.54245">
        <ele>1050.594539</ele>
        <time>2023-08-25T06:55:25.836Z</time>
      </trkpt>
      <trkpt lat="45.55859" lon="3.54237">
        <ele>1050.889016</ele>
        <time>2023-08-25T06:55:27.835Z</time>
      </trkpt>
      <trkpt lat="45.55849" lon="3.54234">
        <ele>1050.550013</ele>
        <time>2023-08-25T06:55:29.846Z</time>
      </trkpt>
      <trkpt lat="45.55841" lon="3.54249">
        <ele>1050.067703</ele>
        <time>2023-08-25T06:55:31.843Z</time>
      </trkpt>
      <trkpt lat="45.55841" lon="3.5427">
        <ele>1049.499902</ele>
        <time>2023-08-25T06:55:33.859Z</time>
      </trkpt>
      <trkpt lat="45.55843" lon="3.54293">
        <ele>1048.871426</ele>
        <time>2023-08-25T06:55:35.846Z</time>
      </trkpt>
      <trkpt lat="45.55844" lon="3.54317">
        <ele>1048.242286</ele>
        <time>2023-08-25T06:55:37.843Z</time>
      </trkpt>
      <trkpt lat="45.55845" lon="3.54339">
        <ele>1047.642527</ele>
        <time>2023-08-25T06:55:39.844Z</time>
      </trkpt>
      <trkpt lat="45.55843" lon="3.54361">
        <ele>1047.049246</ele>
        <time>2023-08-25T06:55:41.843Z</time>
      </trkpt>
      <trkpt lat="45.55834" lon="3.5438">
        <ele>1046.462569</ele>
        <time>2023-08-25T06:55:43.838Z</time>
      </trkpt>
      <trkpt lat="45.55823" lon="3.54394">
        <ele>1045.888881</ele>
        <time>2023-08-25T06:55:45.849Z</time>
      </trkpt>
      <trkpt lat="45.55812" lon="3.54411">
        <ele>1045.286311</ele>
        <time>2023-08-25T06:55:47.842Z</time>
      </trkpt>
      <trkpt lat="45.55801" lon="3.54425">
        <ele>1044.696777</ele>
        <time>2023-08-25T06:55:49.855Z</time>
      </trkpt>
      <trkpt lat="45.55787" lon="3.54438">
        <ele>1044.077288</ele>
        <time>2023-08-25T06:55:51.839Z</time>
      </trkpt>
      <trkpt lat="45.55774" lon="3.54451">
        <ele>1043.696388</ele>
        <time>2023-08-25T06:55:53.838Z</time>
      </trkpt>
      <trkpt lat="45.5576" lon="3.54465">
        <ele>1043.312375</ele>
        <time>2023-08-25T06:55:55.838Z</time>
      </trkpt>
      <trkpt lat="45.5575" lon="3.54482">
        <ele>1042.929217</ele>
        <time>2023-08-25T06:55:57.832Z</time>
      </trkpt>
      <trkpt lat="45.55742" lon="3.54502">
        <ele>1042.553908</ele>
        <time>2023-08-25T06:55:59.843Z</time>
      </trkpt>
      <trkpt lat="45.55734" lon="3.54518">
        <ele>1042.236695</ele>
        <time>2023-08-25T06:56:01.844Z</time>
      </trkpt>
      <trkpt lat="45.55725" lon="3.54532">
        <ele>1041.910486</ele>
        <time>2023-08-25T06:56:03.838Z</time>
      </trkpt>
      <trkpt lat="45.55713" lon="3.54543">
        <ele>1041.584753</ele>
        <time>2023-08-25T06:56:05.840Z</time>
      </trkpt>
      <trkpt lat="45.557" lon="3.54551">
        <ele>1041.24681</ele>
        <time>2023-08-25T06:56:07.848Z</time>
      </trkpt>
      <trkpt lat="45.55686" lon="3.54558">
        <ele>1040.904382</ele>
        <time>2023-08-25T06:56:09.854Z</time>
      </trkpt>
      <trkpt lat="45.55672" lon="3.54563">
        <ele>1040.552166</ele>
        <time>2023-08-25T06:56:11.840Z</time>
      </trkpt>
      <trkpt lat="45.55657" lon="3.54567">
        <ele>1040.191885</ele>
        <time>2023-08-25T06:56:13.838Z</time>
      </trkpt>
      <trkpt lat="45.5564" lon="3.54568">
        <ele>1039.84247</ele>
        <time>2023-08-25T06:56:15.835Z</time>
      </trkpt>
      <trkpt lat="45.55623" lon="3.54569">
        <ele>1039.84247</ele>
        <time>2023-08-25T06:56:17.846Z</time>
      </trkpt>
      <trkpt lat="45.55606" lon="3.54569">
        <ele>1039.84247</ele>
        <time>2023-08-25T06:56:19.841Z</time>
      </trkpt>
      <trkpt lat="45.55588" lon="3.54567">
        <ele>1039.84247</ele>
        <time>2023-08-25T06:56:21.838Z</time>
      </trkpt>
      <trkpt lat="45.55578" lon="3.54565">
        <ele>1039.84247</ele>
        <time>2023-08-25T06:56:22.846Z</time>
      </trkpt>
      <trkpt lat="45.55568" lon="3.54566">
        <ele>1039.84247</ele>
        <time>2023-08-25T06:56:23.821Z</time>
      </trkpt>
      <trkpt lat="45.55558" lon="3.5457">
        <ele>1039.84247</ele>
        <time>2023-08-25T06:56:24.844Z</time>
      </trkpt>
      <trkpt lat="45.55548" lon="3.54576">
        <ele>1039.84247</ele>
        <time>2023-08-25T06:56:25.826Z</time>
      </trkpt>
      <trkpt lat="45.55538" lon="3.54582">
        <ele>1039.84247</ele>
        <time>2023-08-25T06:56:26.846Z</time>
      </trkpt>
      <trkpt lat="45.55528" lon="3.54586">
        <ele>1039.84247</ele>
        <time>2023-08-25T06:56:27.838Z</time>
      </trkpt>
      <trkpt lat="45.55519" lon="3.5459">
        <ele>1039.84247</ele>
        <time>2023-08-25T06:56:28.826Z</time>
      </trkpt>
      <trkpt lat="45.55504" lon="3.54596">
        <ele>1039.84247</ele>
        <time>2023-08-25T06:56:30.842Z</time>
      </trkpt>
      <trkpt lat="45.55495" lon="3.5459">
        <ele>1039.84247</ele>
        <time>2023-08-25T06:56:32.845Z</time>
      </trkpt>
      <trkpt lat="45.55502" lon="3.54576">
        <ele>1039.84247</ele>
        <time>2023-08-25T06:56:35.841Z</time>
      </trkpt>
      <trkpt lat="45.55506" lon="3.54581">
        <ele>1039.84247</ele>
        <time>2023-08-25T06:57:15.499Z</time>
      </trkpt>
    </trkseg>
  </trk>
</gpx>